Behrens, Klaus (2017): Radiosonde measurements from station Lindenberg (2009-06) [dataset]. Meteorologisches Observatorium Potsdam, PANGAEA, https://doi.org/10.1594/PANGAEA.871650
Always quote citation above when using data! You can download the citation in several formats below.
Published: 2017-02-03 • DOI registered: 2017-03-08
Other version:
Behrens, Klaus (2017): BSRN Station-to-archive file for station Lindenberg (2009-06) [dataset]. ftp://ftp.bsrn.awi.de/lin/lin0609.dat.gz
Project(s):
Coverage:
Latitude: 52.210000 * Longitude: 14.122000
Date/Time Start: 2009-06-01T00:00:00 * Date/Time End: 2009-06-30T18:00:00
Minimum ALTITUDE: 112 m * Maximum ALTITUDE: 37367 m
Event(s):
LIN (Lindenberg) * Latitude: 52.210000 * Longitude: 14.122000 * Date/Time: 1994-09-01T00:00:00 * Elevation: 125.0 m * Location: Germany * Method/Device: Monitoring station (MONS) * Comment: BSRN station no: 12; Surface type: cultivated; Topography type: hilly, rural; Horizon: doi:10.1594/PANGAEA.669521; Station scientist: Stefan Wacker (Stefan.Wacker@dwd.de)
Parameter(s):
| # | Name | Short Name | Unit | Principal Investigator | Method/Device | Comment |
|---|---|---|---|---|---|---|
| 1 | DATE/TIME | Date/Time | Behrens, Klaus | Geocode | ||
| 2 | ALTITUDE | Altitude | m | Behrens, Klaus | Geocode | |
| 3 | Pressure, at given altitude | PPPP | hPa | Behrens, Klaus | Radiosonde, Vaisala, RS92 | |
| 4 | Temperature, air | TTT | °C | Behrens, Klaus | Radiosonde, Vaisala, RS92 | |
| 5 | Dew/frost point | TdTdTd | °C | Behrens, Klaus | Radiosonde, Vaisala, RS92 | |
| 6 | Wind direction | dd | deg | Behrens, Klaus | Radiosonde, Vaisala, RS92 | |
| 7 | Wind speed | ff | m/s | Behrens, Klaus | Radiosonde, Vaisala, RS92 | |
| 8 | Ozone, partial pressure | pO3 | mPa | Behrens, Klaus | Radiosonde, Vaisala, RS92 |
License:
Size:
738344 data points
Data
| 1 Date/Time | 2 Altitude [m] | 3 PPPP [hPa] | 4 TTT [°C] | 5 TdTdTd [°C] | 6 dd [deg] | 7 ff [m/s] | 8 pO3 [mPa] |
|---|---|---|---|---|---|---|---|
| 2009-06-01T00:00 | 112 | 1008 | 12.9 | 12.6 | 10 | 3 | |
| 2009-06-01T00:00 | 130 | 1006 | 13.8 | 12.7 | 17 | 5 | |
| 2009-06-01T00:00 | 158 | 1002 | 14.2 | 12.4 | 21 | 7 | |
| 2009-06-01T00:00 | 185 | 999 | 14.2 | 12.1 | 24 | 9 | |
| 2009-06-01T00:00 | 209 | 996 | 15.2 | 12.2 | 27 | 11 | |
| 2009-06-01T00:00 | 237 | 993 | 15.8 | 11.6 | 30 | 11 | |
| 2009-06-01T00:00 | 267 | 990 | 15.6 | 11.0 | 33 | 12 | |
| 2009-06-01T00:00 | 297 | 986 | 15.2 | 10.6 | 36 | 12 | |
| 2009-06-01T00:00 | 325 | 983 | 15.1 | 10.7 | 38 | 12 | |
| 2009-06-01T00:00 | 355 | 979 | 14.9 | 10.5 | 40 | 11 | |
| 2009-06-01T00:00 | 380 | 977 | 14.7 | 10.5 | 42 | 11 | |
| 2009-06-01T00:00 | 402 | 974 | 14.6 | 10.2 | 44 | 11 | |
| 2009-06-01T00:00 | 426 | 971 | 14.2 | 10.2 | 46 | 11 | |
| 2009-06-01T00:00 | 457 | 968 | 14.2 | 9.6 | 47 | 11 | |
| 2009-06-01T00:00 | 483 | 965 | 13.9 | 9.7 | 47 | 11 | |
| 2009-06-01T00:00 | 509 | 962 | 14.0 | 9.2 | 47 | 11 | |
| 2009-06-01T00:00 | 535 | 959 | 13.8 | 9.3 | 47 | 11 | |
| 2009-06-01T00:00 | 563 | 956 | 13.5 | 9.0 | 48 | 11 | |
| 2009-06-01T00:00 | 588 | 953 | 13.2 | 8.9 | 49 | 11 | |
| 2009-06-01T00:00 | 617 | 950 | 13.1 | 8.8 | 50 | 11 | |
| 2009-06-01T00:00 | 646 | 946 | 12.9 | 8.8 | 52 | 11 | |
| 2009-06-01T00:00 | 671 | 943 | 12.6 | 8.5 | 55 | 11 | |
| 2009-06-01T00:00 | 697 | 941 | 12.4 | 8.5 | 58 | 11 | |
| 2009-06-01T00:00 | 724 | 937 | 12.4 | 8.1 | 62 | 11 | |
| 2009-06-01T00:00 | 754 | 934 | 12.2 | 65 | 11 | ||
| 2009-06-01T00:00 | 779 | 931 | 11.9 | 7.8 | 69 | 11 | |
| 2009-06-01T00:00 | 808 | 928 | 11.7 | 7.6 | 71 | 11 | |
| 2009-06-01T00:00 | 835 | 925 | 11.4 | 7.5 | 73 | 11 | |
| 2009-06-01T00:00 | 861 | 922 | 11.2 | 7.5 | 75 | 11 | |
| 2009-06-01T00:00 | 890 | 919 | 10.9 | 7.2 | 76 | 12 | |
| 2009-06-01T00:00 | 916 | 916 | 10.9 | 7.0 | 77 | 12 | |
| 2009-06-01T00:00 | 945 | 913 | 10.8 | 6.6 | 78 | 11 | |
| 2009-06-01T00:00 | 968 | 911 | 10.9 | 5.9 | 79 | 11 | |
| 2009-06-01T00:00 | 995 | 908 | 10.8 | 5.1 | 79 | 11 | |
| 2009-06-01T00:00 | 1018 | 905 | 10.7 | 5.0 | 79 | 11 | |
| 2009-06-01T00:00 | 1043 | 902 | 10.6 | 4.5 | 78 | 11 | |
| 2009-06-01T00:00 | 1065 | 900 | 10.5 | 4.4 | 77 | 11 | |
| 2009-06-01T00:00 | 1092 | 897 | 10.4 | 4.8 | 76 | 11 | |
| 2009-06-01T00:00 | 1119 | 894 | 10.4 | 5.2 | 75 | 11 | |
| 2009-06-01T00:00 | 1144 | 892 | 10.2 | 4.8 | 74 | 11 | |
| 2009-06-01T00:00 | 1170 | 889 | 10.2 | 5.0 | 73 | 11 | |
| 2009-06-01T00:00 | 1198 | 886 | 10.0 | 4.6 | 72 | 11 | |
| 2009-06-01T00:00 | 1222 | 883 | 9.9 | 5.1 | 71 | 11 | |
| 2009-06-01T00:00 | 1246 | 881 | 9.6 | 5.0 | 70 | 10 | |
| 2009-06-01T00:00 | 1267 | 878 | 9.4 | 5.0 | 69 | 10 | |
| 2009-06-01T00:00 | 1298 | 875 | 9.2 | 4.8 | 68 | 10 | |
| 2009-06-01T00:00 | 1330 | 872 | 9.0 | 4.8 | 68 | 10 | |
| 2009-06-01T00:00 | 1361 | 869 | 8.9 | 4.7 | 67 | 10 | |
| 2009-06-01T00:00 | 1391 | 865 | 8.8 | 4.6 | 67 | 10 | |
| 2009-06-01T00:00 | 1414 | 863 | 8.6 | 4.6 | 67 | 11 | |
| 2009-06-01T00:00 | 1446 | 860 | 8.4 | 4.6 | 67 | 11 | |
| 2009-06-01T00:00 | 1477 | 856 | 8.2 | 4.4 | 68 | 12 | |
| 2009-06-01T00:00 | 1504 | 854 | 8.0 | 4.2 | 69 | 12 | |
| 2009-06-01T00:00 | 1535 | 851 | 8.0 | 3.8 | 70 | 12 | |
| 2009-06-01T00:00 | 1562 | 848 | 7.7 | 3.7 | 71 | 12 | |
| 2009-06-01T00:00 | 1590 | 845 | 7.5 | 3.6 | 72 | 13 | |
| 2009-06-01T00:00 | 1619 | 842 | 7.2 | 3.4 | 72 | 13 | |
| 2009-06-01T00:00 | 1647 | 839 | 7.1 | 3.4 | 72 | 13 | |
| 2009-06-01T00:00 | 1678 | 836 | 7.0 | 3.1 | 72 | 13 | |
| 2009-06-01T00:00 | 1704 | 833 | 6.8 | 3.1 | 72 | 12 | |
| 2009-06-01T00:00 | 1736 | 830 | 6.6 | 2.7 | 71 | 12 | |
| 2009-06-01T00:00 | 1768 | 827 | 6.4 | 2.5 | 71 | 12 | |
| 2009-06-01T00:00 | 1795 | 824 | 6.2 | 2.5 | 71 | 12 | |
| 2009-06-01T00:00 | 1822 | 821 | 6.0 | 2.1 | 71 | 12 | |
| 2009-06-01T00:00 | 1850 | 819 | 5.8 | 2.3 | 71 | 12 | |
| 2009-06-01T00:00 | 1878 | 816 | 5.6 | 1.9 | 70 | 12 | |
| 2009-06-01T00:00 | 1905 | 813 | 5.4 | 2.1 | 70 | 12 | |
| 2009-06-01T00:00 | 1935 | 810 | 5.2 | 2.0 | 68 | 12 | |
| 2009-06-01T00:00 | 1967 | 807 | 5.0 | 2.0 | 67 | 12 | |
| 2009-06-01T00:00 | 2000 | 804 | 4.8 | 1.8 | 66 | 12 | |
| 2009-06-01T00:00 | 2031 | 801 | 4.6 | 1.6 | 65 | 12 | |
| 2009-06-01T00:00 | 2061 | 798 | 4.4 | 1.3 | 64 | 13 | |
| 2009-06-01T00:00 | 2093 | 795 | 4.2 | 1.2 | 64 | 13 | |
| 2009-06-01T00:00 | 2123 | 792 | 4.1 | 1.1 | 63 | 13 | |
| 2009-06-01T00:00 | 2154 | 789 | 3.9 | 0.9 | 63 | 13 | |
| 2009-06-01T00:00 | 2186 | 786 | 3.7 | 0.9 | 62 | 13 | |
| 2009-06-01T00:00 | 2212 | 783 | 3.5 | 0.9 | 61 | 13 | |
| 2009-06-01T00:00 | 2249 | 779 | 3.2 | 0.8 | 61 | 13 | |
| 2009-06-01T00:00 | 2281 | 776 | 2.9 | 0.5 | 60 | 13 | |
| 2009-06-01T00:00 | 2308 | 774 | 2.7 | 0.4 | 60 | 13 | |
| 2009-06-01T00:00 | 2336 | 771 | 2.5 | 0.4 | 60 | 13 | |
| 2009-06-01T00:00 | 2364 | 768 | 2.2 | 0.3 | 60 | 12 | |
| 2009-06-01T00:00 | 2391 | 766 | 2.0 | 0.2 | 60 | 12 | |
| 2009-06-01T00:00 | 2416 | 764 | 1.7 | -0.1 | 61 | 12 | |
| 2009-06-01T00:00 | 2437 | 762 | 1.6 | -0.2 | 62 | 13 | |
| 2009-06-01T00:00 | 2461 | 759 | 1.6 | -0.2 | 63 | 13 | |
| 2009-06-01T00:00 | 2492 | 756 | 1.6 | -0.3 | 64 | 14 | |
| 2009-06-01T00:00 | 2520 | 754 | 1.4 | -0.5 | 64 | 14 | |
| 2009-06-01T00:00 | 2547 | 751 | 1.1 | 64 | 14 | ||
| 2009-06-01T00:00 | 2579 | 748 | 0.8 | -0.7 | 64 | 15 | |
| 2009-06-01T00:00 | 2605 | 746 | 0.6 | -0.8 | 63 | 14 | |
| 2009-06-01T00:00 | 2634 | 743 | 0.4 | -0.8 | 62 | 14 | |
| 2009-06-01T00:00 | 2668 | 740 | 0.0 | -1.0 | 62 | 14 | |
| 2009-06-01T00:00 | 2702 | 737 | -0.3 | -1.1 | 62 | 14 | |
| 2009-06-01T00:00 | 2736 | 734 | -0.6 | -1.2 | 62 | 14 | |
| 2009-06-01T00:00 | 2767 | 731 | -0.9 | -1.3 | 62 | 14 | |
| 2009-06-01T00:00 | 2796 | 728 | -1.1 | -1.3 | 61 | 15 | |
| 2009-06-01T00:00 | 2828 | 725 | -1.3 | -1.5 | 60 | 15 | |
| 2009-06-01T00:00 | 2856 | 723 | -0.8 | -1.8 | 60 | 15 | |
| 2009-06-01T00:00 | 2883 | 720 | -0.8 | -2.1 | 59 | 15 | |
| 2009-06-01T00:00 | 2908 | 718 | -1.1 | -2.4 | 58 | 15 | |
| 2009-06-01T00:00 | 2938 | 715 | -1.3 | -2.3 | 58 | 15 | |
| 2009-06-01T00:00 | 2967 | 713 | -1.5 | -2.4 | 58 | 15 | |
| 2009-06-01T00:00 | 3001 | 710 | -1.8 | -2.5 | 58 | 14 | |
| 2009-06-01T00:00 | 3033 | 707 | -2.0 | -2.6 | 57 | 14 | |
| 2009-06-01T00:00 | 3066 | 704 | -2.1 | -2.7 | 56 | 13 | |
| 2009-06-01T00:00 | 3096 | 701 | -2.1 | -3.0 | 54 | 13 | |
| 2009-06-01T00:00 | 3126 | 699 | -2.2 | -3.2 | 52 | 13 | |
| 2009-06-01T00:00 | 3154 | 696 | -2.2 | -3.3 | 52 | 13 | |
| 2009-06-01T00:00 | 3177 | 694 | -2.4 | -3.5 | 52 | 12 | |
| 2009-06-01T00:00 | 3204 | 692 | -2.6 | -3.7 | 53 | 13 | |
| 2009-06-01T00:00 | 3231 | 690 | -2.8 | -3.9 | 54 | 13 | |
| 2009-06-01T00:00 | 3256 | 687 | -3.0 | -4.0 | 55 | 13 | |
| 2009-06-01T00:00 | 3282 | 685 | -3.2 | -4.3 | 56 | 13 | |
| 2009-06-01T00:00 | 3307 | 683 | -3.4 | -4.5 | 56 | 13 | |
| 2009-06-01T00:00 | 3331 | 681 | -3.3 | -5.1 | 56 | 13 | |
| 2009-06-01T00:00 | 3359 | 678 | -3.5 | -5.4 | 56 | 12 | |
| 2009-06-01T00:00 | 3383 | 676 | -3.5 | -6.0 | 56 | 12 | |
| 2009-06-01T00:00 | 3406 | 674 | -3.5 | -5.8 | 55 | 12 | |
| 2009-06-01T00:00 | 3427 | 673 | -3.8 | -6.1 | 55 | 12 | |
| 2009-06-01T00:00 | 3454 | 670 | -3.8 | -6.1 | 55 | 12 | |
| 2009-06-01T00:00 | 3480 | 668 | -4.0 | -6.2 | 55 | 12 | |
| 2009-06-01T00:00 | 3507 | 666 | -4.1 | -5.7 | 56 | 12 | |
| 2009-06-01T00:00 | 3532 | 664 | -4.2 | -5.8 | 58 | 12 | |
| 2009-06-01T00:00 | 3558 | 662 | -4.4 | -6.0 | 60 | 12 | |
| 2009-06-01T00:00 | 3581 | 660 | -4.2 | -6.4 | 61 | 13 | |
| 2009-06-01T00:00 | 3612 | 657 | -4.1 | -7.0 | 63 | 13 | |
| 2009-06-01T00:00 | 3642 | 655 | -4.1 | -7.8 | 63 | 14 | |
| 2009-06-01T00:00 | 3667 | 653 | -4.2 | -9.5 | 63 | 14 | |
| 2009-06-01T00:00 | 3693 | 650 | -4.4 | -10.5 | 63 | 15 | |
| 2009-06-01T00:00 | 3721 | 648 | -4.5 | -10.9 | 63 | 15 | |
| 2009-06-01T00:00 | 3750 | 646 | -4.8 | -10.8 | 63 | 15 | |
| 2009-06-01T00:00 | 3779 | 643 | -5.0 | -10.7 | 63 | 14 | |
| 2009-06-01T00:00 | 3811 | 641 | -5.2 | -9.1 | 64 | 14 | |
| 2009-06-01T00:00 | 3848 | 638 | -5.3 | -9.2 | 65 | 14 | |
| 2009-06-01T00:00 | 3883 | 635 | -5.6 | -9.2 | 65 | 14 | |
| 2009-06-01T00:00 | 3916 | 632 | -5.9 | -9.2 | 64 | 14 | |
| 2009-06-01T00:00 | 3953 | 629 | -6.1 | -9.3 | 62 | 13 | |
| 2009-06-01T00:00 | 3988 | 626 | -6.1 | -9.7 | 61 | 13 | |
| 2009-06-01T00:00 | 4020 | 624 | -6.3 | -10.2 | 60 | 13 | |
| 2009-06-01T00:00 | 4052 | 621 | -6.6 | -10.5 | 59 | 13 | |
| 2009-06-01T00:00 | 4082 | 619 | -6.8 | -10.7 | 59 | 13 | |
| 2009-06-01T00:00 | 4115 | 616 | -7.0 | -10.7 | 59 | 13 | |
| 2009-06-01T00:00 | 4149 | 614 | -7.3 | -10.9 | 59 | 13 | |
| 2009-06-01T00:00 | 4179 | 611 | -7.6 | -11.0 | 58 | 13 | |
| 2009-06-01T00:00 | 4215 | 608 | -7.9 | -10.9 | 58 | 13 | |
| 2009-06-01T00:00 | 4247 | 606 | -8.1 | -11.1 | 59 | 13 | |
| 2009-06-01T00:00 | 4277 | 604 | -8.3 | -11.4 | 60 | 13 | |
| 2009-06-01T00:00 | 4313 | 601 | -8.6 | -11.7 | 61 | 13 | |
| 2009-06-01T00:00 | 4345 | 598 | -8.8 | -12.0 | 62 | 12 | |
| 2009-06-01T00:00 | 4379 | 596 | -9.1 | -12.0 | 63 | 12 | |
| 2009-06-01T00:00 | 4416 | 593 | -9.2 | -12.1 | 63 | 12 | |
| 2009-06-01T00:00 | 4448 | 590 | -9.4 | -12.3 | 62 | 12 | |
| 2009-06-01T00:00 | 4479 | 588 | -9.8 | -12.7 | 62 | 12 | |
| 2009-06-01T00:00 | 4511 | 586 | -9.9 | -12.7 | 63 | 12 | |
| 2009-06-01T00:00 | 4542 | 583 | -10.1 | -12.9 | 64 | 13 | |
| 2009-06-01T00:00 | 4570 | 581 | -10.4 | -13.0 | 65 | 13 | |
| 2009-06-01T00:00 | 4600 | 579 | -10.6 | -13.1 | 66 | 13 | |
| 2009-06-01T00:00 | 4632 | 576 | -10.6 | -13.5 | 67 | 12 | |
| 2009-06-01T00:00 | 4664 | 574 | -10.6 | -13.9 | 66 | 12 | |
| 2009-06-01T00:00 | 4692 | 572 | -10.8 | -14.3 | 65 | 12 | |
| 2009-06-01T00:00 | 4723 | 570 | -10.9 | -14.5 | 64 | 12 | |
| 2009-06-01T00:00 | 4760 | 567 | -11.1 | -14.9 | 63 | 12 | |
| 2009-06-01T00:00 | 4793 | 565 | -11.2 | -15.1 | 62 | 12 | |
| 2009-06-01T00:00 | 4826 | 562 | -11.3 | -15.5 | 62 | 12 | |
| 2009-06-01T00:00 | 4861 | 560 | -11.5 | -16.1 | 62 | 12 | |
| 2009-06-01T00:00 | 4891 | 557 | -11.6 | -16.1 | 62 | 12 | |
| 2009-06-01T00:00 | 4927 | 555 | -11.9 | -16.4 | 64 | 13 | |
| 2009-06-01T00:00 | 4961 | 552 | -12.1 | -17.0 | 66 | 13 | |
| 2009-06-01T00:00 | 4999 | 550 | -12.5 | -17.3 | 68 | 13 | |
| 2009-06-01T00:00 | 5032 | 547 | -12.8 | -17.3 | 70 | 13 | |
| 2009-06-01T00:00 | 5061 | 545 | -13.1 | -17.6 | 72 | 13 | |
| 2009-06-01T00:00 | 5091 | 543 | -13.3 | -18.0 | 74 | 13 | |
| 2009-06-01T00:00 | 5125 | 541 | -13.5 | -18.1 | 74 | 13 | |
| 2009-06-01T00:00 | 5156 | 538 | -13.8 | -18.3 | 74 | 14 | |
| 2009-06-01T00:00 | 5186 | 536 | -14.0 | -18.3 | 73 | 14 | |
| 2009-06-01T00:00 | 5218 | 534 | -14.3 | -18.4 | 72 | 14 | |
| 2009-06-01T00:00 | 5252 | 532 | -14.5 | -18.3 | 71 | 13 | |
| 2009-06-01T00:00 | 5284 | 529 | -14.8 | -18.5 | 70 | 13 | |
| 2009-06-01T00:00 | 5318 | 527 | -15.0 | -18.8 | 69 | 13 | |
| 2009-06-01T00:00 | 5352 | 525 | -15.1 | -19.4 | 68 | 13 | |
| 2009-06-01T00:00 | 5382 | 522 | -15.3 | -19.7 | 67 | 13 | |
| 2009-06-01T00:00 | 5412 | 520 | -15.4 | -20.3 | 67 | 13 | |
| 2009-06-01T00:00 | 5445 | 518 | -15.8 | -20.7 | 67 | 13 | |
| 2009-06-01T00:00 | 5473 | 516 | -15.9 | -20.5 | 67 | 13 | |
| 2009-06-01T00:00 | 5504 | 514 | -16.1 | -20.5 | 68 | 13 | |
| 2009-06-01T00:00 | 5539 | 512 | -16.2 | -21.4 | 68 | 13 | |
| 2009-06-01T00:00 | 5572 | 510 | -16.3 | -21.5 | 67 | 12 | |
| 2009-06-01T00:00 | 5605 | 507 | -16.6 | -21.8 | 67 | 12 | |
| 2009-06-01T00:00 | 5638 | 505 | -16.9 | -21.9 | 67 | 12 | |
| 2009-06-01T00:00 | 5669 | 503 | -17.0 | -22.2 | 67 | 12 | |
| 2009-06-01T00:00 | 5698 | 501 | -17.3 | -22.3 | 67 | 12 | |
| 2009-06-01T00:00 | 5728 | 499 | -17.5 | -22.3 | 67 | 13 | |
| 2009-06-01T00:00 | 5759 | 497 | -17.8 | -22.6 | 66 | 13 | |
| 2009-06-01T00:00 | 5789 | 495 | -17.9 | -22.9 | 65 | 13 | |
| 2009-06-01T00:00 | 5822 | 493 | -18.1 | -23.4 | 64 | 13 | |
| 2009-06-01T00:00 | 5847 | 491 | -18.4 | -23.7 | 63 | 14 | |
| 2009-06-01T00:00 | 5880 | 489 | -18.6 | -23.7 | 63 | 14 | |
| 2009-06-01T00:00 | 5913 | 487 | -18.9 | -24.0 | 64 | 15 | |
| 2009-06-01T00:00 | 5946 | 485 | -19.2 | -24.0 | 65 | 15 | |
| 2009-06-01T00:00 | 5974 | 483 | -19.5 | -24.1 | 66 | 15 | |
| 2009-06-01T00:00 | 6011 | 480 | -19.8 | -24.4 | 66 | 15 | |
| 2009-06-01T00:00 | 6045 | 478 | -20.1 | -24.5 | 66 | 14 | |
| 2009-06-01T00:00 | 6078 | 476 | -20.4 | -24.5 | 66 | 14 | |
| 2009-06-01T00:00 | 6108 | 474 | -20.6 | -24.5 | 65 | 14 | |
| 2009-06-01T00:00 | 6142 | 472 | -20.9 | -24.7 | 64 | 14 | |
| 2009-06-01T00:00 | 6180 | 470 | -21.2 | -25.0 | 63 | 14 | |
| 2009-06-01T00:00 | 6214 | 467 | -21.5 | -25.1 | 62 | 14 | |
| 2009-06-01T00:00 | 6247 | 465 | -21.7 | -25.5 | 61 | 14 | |
| 2009-06-01T00:00 | 6280 | 463 | -22.0 | -25.6 | 61 | 13 | |
| 2009-06-01T00:00 | 6314 | 461 | -22.3 | -25.9 | 60 | 13 | |
| 2009-06-01T00:00 | 6344 | 459 | -22.6 | -26.2 | 60 | 13 | |
| 2009-06-01T00:00 | 6375 | 457 | -22.9 | -26.2 | 60 | 14 | |
| 2009-06-01T00:00 | 6402 | 456 | -23.1 | -26.4 | 60 | 14 | |
| 2009-06-01T00:00 | 6436 | 453 | -23.3 | -26.7 | 61 | 14 | |
| 2009-06-01T00:00 | 6470 | 451 | -23.6 | -27.0 | 61 | 14 | |
| 2009-06-01T00:00 | 6498 | 450 | -23.9 | -27.2 | 61 | 14 | |
| 2009-06-01T00:00 | 6530 | 448 | -24.1 | -27.4 | 60 | 14 | |
| 2009-06-01T00:00 | 6564 | 446 | -24.4 | -27.8 | 59 | 15 | |
| 2009-06-01T00:00 | 6595 | 444 | -24.5 | -28.0 | 57 | 15 | |
| 2009-06-01T00:00 | 6631 | 442 | -24.8 | -28.2 | 55 | 15 | |
| 2009-06-01T00:00 | 6661 | 440 | -25.1 | -28.5 | 54 | 15 | |
| 2009-06-01T00:00 | 6691 | 438 | -25.3 | -28.7 | 53 | 15 | |
| 2009-06-01T00:00 | 6720 | 436 | -25.5 | -29.1 | 53 | 15 | |
| 2009-06-01T00:00 | 6753 | 434 | -25.6 | -29.5 | 53 | 15 | |
| 2009-06-01T00:00 | 6787 | 432 | -25.8 | -30.2 | 54 | 14 | |
| 2009-06-01T00:00 | 6821 | 430 | -26.0 | -30.8 | 55 | 14 | |
| 2009-06-01T00:00 | 6855 | 428 | -26.2 | -31.3 | 55 | 15 | |
| 2009-06-01T00:00 | 6892 | 426 | -26.6 | -31.6 | 56 | 15 | |
| 2009-06-01T00:00 | 6929 | 424 | -27.0 | -31.8 | 56 | 15 | |
| 2009-06-01T00:00 | 6963 | 422 | -27.3 | -31.8 | 55 | 15 | |
| 2009-06-01T00:00 | 6996 | 420 | -27.6 | -31.9 | 54 | 15 | |
| 2009-06-01T00:00 | 7026 | 418 | -27.9 | -32.2 | 53 | 15 | |
| 2009-06-01T00:00 | 7056 | 416 | -28.0 | -32.6 | 51 | 15 | |
| 2009-06-01T00:00 | 7084 | 415 | -28.3 | -32.9 | 50 | 15 | |
| 2009-06-01T00:00 | 7117 | 413 | -28.7 | -33.1 | 49 | 15 | |
| 2009-06-01T00:00 | 7146 | 411 | -29.0 | -33.4 | 49 | 15 | |
| 2009-06-01T00:00 | 7183 | 409 | -29.3 | -33.5 | 50 | 15 | |
| 2009-06-01T00:00 | 7221 | 407 | -29.6 | -33.8 | 50 | 15 | |
| 2009-06-01T00:00 | 7244 | 405 | -29.8 | -33.7 | 51 | 14 | |
| 2009-06-01T00:00 | 7271 | 404 | -30.1 | -33.9 | 52 | 14 | |
| 2009-06-01T00:00 | 7302 | 402 | -30.3 | -33.9 | 53 | 14 | |
| 2009-06-01T00:00 | 7336 | 400 | -30.6 | -34.2 | 53 | 14 | |
| 2009-06-01T00:00 | 7368 | 398 | -30.9 | -34.4 | 53 | 14 | |
| 2009-06-01T00:00 | 7399 | 397 | -31.1 | -34.6 | 53 | 14 | |
| 2009-06-01T00:00 | 7435 | 395 | -31.4 | -35.0 | 54 | 14 | |
| 2009-06-01T00:00 | 7469 | 393 | -31.6 | -35.3 | 54 | 14 | |
| 2009-06-01T00:00 | 7502 | 391 | -31.8 | -36.1 | 56 | 14 | |
| 2009-06-01T00:00 | 7537 | 389 | -32.0 | -36.9 | 57 | 14 | |
| 2009-06-01T00:00 | 7570 | 387 | -32.3 | -37.3 | 59 | 14 | |
| 2009-06-01T00:00 | 7603 | 385 | -32.5 | -37.8 | 60 | 14 | |
| 2009-06-01T00:00 | 7637 | 384 | -32.8 | -38.1 | 60 | 14 | |
| 2009-06-01T00:00 | 7671 | 382 | -33.0 | -38.5 | 60 | 15 | |
| 2009-06-01T00:00 | 7702 | 380 | -33.3 | -38.8 | 59 | 15 | |
| 2009-06-01T00:00 | 7732 | 378 | -33.6 | -38.9 | 59 | 15 | |
| 2009-06-01T00:00 | 7765 | 377 | -33.9 | -39.0 | 59 | 16 | |
| 2009-06-01T00:00 | 7800 | 375 | -34.2 | -39.3 | 59 | 16 | |
| 2009-06-01T00:00 | 7836 | 373 | -34.6 | -39.5 | 59 | 15 | |
| 2009-06-01T00:00 | 7871 | 371 | -34.9 | -39.7 | 59 | 15 | |
| 2009-06-01T00:00 | 7903 | 369 | -35.2 | -39.8 | 58 | 15 | |
| 2009-06-01T00:00 | 7935 | 368 | -35.5 | -40.0 | 56 | 15 | |
| 2009-06-01T00:00 | 7966 | 366 | -35.7 | -40.2 | 55 | 15 | |
| 2009-06-01T00:00 | 7997 | 364 | -35.9 | -40.5 | 53 | 15 | |
| 2009-06-01T00:00 | 8028 | 363 | -36.2 | -40.8 | 53 | 15 | |
| 2009-06-01T00:00 | 8057 | 361 | -36.5 | -41.1 | 53 | 15 | |
| 2009-06-01T00:00 | 8089 | 360 | -36.8 | -41.5 | 53 | 15 | |
| 2009-06-01T00:00 | 8121 | 358 | -37.1 | -41.8 | 53 | 15 | |
| 2009-06-01T00:00 | 8155 | 356 | -37.4 | -42.1 | 53 | 15 | |
| 2009-06-01T00:00 | 8184 | 355 | -37.6 | -42.1 | 53 | 15 | |
| 2009-06-01T00:00 | 8221 | 353 | -37.9 | -42.6 | 53 | 15 | |
| 2009-06-01T00:00 | 8245 | 352 | -38.1 | -42.8 | 53 | 16 | |
| 2009-06-01T00:00 | 8277 | 350 | -38.4 | -43.2 | 53 | 16 | |
| 2009-06-01T00:00 | 8307 | 348 | -38.6 | -43.5 | 53 | 16 | |
| 2009-06-01T00:00 | 8344 | 347 | -38.9 | -43.8 | 53 | 17 | |
| 2009-06-01T00:00 | 8379 | 345 | -39.2 | -44.7 | 53 | 17 | |
| 2009-06-01T00:00 | 8411 | 343 | -39.4 | -45.4 | 52 | 17 | |
| 2009-06-01T00:00 | 8447 | 341 | -39.8 | -45.6 | 53 | 17 | |
| 2009-06-01T00:00 | 8489 | 339 | -40.1 | -45.7 | 53 | 17 | |
| 2009-06-01T00:00 | 8524 | 337 | -40.4 | -46.0 | 54 | 17 | |
| 2009-06-01T00:00 | 8561 | 336 | -40.6 | -46.7 | 55 | 17 | |
| 2009-06-01T00:00 | 8597 | 334 | -40.8 | -48.0 | 56 | 17 | |
| 2009-06-01T00:00 | 8632 | 332 | -41.1 | -49.1 | 57 | 18 | |
| 2009-06-01T00:00 | 8663 | 331 | -41.3 | -49.7 | 57 | 18 | |
| 2009-06-01T00:00 | 8688 | 329 | -41.6 | -50.2 | 57 | 18 | |
| 2009-06-01T00:00 | 8720 | 328 | -41.9 | 57 | 18 | ||
| 2009-06-01T00:00 | 8749 | 326 | -42.2 | -50.7 | 57 | 18 | |
| 2009-06-01T00:00 | 8772 | 325 | -42.4 | -50.9 | 58 | 18 | |
| 2009-06-01T00:00 | 8800 | 324 | -42.6 | -51.1 | 60 | 19 | |
| 2009-06-01T00:00 | 8829 | 323 | -42.9 | -51.6 | 62 | 19 | |
| 2009-06-01T00:00 | 8863 | 321 | -43.2 | -52.1 | 63 | 19 | |
| 2009-06-01T00:00 | 8904 | 319 | -43.6 | -52.5 | 64 | 19 | |
| 2009-06-01T00:00 | 8935 | 318 | -43.8 | -52.7 | 65 | 19 | |
| 2009-06-01T00:00 | 8969 | 316 | -44.1 | -51.9 | 65 | 19 | |
| 2009-06-01T00:00 | 8996 | 315 | -44.4 | -51.7 | 65 | 19 | |
| 2009-06-01T00:00 | 9036 | 313 | -44.7 | -51.6 | 64 | 19 | |
| 2009-06-01T00:00 | 9063 | 312 | -45.0 | -51.4 | 64 | 19 | |
| 2009-06-01T00:00 | 9087 | 310 | -45.3 | -51.3 | 63 | 19 | |
| 2009-06-01T00:00 | 9112 | 309 | -45.5 | -51.2 | 62 | 19 | |
| 2009-06-01T00:00 | 9140 | 308 | -45.8 | -51.2 | 62 | 19 | |
| 2009-06-01T00:00 | 9181 | 306 | -46.1 | -51.3 | 61 | 19 | |
| 2009-06-01T00:00 | 9215 | 305 | -46.4 | -51.7 | 61 | 18 | |
| 2009-06-01T00:00 | 9247 | 303 | -46.6 | -51.9 | 61 | 18 | |
| 2009-06-01T00:00 | 9275 | 302 | -46.9 | -52.2 | 61 | 18 | |
| 2009-06-01T00:00 | 9304 | 300 | -47.2 | -52.7 | 61 | 18 | |
| 2009-06-01T00:00 | 9333 | 299 | -47.4 | -52.9 | 61 | 18 | |
| 2009-06-01T00:00 | 9370 | 297 | -47.8 | -53.1 | 61 | 19 | |
| 2009-06-01T00:00 | 9407 | 296 | -48.1 | -53.2 | 62 | 19 | |
| 2009-06-01T00:00 | 9440 | 294 | -48.4 | -53.4 | 62 | 19 | |
| 2009-06-01T00:00 | 9468 | 293 | -48.7 | -53.5 | 63 | 19 | |
| 2009-06-01T00:00 | 9495 | 292 | -49.0 | -53.8 | 63 | 20 | |
| 2009-06-01T00:00 | 9515 | 291 | -49.2 | -53.8 | 63 | 20 | |
| 2009-06-01T00:00 | 9542 | 290 | -49.5 | -54.0 | 62 | 20 | |
| 2009-06-01T00:00 | 9576 | 288 | -49.8 | -54.1 | 61 | 21 | |
| 2009-06-01T00:00 | 9611 | 287 | -50.0 | -54.2 | 61 | 21 | |
| 2009-06-01T00:00 | 9645 | 285 | -50.3 | -54.5 | 61 | 21 | |
| 2009-06-01T00:00 | 9676 | 284 | -50.6 | -54.8 | 62 | 21 | |
| 2009-06-01T00:00 | 9702 | 283 | -50.8 | -55.0 | 63 | 21 | |
| 2009-06-01T00:00 | 9723 | 282 | -51.0 | -55.3 | 64 | 22 | |
| 2009-06-01T00:00 | 9753 | 281 | -51.2 | -55.6 | 65 | 22 | |
| 2009-06-01T00:00 | 9780 | 279 | -51.4 | -56.2 | 66 | 22 | |
| 2009-06-01T00:00 | 9801 | 279 | -51.6 | -56.4 | 67 | 22 | |
| 2009-06-01T00:00 | 9823 | 278 | -51.8 | -56.8 | 67 | 21 | |
| 2009-06-01T00:00 | 9852 | 276 | -52.0 | -57.2 | 67 | 21 | |
| 2009-06-01T00:00 | 9886 | 275 | -52.3 | -57.8 | 67 | 20 | |
| 2009-06-01T00:00 | 9917 | 274 | -52.6 | -58.3 | 66 | 20 | |
| 2009-06-01T00:00 | 9938 | 273 | -52.8 | -58.5 | 66 | 19 | |
| 2009-06-01T00:00 | 9961 | 272 | -53.0 | -58.6 | 65 | 19 | |
| 2009-06-01T00:00 | 9987 | 271 | -53.2 | -59.0 | 65 | 19 | |
| 2009-06-01T00:00 | 10013 | 270 | -53.4 | -59.2 | 65 | 19 | |
| 2009-06-01T00:00 | 10044 | 268 | -53.7 | -59.6 | 65 | 20 | |
| 2009-06-01T00:00 | 10069 | 267 | -53.9 | -59.8 | 66 | 20 | |
| 2009-06-01T00:00 | 10094 | 266 | -54.1 | -60.0 | 66 | 20 | |
| 2009-06-01T00:00 | 10129 | 265 | -54.2 | -60.4 | 67 | 19 | |
| 2009-06-01T00:00 | 10153 | 264 | -54.4 | -60.8 | 66 | 19 | |
| 2009-06-01T00:00 | 10178 | 263 | -54.6 | -61.1 | 66 | 18 | |
| 2009-06-01T00:00 | 10202 | 262 | -54.9 | -61.6 | 65 | 18 | |
| 2009-06-01T00:00 | 10226 | 261 | -55.1 | -61.8 | 65 | 18 | |
| 2009-06-01T00:00 | 10254 | 260 | -55.3 | -62.0 | 65 | 17 | |
| 2009-06-01T00:00 | 10284 | 258 | -55.6 | -62.1 | 66 | 17 | |
| 2009-06-01T00:00 | 10317 | 257 | -55.8 | -62.1 | 67 | 17 | |
| 2009-06-01T00:00 | 10342 | 256 | -56.1 | -62.2 | 68 | 17 | |
| 2009-06-01T00:00 | 10375 | 255 | -56.4 | -62.3 | 69 | 16 | |
| 2009-06-01T00:00 | 10399 | 254 | -56.6 | -62.5 | 68 | 16 | |
| 2009-06-01T00:00 | 10427 | 253 | -56.8 | -62.6 | 67 | 15 | |
| 2009-06-01T00:00 | 10453 | 252 | -57.0 | -62.8 | 66 | 15 | |
| 2009-06-01T00:00 | 10481 | 250 | -57.2 | -62.9 | 65 | 15 | |
| 2009-06-01T00:00 | 10506 | 249 | -57.5 | -63.2 | 64 | 15 | |
| 2009-06-01T00:00 | 10531 | 248 | -57.7 | -63.4 | 64 | 15 | |
| 2009-06-01T00:00 | 10558 | 247 | -57.9 | -63.6 | 63 | 15 | |
| 2009-06-01T00:00 | 10587 | 246 | -58.2 | -63.7 | 63 | 15 | |
| 2009-06-01T00:00 | 10619 | 245 | -58.4 | -63.8 | 62 | 14 | |
| 2009-06-01T00:00 | 10659 | 243 | -58.8 | -64.0 | 62 | 14 | |
| 2009-06-01T00:00 | 10688 | 242 | -59.0 | -64.1 | 61 | 14 | |
| 2009-06-01T00:00 | 10714 | 241 | -59.2 | -64.2 | 60 | 15 | |
| 2009-06-01T00:00 | 10741 | 240 | -59.4 | -64.2 | 59 | 15 | |
| 2009-06-01T00:00 | 10767 | 239 | -59.6 | -64.1 | 58 | 15 | |
| 2009-06-01T00:00 | 10793 | 238 | -59.7 | -64.2 | 58 | 14 | |
| 2009-06-01T00:00 | 10822 | 237 | -59.9 | -64.2 | 57 | 14 | |
| 2009-06-01T00:00 | 10850 | 236 | -60.0 | -64.3 | 58 | 14 | |
| 2009-06-01T00:00 | 10879 | 235 | -60.0 | -64.3 | 59 | 15 | |
| 2009-06-01T00:00 | 10917 | 234 | -60.3 | -64.5 | 61 | 15 | |
| 2009-06-01T00:00 | 10960 | 232 | -60.5 | -64.7 | 63 | 15 | |
| 2009-06-01T00:00 | 10989 | 231 | -60.5 | -64.4 | 65 | 15 | |
| 2009-06-01T00:00 | 11010 | 230 | -60.5 | -64.1 | 65 | 15 | |
| 2009-06-01T00:00 | 11031 | 229 | -60.3 | -63.8 | 65 | 15 | |
| 2009-06-01T00:00 | 11055 | 229 | -60.1 | -63.7 | 65 | 14 | |
| 2009-06-01T00:00 | 11083 | 227 | -59.1 | -63.1 | 63 | 13 | |
| 2009-06-01T00:00 | 11110 | 227 | -57.8 | -62.5 | 60 | 13 | |
| 2009-06-01T00:00 | 11133 | 226 | -57.8 | -63.1 | 58 | 12 | |
| 2009-06-01T00:00 | 11153 | 225 | -57.5 | -63.5 | 56 | 12 | |
| 2009-06-01T00:00 | 11176 | 224 | -57.5 | -64.2 | 56 | 13 | |
| 2009-06-01T00:00 | 11202 | 223 | -57.6 | -64.9 | 57 | 13 | |
| 2009-06-01T00:00 | 11232 | 222 | -57.6 | -65.5 | 60 | 14 | |
| 2009-06-01T00:00 | 11262 | 221 | -57.3 | -65.8 | 62 | 14 | |
| 2009-06-01T00:00 | 11288 | 220 | -56.8 | -66.1 | 65 | 15 | |
| 2009-06-01T00:00 | 11308 | 220 | -56.2 | -66.1 | 67 | 14 | |
| 2009-06-01T00:00 | 11329 | 219 | -55.8 | -66.5 | 68 | 14 | |
| 2009-06-01T00:00 | 11350 | 218 | -55.6 | -67.3 | 68 | 13 | |
| 2009-06-01T00:00 | 11373 | 217 | -54.8 | -67.3 | 67 | 13 | |
| 2009-06-01T00:00 | 11393 | 217 | -54.4 | -67.8 | 67 | 12 | |
| 2009-06-01T00:00 | 11414 | 216 | -54.1 | -68.5 | 66 | 12 | |
| 2009-06-01T00:00 | 11433 | 215 | -53.7 | -69.2 | 65 | 12 | |
| 2009-06-01T00:00 | 11453 | 215 | -53.2 | -70.0 | 64 | 12 | |
| 2009-06-01T00:00 | 11473 | 214 | -52.3 | -69.9 | 64 | 12 | |
| 2009-06-01T00:00 | 11493 | 213 | -52.2 | -70.6 | 64 | 12 | |
| 2009-06-01T00:00 | 11515 | 213 | -52.3 | -71.6 | 64 | 12 | |
| 2009-06-01T00:00 | 11537 | 212 | -52.5 | -72.8 | 66 | 12 | |
| 2009-06-01T00:00 | 11559 | 211 | -52.6 | -72.8 | 68 | 12 | |
| 2009-06-01T00:00 | 11580 | 210 | -52.7 | -74.1 | 70 | 12 | |
| 2009-06-01T00:00 | 11602 | 210 | -52.8 | -74.2 | 72 | 12 | |
| 2009-06-01T00:00 | 11628 | 209 | -52.8 | -74.2 | 74 | 12 | |
| 2009-06-01T00:00 | 11652 | 208 | -52.8 | -74.2 | 75 | 12 | |
| 2009-06-01T00:00 | 11674 | 207 | -52.9 | -74.3 | 75 | 12 | |
| 2009-06-01T00:00 | 11698 | 207 | -53.1 | -74.4 | 76 | 12 | |
| 2009-06-01T00:00 | 11722 | 206 | -53.2 | -74.5 | 76 | 12 | |
| 2009-06-01T00:00 | 11746 | 205 | -53.4 | -74.7 | 76 | 12 | |
| 2009-06-01T00:00 | 11768 | 204 | -53.6 | -74.8 | 75 | 12 | |
| 2009-06-01T00:00 | 11790 | 204 | -53.7 | 75 | 12 | ||
| 2009-06-01T00:00 | 11815 | 203 | -53.6 | -76.3 | 75 | 11 | |
| 2009-06-01T00:00 | 11837 | 202 | -53.6 | -76.3 | 76 | 11 | |
| 2009-06-01T00:00 | 11860 | 201 | -53.7 | -76.3 | 77 | 10 | |
| 2009-06-01T00:00 | 11885 | 201 | -53.6 | -76.3 | 77 | 10 | |
| 2009-06-01T00:00 | 11918 | 200 | -53.7 | -76.3 | 78 | 10 | |
| 2009-06-01T00:00 | 11948 | 199 | -53.6 | -76.3 | 77 | 9 | |
| 2009-06-01T00:00 | 11976 | 198 | -53.7 | -76.3 | 75 | 9 | |
| 2009-06-01T00:00 | 11999 | 197 | -53.9 | -76.5 | 72 | 9 | |
| 2009-06-01T00:00 | 12020 | 196 | -54.0 | -76.6 | 69 | 9 | |
| 2009-06-01T00:00 | 12044 | 196 | -54.0 | -76.6 | 67 | 9 | |
| 2009-06-01T00:00 | 12067 | 195 | -54.0 | -78.4 | 65 | 9 | |
| 2009-06-01T00:00 | 12092 | 194 | -54.0 | -78.4 | 63 | 10 | |
| 2009-06-01T00:00 | 12114 | 194 | -54.1 | -78.5 | 61 | 10 | |
| 2009-06-01T00:00 | 12136 | 193 | -54.1 | -78.5 | 60 | 10 | |
| 2009-06-01T00:00 | 12160 | 192 | -54.2 | -78.5 | 58 | 10 | |
| 2009-06-01T00:00 | 12184 | 192 | -54.0 | -78.4 | 58 | 10 | |
| 2009-06-01T00:00 | 12206 | 191 | -53.8 | -80.7 | 58 | 10 | |
| 2009-06-01T00:00 | 12230 | 190 | -53.8 | -80.7 | 58 | 10 | |
| 2009-06-01T00:00 | 12259 | 189 | -53.5 | -80.5 | 59 | 9 | |
| 2009-06-01T00:00 | 12282 | 189 | -53.4 | -80.4 | 60 | 9 | |
| 2009-06-01T00:00 | 12304 | 188 | -53.2 | -80.2 | 60 | 9 | |
| 2009-06-01T00:00 | 12325 | 187 | -53.1 | -80.2 | 60 | 8 | |
| 2009-06-01T00:00 | 12348 | 187 | -53.0 | -80.1 | 59 | 8 | |
| 2009-06-01T00:00 | 12370 | 186 | -52.8 | -84.1 | 57 | 8 | |
| 2009-06-01T00:00 | 12391 | 185 | -52.6 | -83.9 | 55 | 7 | |
| 2009-06-01T00:00 | 12414 | 185 | -52.4 | -83.8 | 54 | 7 | |
| 2009-06-01T00:00 | 12435 | 184 | -52.3 | -83.7 | 53 | 7 | |
| 2009-06-01T00:00 | 12456 | 184 | -52.4 | -83.8 | 53 | 6 | |
| 2009-06-01T00:00 | 12479 | 183 | -52.5 | -83.8 | 54 | 5 | |
| 2009-06-01T00:00 | 12501 | 182 | -52.4 | -83.8 | 55 | 5 | |
| 2009-06-01T00:00 | 12522 | 182 | -52.1 | -83.5 | 55 | 5 | |
| 2009-06-01T00:00 | 12543 | 181 | -52.0 | -83.5 | 56 | 5 | |
| 2009-06-01T00:00 | 12564 | 181 | -52.2 | -83.6 | 56 | 5 | |
| 2009-06-01T00:00 | 12584 | 180 | -52.3 | -83.7 | 56 | 5 | |
| 2009-06-01T00:00 | 12605 | 179 | -52.4 | -83.8 | 57 | 5 | |
| 2009-06-01T00:00 | 12624 | 179 | -52.5 | -83.8 | 56 | 5 | |
| 2009-06-01T00:00 | 12646 | 178 | -52.6 | -83.9 | 56 | 6 | |
| 2009-06-01T00:00 | 12668 | 178 | -52.7 | -84.0 | 55 | 6 | |
| 2009-06-01T00:00 | 12689 | 177 | -52.7 | -84.0 | 55 | 6 | |
| 2009-06-01T00:00 | 12710 | 177 | -52.8 | -84.1 | 56 | 6 | |
| 2009-06-01T00:00 | 12730 | 176 | -52.9 | -84.1 | 59 | 6 | |
| 2009-06-01T00:00 | 12751 | 175 | -53.0 | -84.2 | 62 | 5 | |
| 2009-06-01T00:00 | 12775 | 175 | -53.1 | -84.3 | 67 | 5 | |
| 2009-06-01T00:00 | 12801 | 174 | -52.9 | -84.1 | 72 | 5 | |
| 2009-06-01T00:00 | 12824 | 173 | -52.7 | -84.0 | 75 | 4 | |
| 2009-06-01T00:00 | 12845 | 173 | -52.7 | -84.0 | 76 | 4 | |
| 2009-06-01T00:00 | 12867 | 172 | -52.7 | -84.0 | 74 | 4 | |
| 2009-06-01T00:00 | 12890 | 172 | -52.7 | -84.0 | 71 | 3 | |
| 2009-06-01T00:00 | 12918 | 171 | -52.2 | -83.6 | 66 | 3 | |
| 2009-06-01T00:00 | 12942 | 170 | -51.8 | -83.3 | 62 | 2 | |
| 2009-06-01T00:00 | 12965 | 170 | -52.0 | -83.5 | 57 | 2 | |
| 2009-06-01T00:00 | 12990 | 169 | -52.1 | -83.5 | 53 | 2 | |
| 2009-06-01T00:00 | 13013 | 168 | -52.0 | -83.5 | 51 | 2 | |
| 2009-06-01T00:00 | 13037 | 168 | -52.1 | -83.5 | 52 | 2 | |
| 2009-06-01T00:00 | 13060 | 167 | -51.9 | -83.4 | 55 | 2 | |
| 2009-06-01T00:00 | 13083 | 167 | -52.0 | -83.5 | 59 | 2 | |
| 2009-06-01T00:00 | 13106 | 166 | -52.2 | -83.6 | 62 | 3 | |
| 2009-06-01T00:00 | 13129 | 165 | -52.3 | -83.7 | 65 | 3 | |
| 2009-06-01T00:00 | 13152 | 165 | -52.2 | -83.6 | 66 | 3 | |
| 2009-06-01T00:00 | 13177 | 164 | -51.9 | -83.4 | 67 | 4 | |
| 2009-06-01T00:00 | 13201 | 164 | -51.7 | -83.2 | 68 | 4 | |
| 2009-06-01T00:00 | 13226 | 163 | -51.6 | -83.2 | 69 | 4 | |
| 2009-06-01T00:00 | 13249 | 162 | -51.7 | -83.2 | 70 | 5 | |
| 2009-06-01T00:00 | 13272 | 162 | -51.7 | -83.2 | 71 | 5 | |
| 2009-06-01T00:00 | 13296 | 161 | -51.8 | -83.3 | 71 | 5 | |
| 2009-06-01T00:00 | 13318 | 161 | -51.8 | -83.3 | 70 | 6 | |
| 2009-06-01T00:00 | 13342 | 160 | -51.9 | -83.4 | 68 | 6 | |
| 2009-06-01T00:00 | 13367 | 159 | -51.9 | -83.4 | 66 | 6 | |
| 2009-06-01T00:00 | 13388 | 159 | -51.8 | -83.3 | 65 | 6 | |
| 2009-06-01T00:00 | 13411 | 158 | -51.8 | -83.3 | 64 | 6 | |
| 2009-06-01T00:00 | 13433 | 158 | -51.8 | -83.3 | 64 | 6 | |
| 2009-06-01T00:00 | 13456 | 157 | -51.8 | -83.3 | 65 | 6 | |
| 2009-06-01T00:00 | 13479 | 157 | -51.8 | -83.3 | 67 | 6 | |
| 2009-06-01T00:00 | 13502 | 156 | -51.9 | -83.4 | 70 | 6 | |
| 2009-06-01T00:00 | 13525 | 156 | -52.0 | -83.5 | 73 | 6 | |
| 2009-06-01T00:00 | 13547 | 155 | -52.0 | -83.5 | 78 | 5 | |
| 2009-06-01T00:00 | 13569 | 155 | -52.1 | -83.5 | 83 | 5 | |
| 2009-06-01T00:00 | 13592 | 154 | -52.2 | -83.6 | 89 | 5 | |
| 2009-06-01T00:00 | 13614 | 154 | -52.2 | -83.6 | 96 | 5 | |
| 2009-06-01T00:00 | 13637 | 153 | -52.2 | -83.6 | 103 | 4 | |
| 2009-06-01T00:00 | 13660 | 152 | -52.1 | -83.5 | 109 | 4 | |
| 2009-06-01T00:00 | 13682 | 152 | -51.8 | -83.3 | 112 | 4 | |
| 2009-06-01T00:00 | 13702 | 151 | -51.7 | -83.2 | 111 | 4 | |
| 2009-06-01T00:00 | 13724 | 151 | -51.8 | -83.3 | 106 | 4 | |
| 2009-06-01T00:00 | 13746 | 150 | -51.8 | -83.3 | 99 | 3 | |
| 2009-06-01T00:00 | 13768 | 150 | -51.9 | -83.4 | 90 | 3 | |
| 2009-06-01T00:00 | 13790 | 149 | -51.9 | -83.4 | 80 | 3 | |
| 2009-06-01T00:00 | 13812 | 149 | -52.0 | -83.5 | 68 | 2 | |
| 2009-06-01T00:00 | 13835 | 148 | -52.1 | -83.5 | 56 | 2 | |
| 2009-06-01T00:00 | 13857 | 148 | -52.1 | -83.5 | 46 | 2 | |
| 2009-06-01T00:00 | 13881 | 147 | -52.3 | -83.7 | 38 | 2 | |
| 2009-06-01T00:00 | 13905 | 147 | -52.5 | -83.8 | 33 | 3 | |
| 2009-06-01T00:00 | 13927 | 146 | -52.6 | -83.9 | 30 | 3 | |
| 2009-06-01T00:00 | 13949 | 146 | -52.7 | -84.0 | 28 | 3 | |
| 2009-06-01T00:00 | 13971 | 145 | -52.7 | -84.0 | 26 | 3 | |
| 2009-06-01T00:00 | 13993 | 145 | -52.7 | -84.0 | 24 | 4 | |
| 2009-06-01T00:00 | 14016 | 144 | -52.8 | -84.1 | 21 | 4 | |
| 2009-06-01T00:00 | 14038 | 144 | -52.8 | -84.1 | 18 | 4 | |
| 2009-06-01T00:00 | 14061 | 143 | -52.8 | -84.1 | 14 | 4 | |
| 2009-06-01T00:00 | 14083 | 143 | -52.8 | -84.1 | 11 | 4 | |
| 2009-06-01T00:00 | 14106 | 142 | -52.8 | -84.1 | 9 | 4 | |
| 2009-06-01T00:00 | 14127 | 142 | -52.8 | -84.1 | 10 | 4 | |
| 2009-06-01T00:00 | 14149 | 141 | -52.7 | -84.0 | 13 | 4 | |
| 2009-06-01T00:00 | 14172 | 141 | -52.8 | -84.1 | 19 | 4 | |
| 2009-06-01T00:00 | 14195 | 140 | -52.9 | -84.1 | 26 | 5 | |
| 2009-06-01T00:00 | 14218 | 140 | -53.0 | -84.2 | 34 | 5 | |
| 2009-06-01T00:00 | 14243 | 139 | -53.0 | -84.2 | 40 | 5 | |
| 2009-06-01T00:00 | 14265 | 139 | -52.9 | -84.1 | 44 | 6 | |
| 2009-06-01T00:00 | 14288 | 138 | -53.1 | -84.3 | 47 | 6 | |
| 2009-06-01T00:00 | 14310 | 138 | -53.2 | -84.4 | 49 | 7 | |
| 2009-06-01T00:00 | 14332 | 137 | -53.2 | -84.4 | 51 | 7 | |
| 2009-06-01T00:00 | 14354 | 137 | -53.2 | -84.4 | 52 | 8 | |
| 2009-06-01T00:00 | 14375 | 136 | -53.0 | -84.2 | 54 | 8 | |
| 2009-06-01T00:00 | 14397 | 136 | -52.9 | -84.1 | 55 | 8 | |
| 2009-06-01T00:00 | 14420 | 136 | -52.7 | -84.0 | 56 | 7 | |
| 2009-06-01T00:00 | 14442 | 135 | -52.7 | -84.0 | 56 | 7 | |
| 2009-06-01T00:00 | 14465 | 135 | -52.6 | -83.9 | 56 | 6 | |
| 2009-06-01T00:00 | 14487 | 134 | -52.4 | -83.8 | 56 | 5 | |
| 2009-06-01T00:00 | 14506 | 134 | -52.3 | -83.7 | 56 | 5 | |
| 2009-06-01T00:00 | 14527 | 133 | -52.3 | -83.7 | 58 | 4 | |
| 2009-06-01T00:00 | 14549 | 133 | -52.4 | -83.8 | 60 | 4 | |
| 2009-06-01T00:00 | 14570 | 132 | -52.4 | -83.8 | 62 | 3 | |
| 2009-06-01T00:00 | 14591 | 132 | -52.5 | -83.8 | 60 | 3 | |
| 2009-06-01T00:00 | 14613 | 132 | -52.1 | -83.5 | 55 | 3 | |
| 2009-06-01T00:00 | 14635 | 131 | -51.9 | -83.4 | 45 | 3 | |
| 2009-06-01T00:00 | 14657 | 131 | -51.6 | -83.2 | 34 | 3 | |
| 2009-06-01T00:00 | 14681 | 130 | -51.7 | -83.2 | 27 | 3 | |
| 2009-06-01T00:00 | 14704 | 130 | -51.7 | -83.2 | 23 | 3 | |
| 2009-06-01T00:00 | 14725 | 129 | -51.6 | -83.2 | 22 | 4 | |
| 2009-06-01T00:00 | 14746 | 129 | -51.6 | -83.2 | 22 | 3 | |
| 2009-06-01T00:00 | 14768 | 128 | -51.6 | -83.2 | 24 | 3 | |
| 2009-06-01T00:00 | 14790 | 128 | -51.4 | -83.0 | 26 | 3 | |
| 2009-06-01T00:00 | 14813 | 128 | -51.3 | -82.9 | 30 | 3 | |
| 2009-06-01T00:00 | 14835 | 127 | -51.1 | -82.8 | 34 | 3 | |
| 2009-06-01T00:00 | 14858 | 127 | -51.2 | -82.9 | 38 | 2 | |
| 2009-06-01T00:00 | 14880 | 126 | -51.3 | -82.9 | 40 | 2 | |
| 2009-06-01T00:00 | 14903 | 126 | -51.4 | -83.0 | 39 | 2 | |
| 2009-06-01T00:00 | 14925 | 125 | -51.5 | -83.1 | 34 | 2 | |
| 2009-06-01T00:00 | 14948 | 125 | -51.6 | -83.2 | 27 | 2 | |
| 2009-06-01T00:00 | 14969 | 124 | -51.7 | -83.2 | 19 | 2 | |
| 2009-06-01T00:00 | 14992 | 124 | -51.8 | -83.3 | 15 | 2 | |
| 2009-06-01T00:00 | 15014 | 124 | -51.8 | -83.3 | 16 | 2 | |
| 2009-06-01T00:00 | 15035 | 123 | -51.7 | -83.2 | 21 | 2 | |
| 2009-06-01T00:00 | 15058 | 123 | -51.6 | -83.2 | 30 | 2 | |
| 2009-06-01T00:00 | 15081 | 122 | -51.6 | -83.2 | 36 | 2 | |
| 2009-06-01T00:00 | 15104 | 122 | -51.6 | -83.2 | 39 | 3 | |
| 2009-06-01T00:00 | 15127 | 121 | -51.7 | -83.2 | 36 | 3 | |
| 2009-06-01T00:00 | 15152 | 121 | -51.7 | -83.2 | 27 | 3 | |
| 2009-06-01T00:00 | 15177 | 121 | -51.7 | -83.2 | 17 | 3 | |
| 2009-06-01T00:00 | 15202 | 120 | -51.7 | -83.2 | 6 | 3 | |
| 2009-06-01T00:00 | 15225 | 120 | -51.8 | -83.3 | 358 | 4 | |
| 2009-06-01T00:00 | 15249 | 119 | -51.9 | -83.4 | 352 | 4 | |
| 2009-06-01T00:00 | 15273 | 119 | -52.0 | -83.5 | 349 | 4 | |
| 2009-06-01T00:00 | 15298 | 118 | -52.0 | -83.5 | 348 | 4 | |
| 2009-06-01T00:00 | 15320 | 118 | -52.1 | -83.5 | 349 | 3 | |
| 2009-06-01T00:00 | 15344 | 118 | -52.2 | -83.6 | 352 | 3 | |
| 2009-06-01T00:00 | 15367 | 117 | -52.3 | -83.7 | 355 | 3 | |
| 2009-06-01T00:00 | 15389 | 117 | -52.4 | -83.8 | 356 | 3 | |
| 2009-06-01T00:00 | 15411 | 116 | -52.6 | -83.9 | 357 | 3 | |
| 2009-06-01T00:00 | 15436 | 116 | -52.7 | -84.0 | 358 | 3 | |
| 2009-06-01T00:00 | 15460 | 115 | -52.8 | -84.1 | 360 | 3 | |
| 2009-06-01T00:00 | 15484 | 115 | -53.0 | -84.2 | 2 | 3 | |
| 2009-06-01T00:00 | 15509 | 115 | -53.2 | -84.4 | 4 | 3 | |
| 2009-06-01T00:00 | 15533 | 114 | -53.4 | -84.5 | 4 | 3 | |
| 2009-06-01T00:00 | 15559 | 114 | -53.5 | -84.6 | 360 | 3 | |
| 2009-06-01T00:00 | 15584 | 113 | -53.6 | -84.6 | 351 | 2 | |
| 2009-06-01T00:00 | 15609 | 113 | -53.6 | -84.6 | 340 | 2 | |
| 2009-06-01T00:00 | 15633 | 112 | -53.6 | -84.6 | 330 | 3 | |
| 2009-06-01T00:00 | 15657 | 112 | -53.7 | -84.7 | 326 | 3 | |
| 2009-06-01T00:00 | 15681 | 112 | -53.6 | -84.6 | 326 | 3 | |
| 2009-06-01T00:00 | 15706 | 111 | -53.7 | -84.7 | 330 | 4 | |
| 2009-06-01T00:00 | 15730 | 111 | -53.7 | -84.7 | 336 | 4 | |
| 2009-06-01T00:00 | 15755 | 110 | -53.7 | -84.7 | 342 | 4 | |
| 2009-06-01T00:00 | 15780 | 110 | -53.7 | -84.7 | 346 | 4 | |
| 2009-06-01T00:00 | 15803 | 109 | -53.8 | -84.8 | 349 | 5 | |
| 2009-06-01T00:00 | 15826 | 109 | -53.7 | -84.7 | 350 | 5 | |
| 2009-06-01T00:00 | 15850 | 109 | -53.7 | -84.7 | 350 | 5 | |
| 2009-06-01T00:00 | 15875 | 108 | -53.8 | -84.8 | 351 | 5 | |
| 2009-06-01T00:00 | 15898 | 108 | -54.0 | -84.9 | 352 | 6 | |
| 2009-06-01T00:00 | 15921 | 107 | -53.9 | -84.9 | 354 | 6 | |
| 2009-06-01T00:00 | 15945 | 107 | -53.9 | -84.9 | 357 | 6 | |
| 2009-06-01T00:00 | 15969 | 107 | -53.9 | -84.9 | 360 | 6 | |
| 2009-06-01T00:00 | 15996 | 106 | -53.9 | -84.9 | 5 | 6 | |
| 2009-06-01T00:00 | 16017 | 106 | -53.8 | -84.8 | 9 | 6 | |
| 2009-06-01T00:00 | 16042 | 105 | -53.8 | -84.8 | 13 | 6 | |
| 2009-06-01T00:00 | 16067 | 105 | -54.0 | -84.9 | 16 | 7 | |
| 2009-06-01T00:00 | 16093 | 105 | -54.2 | -85.1 | 19 | 7 | |
| 2009-06-01T00:00 | 16118 | 104 | -54.4 | -85.2 | 21 | 8 | |
| 2009-06-01T00:00 | 16141 | 104 | -54.5 | -85.3 | 23 | 8 | |
| 2009-06-01T00:00 | 16164 | 103 | -54.6 | -85.4 | 25 | 8 | |
| 2009-06-01T00:00 | 16188 | 103 | -54.6 | -85.4 | 28 | 8 | |
| 2009-06-01T00:00 | 16210 | 103 | -54.4 | -85.2 | 31 | 8 | |
| 2009-06-01T00:00 | 16234 | 102 | -54.4 | -85.2 | 34 | 8 | |
| 2009-06-01T00:00 | 16258 | 102 | -54.6 | -85.4 | 36 | 8 | |
| 2009-06-01T00:00 | 16282 | 102 | -54.6 | -85.4 | 37 | 8 | |
| 2009-06-01T00:00 | 16304 | 101 | -54.5 | -85.3 | 39 | 8 | |
| 2009-06-01T00:00 | 16327 | 101 | -54.4 | -85.2 | 40 | 8 | |
| 2009-06-01T00:00 | 16349 | 100 | -54.0 | -84.9 | 40 | 8 | |
| 2009-06-01T00:00 | 16372 | 100 | -54.0 | -84.9 | 41 | 8 | |
| 2009-06-01T00:00 | 16394 | 100 | -54.0 | -84.9 | 42 | 7 | |
| 2009-06-01T00:00 | 16415 | 99 | -54.0 | -84.9 | 42 | 7 | |
| 2009-06-01T00:00 | 16436 | 99 | -53.9 | -84.9 | 42 | 6 | |
| 2009-06-01T00:00 | 16458 | 99 | -53.5 | -84.6 | 42 | 5 | |
| 2009-06-01T00:00 | 16480 | 98 | -53.4 | -84.5 | 42 | 5 | |
| 2009-06-01T00:00 | 16503 | 98 | -53.4 | -84.5 | 40 | 5 | |
| 2009-06-01T00:00 | 16525 | 98 | -53.1 | -84.3 | 38 | 5 | |
| 2009-06-01T00:00 | 16549 | 97 | -53.1 | -84.3 | 36 | 5 | |
| 2009-06-01T00:00 | 16571 | 97 | -52.9 | -84.1 | 34 | 5 | |
| 2009-06-01T00:00 | 16594 | 97 | -52.5 | -83.8 | 33 | 5 | |
| 2009-06-01T00:00 | 16617 | 96 | -52.2 | -83.6 | 31 | 4 | |
| 2009-06-01T00:00 | 16640 | 96 | -52.2 | -83.6 | 28 | 4 | |
| 2009-06-01T00:00 | 16663 | 96 | -52.0 | -83.5 | 23 | 4 | |
| 2009-06-01T00:00 | 16686 | 95 | -51.9 | -83.4 | 17 | 3 | |
| 2009-06-01T00:00 | 16708 | 95 | -51.9 | -83.4 | 11 | 3 | |
| 2009-06-01T00:00 | 16732 | 95 | -51.9 | -83.4 | 9 | 3 | |
| 2009-06-01T00:00 | 16754 | 94 | -51.9 | -83.4 | 13 | 3 | |
| 2009-06-01T00:00 | 16778 | 94 | -52.1 | -83.5 | 21 | 2 | |
| 2009-06-01T00:00 | 16799 | 94 | -52.1 | -83.5 | 32 | 2 | |
| 2009-06-01T00:00 | 16823 | 93 | -52.1 | -83.5 | 42 | 2 | |
| 2009-06-01T00:00 | 16846 | 93 | -52.2 | -83.6 | 48 | 2 | |
| 2009-06-01T00:00 | 16871 | 93 | -52.2 | -83.6 | 49 | 2 | |
| 2009-06-01T00:00 | 16896 | 92 | -52.1 | -83.5 | 44 | 2 | |
| 2009-06-01T00:00 | 16919 | 92 | -52.2 | -83.6 | 34 | 2 | |
| 2009-06-01T00:00 | 16944 | 92 | -52.3 | -83.7 | 20 | 2 | |
| 2009-06-01T00:00 | 16968 | 91 | -52.5 | -83.8 | 9 | 2 | |
| 2009-06-01T00:00 | 16994 | 91 | -52.7 | -84.0 | 1 | 2 | |
| 2009-06-01T00:00 | 17019 | 91 | -53.0 | -84.2 | 356 | 3 | |
| 2009-06-01T00:00 | 17043 | 90 | -53.2 | -84.4 | 353 | 3 | |
| 2009-06-01T00:00 | 17068 | 90 | -53.4 | -84.5 | 350 | 4 | |
| 2009-06-01T00:00 | 17093 | 90 | -53.6 | -84.6 | 347 | 4 | |
| 2009-06-01T00:00 | 17118 | 89 | -53.8 | -84.8 | 344 | 4 | |
| 2009-06-01T00:00 | 17144 | 89 | -53.8 | -84.8 | 343 | 5 | |
| 2009-06-01T00:00 | 17169 | 88 | -54.0 | -84.9 | 342 | 5 | |
| 2009-06-01T00:00 | 17192 | 88 | -54.1 | -85.0 | 342 | 5 | |
| 2009-06-01T00:00 | 17215 | 88 | -54.0 | -84.9 | 344 | 5 | |
| 2009-06-01T00:00 | 17239 | 88 | -53.9 | -84.9 | 346 | 5 | |
| 2009-06-01T00:00 | 17263 | 87 | -53.8 | -84.8 | 349 | 4 | |
| 2009-06-01T00:00 | 17287 | 87 | -53.9 | -84.9 | 352 | 4 | |
| 2009-06-01T00:00 | 17313 | 87 | -54.0 | -84.9 | 357 | 3 | |
| 2009-06-01T00:00 | 17338 | 86 | -54.1 | -85.0 | 2 | 3 | |
| 2009-06-01T00:00 | 17363 | 86 | -54.2 | -85.1 | 7 | 3 | |
| 2009-06-01T00:00 | 17388 | 86 | -54.4 | -85.2 | 12 | 2 | |
| 2009-06-01T00:00 | 17413 | 85 | -54.4 | -85.2 | 15 | 2 | |
| 2009-06-01T00:00 | 17437 | 85 | -54.5 | -85.3 | 15 | 2 | |
| 2009-06-01T00:00 | 17461 | 85 | -54.6 | -85.4 | 13 | 2 | |
| 2009-06-01T00:00 | 17486 | 84 | -54.5 | -85.3 | 13 | 2 | |
| 2009-06-01T00:00 | 17510 | 84 | -54.6 | -85.4 | 15 | 2 | |
| 2009-06-01T00:00 | 17534 | 84 | -54.6 | -85.4 | 19 | 3 | |
| 2009-06-01T00:00 | 17557 | 83 | -54.5 | -85.3 | 25 | 3 | |
| 2009-06-01T00:00 | 17580 | 83 | -54.6 | -85.4 | 29 | 3 | |
| 2009-06-01T00:00 | 17605 | 83 | -54.8 | -85.5 | 30 | 3 | |
| 2009-06-01T00:00 | 17628 | 82 | -54.8 | -85.5 | 30 | 4 | |
| 2009-06-01T00:00 | 17653 | 82 | -54.6 | -85.4 | 27 | 4 | |
| 2009-06-01T00:00 | 17677 | 82 | -54.7 | -85.5 | 25 | 4 | |
| 2009-06-01T00:00 | 17700 | 81 | -54.6 | -85.4 | 23 | 5 | |
| 2009-06-01T00:00 | 17724 | 81 | -54.1 | -85.0 | 22 | 5 | |
| 2009-06-01T00:00 | 17747 | 81 | -53.7 | -84.7 | 23 | 5 | |
| 2009-06-01T00:00 | 17770 | 81 | -53.8 | -84.8 | 26 | 5 | |
| 2009-06-01T00:00 | 17794 | 80 | -53.9 | -84.9 | 29 | 5 | |
| 2009-06-01T00:00 | 17818 | 80 | -53.9 | -84.9 | 33 | 4 | |
| 2009-06-01T00:00 | 17842 | 80 | -53.8 | -84.8 | 38 | 4 | |
| 2009-06-01T00:00 | 17865 | 79 | -53.9 | -84.9 | 43 | 4 | |
| 2009-06-01T00:00 | 17889 | 79 | -53.9 | -84.9 | 48 | 4 | |
| 2009-06-01T00:00 | 17912 | 79 | -53.9 | -84.9 | 53 | 3 | |
| 2009-06-01T00:00 | 17935 | 79 | -53.8 | -84.8 | 56 | 3 | |
| 2009-06-01T00:00 | 17961 | 78 | -53.9 | -84.9 | 59 | 3 | |
| 2009-06-01T00:00 | 17985 | 78 | -53.8 | -84.8 | 60 | 3 | |
| 2009-06-01T00:00 | 18008 | 78 | -53.9 | -84.9 | 61 | 2 | |
| 2009-06-01T00:00 | 18033 | 77 | -54.0 | -84.9 | 60 | 2 | |
| 2009-06-01T00:00 | 18056 | 77 | -54.1 | -85.0 | 57 | 2 | |
| 2009-06-01T00:00 | 18080 | 77 | -54.3 | -85.2 | 54 | 2 | |
| 2009-06-01T00:00 | 18103 | 76 | -54.4 | -85.2 | 51 | 2 | |
| 2009-06-01T00:00 | 18127 | 76 | -54.5 | -85.3 | 50 | 2 | |
| 2009-06-01T00:00 | 18151 | 76 | -54.5 | -85.3 | 51 | 2 | |
| 2009-06-01T00:00 | 18175 | 76 | -54.5 | -85.3 | 53 | 2 | |
| 2009-06-01T00:00 | 18199 | 75 | -54.5 | -85.3 | 58 | 2 | |
| 2009-06-01T00:00 | 18223 | 75 | -54.6 | -85.4 | 65 | 2 | |
| 2009-06-01T00:00 | 18247 | 75 | -54.8 | -85.5 | 76 | 2 | |
| 2009-06-01T00:00 | 18272 | 74 | -54.9 | -85.6 | 91 | 1 | |
| 2009-06-01T00:00 | 18296 | 74 | -55.0 | -85.7 | 109 | 1 | |
| 2009-06-01T00:00 | 18321 | 74 | -55.1 | -85.8 | 125 | 1 | |
| 2009-06-01T00:00 | 18346 | 74 | -55.2 | -85.8 | 133 | 1 | |
| 2009-06-01T00:00 | 18372 | 73 | -55.4 | -86.0 | 130 | 1 | |
| 2009-06-01T00:00 | 18396 | 73 | -55.4 | -86.0 | 119 | 1 | |
| 2009-06-01T00:00 | 18421 | 73 | -55.5 | -86.1 | 109 | 2 | |
| 2009-06-01T00:00 | 18446 | 72 | -55.5 | -86.1 | 101 | 2 | |
| 2009-06-01T00:00 | 18471 | 72 | -55.4 | -86.0 | 97 | 2 | |
| 2009-06-01T00:00 | 18497 | 72 | -55.3 | -85.9 | 97 | 2 | |
| 2009-06-01T00:00 | 18520 | 72 | -55.2 | -85.8 | 101 | 2 | |
| 2009-06-01T00:00 | 18544 | 71 | -55.3 | -85.9 | 109 | 2 | |
| 2009-06-01T00:00 | 18570 | 71 | -55.5 | -86.1 | 118 | 2 | |
| 2009-06-01T00:00 | 18596 | 71 | -55.5 | -86.1 | 124 | 2 | |
| 2009-06-01T00:00 | 18621 | 71 | -55.4 | -86.0 | 126 | 2 | |
| 2009-06-01T00:00 | 18646 | 70 | -55.3 | -85.9 | 125 | 2 | |
| 2009-06-01T00:00 | 18671 | 70 | -55.3 | -85.9 | 121 | 2 | |
| 2009-06-01T00:00 | 18697 | 70 | -55.2 | -85.8 | 117 | 1 | |
| 2009-06-01T00:00 | 18722 | 69 | -55.3 | -85.9 | 113 | 1 | |
| 2009-06-01T00:00 | 18748 | 69 | -55.4 | -86.0 | 0 | 0 | |
| 2009-06-01T00:00 | 18773 | 69 | -55.4 | -86.0 | 0 | 0 | |
| 2009-06-01T00:00 | 18798 | 69 | -55.6 | -86.1 | 0 | 0 | |
| 2009-06-01T00:00 | 18823 | 68 | -55.7 | -86.2 | 0 | 0 | |
| 2009-06-01T00:00 | 18848 | 68 | -55.8 | -86.3 | 0 | 0 | |
| 2009-06-01T00:00 | 18874 | 68 | -55.9 | -86.3 | 99 | 1 | |
| 2009-06-01T00:00 | 18900 | 68 | -56.0 | -86.4 | 95 | 1 | |
| 2009-06-01T00:00 | 18926 | 67 | -56.1 | -86.5 | 92 | 1 | |
| 2009-06-01T00:00 | 18952 | 67 | -56.1 | -86.5 | 87 | 2 | |
| 2009-06-01T00:00 | 18980 | 67 | -56.1 | -86.5 | 83 | 2 | |
| 2009-06-01T00:00 | 19004 | 66 | -55.9 | -86.3 | 78 | 3 | |
| 2009-06-01T00:00 | 19030 | 66 | -55.8 | -86.3 | 73 | 3 | |
| 2009-06-01T00:00 | 19055 | 66 | -55.5 | -86.1 | 69 | 4 | |
| 2009-06-01T00:00 | 19082 | 66 | -55.6 | -86.1 | 66 | 5 | |
| 2009-06-01T00:00 | 19108 | 65 | -55.6 | -86.1 | 65 | 5 | |
| 2009-06-01T00:00 | 19134 | 65 | -55.7 | -86.2 | 66 | 6 | |
| 2009-06-01T00:00 | 19159 | 65 | -55.5 | -86.1 | 67 | 6 | |
| 2009-06-01T00:00 | 19186 | 65 | -55.4 | -86.0 | 69 | 6 | |
| 2009-06-01T00:00 | 19212 | 64 | -55.5 | -86.1 | 71 | 7 | |
| 2009-06-01T00:00 | 19237 | 64 | -55.4 | -86.0 | 72 | 6 | |
| 2009-06-01T00:00 | 19263 | 64 | -55.5 | -86.1 | 73 | 6 | |
| 2009-06-01T00:00 | 19289 | 64 | -55.6 | -86.1 | 73 | 6 | |
| 2009-06-01T00:00 | 19314 | 63 | -55.5 | -86.1 | 73 | 6 | |
| 2009-06-01T00:00 | 19338 | 63 | -55.6 | -86.1 | 73 | 6 | |
| 2009-06-01T00:00 | 19364 | 63 | -55.8 | -86.3 | 73 | 6 | |
| 2009-06-01T00:00 | 19389 | 63 | -55.6 | -86.1 | 73 | 6 | |
| 2009-06-01T00:00 | 19413 | 62 | -55.6 | -86.1 | 74 | 6 | |
| 2009-06-01T00:00 | 19439 | 62 | -55.6 | -86.1 | 75 | 6 | |
| 2009-06-01T00:00 | 19464 | 62 | -55.8 | -86.3 | 77 | 5 | |
| 2009-06-01T00:00 | 19488 | 62 | -55.8 | -86.3 | 79 | 5 | |
| 2009-06-01T00:00 | 19513 | 61 | -55.7 | -86.2 | 81 | 5 | |
| 2009-06-01T00:00 | 19537 | 61 | -55.6 | -86.1 | 84 | 5 | |
| 2009-06-01T00:00 | 19562 | 61 | -55.5 | -86.1 | 88 | 5 | |
| 2009-06-01T00:00 | 19588 | 61 | -55.5 | -86.1 | 91 | 4 | |
| 2009-06-01T00:00 | 19612 | 60 | -55.5 | -86.1 | 95 | 4 | |
| 2009-06-01T00:00 | 19638 | 60 | -55.6 | -86.1 | 99 | 4 | |
| 2009-06-01T00:00 | 19663 | 60 | -55.6 | -86.1 | 103 | 4 | |
| 2009-06-01T00:00 | 19690 | 60 | -55.4 | -86.0 | 107 | 4 | |
| 2009-06-01T00:00 | 19715 | 59 | -55.5 | -86.1 | 111 | 3 | |
| 2009-06-01T00:00 | 19741 | 59 | -55.6 | -86.1 | 113 | 3 | |
| 2009-06-01T00:00 | 19766 | 59 | -55.8 | -86.3 | 111 | 2 | |
| 2009-06-01T00:00 | 19793 | 59 | -55.7 | -86.2 | 103 | 2 | |
| 2009-06-01T00:00 | 19819 | 58 | -55.7 | -86.2 | 87 | 2 | |
| 2009-06-01T00:00 | 19846 | 58 | -55.5 | -86.1 | 69 | 2 | |
| 2009-06-01T00:00 | 19873 | 58 | -55.3 | -85.9 | 59 | 2 | |
| 2009-06-01T00:00 | 19900 | 58 | -55.4 | -86.0 | 55 | 2 | |
| 2009-06-01T00:00 | 19928 | 57 | -55.5 | -86.1 | 55 | 3 | |
| 2009-06-01T00:00 | 19955 | 57 | -55.4 | -86.0 | 59 | 2 | |
| 2009-06-01T00:00 | 19981 | 57 | -55.4 | -86.0 | 64 | 2 | |
| 2009-06-01T00:00 | 20008 | 57 | -55.4 | -86.0 | 69 | 2 | |
| 2009-06-01T00:00 | 20033 | 57 | -55.2 | -85.8 | 70 | 2 | |
| 2009-06-01T00:00 | 20059 | 56 | -55.1 | -85.8 | 65 | 2 | |
| 2009-06-01T00:00 | 20084 | 56 | -55.0 | -85.7 | 54 | 2 | |
| 2009-06-01T00:00 | 20111 | 56 | -54.9 | -85.6 | 39 | 2 | |
| 2009-06-01T00:00 | 20138 | 56 | -54.7 | -85.5 | 28 | 3 | |
| 2009-06-01T00:00 | 20165 | 55 | -54.9 | -85.6 | 20 | 3 | |
| 2009-06-01T00:00 | 20192 | 55 | -54.9 | -85.6 | 14 | 3 | |
| 2009-06-01T00:00 | 20218 | 55 | -55.0 | -85.7 | 9 | 4 | |
| 2009-06-01T00:00 | 20244 | 55 | -54.9 | -85.6 | 5 | 4 | |
| 2009-06-01T00:00 | 20271 | 54 | -54.9 | -85.6 | 1 | 4 | |
| 2009-06-01T00:00 | 20297 | 54 | -54.7 | -85.5 | 359 | 4 | |
| 2009-06-01T00:00 | 20325 | 54 | -54.5 | -85.3 | 357 | 4 | |
| 2009-06-01T00:00 | 20350 | 54 | -54.3 | -85.2 | 355 | 3 | |
| 2009-06-01T00:00 | 20376 | 54 | -54.2 | -85.1 | 352 | 3 | |
| 2009-06-01T00:00 | 20402 | 53 | -54.3 | -85.2 | 349 | 2 | |
| 2009-06-01T00:00 | 20428 | 53 | -54.5 | -85.3 | 345 | 2 | |
| 2009-06-01T00:00 | 20452 | 53 | -54.7 | -85.5 | 341 | 2 | |
| 2009-06-01T00:00 | 20477 | 53 | -54.9 | -85.6 | 341 | 2 | |
| 2009-06-01T00:00 | 20503 | 53 | -55.0 | -85.7 | 342 | 3 | |
| 2009-06-01T00:00 | 20528 | 52 | -55.0 | -85.7 | 343 | 3 | |
| 2009-06-01T00:00 | 20554 | 52 | -55.0 | -85.7 | 345 | 4 | |
| 2009-06-01T00:00 | 20576 | 52 | -54.9 | -85.6 | 347 | 5 | |
| 2009-06-01T00:00 | 20600 | 52 | -54.8 | -85.5 | 348 | 6 | |
| 2009-06-01T00:00 | 20625 | 52 | -54.9 | -85.6 | 350 | 6 | |
| 2009-06-01T00:00 | 20648 | 51 | -55.0 | -85.7 | 353 | 6 | |
| 2009-06-01T00:00 | 20671 | 51 | -54.9 | -85.6 | 355 | 6 | |
| 2009-06-01T00:00 | 20695 | 51 | -54.6 | -85.4 | 357 | 6 | |
| 2009-06-01T00:00 | 20717 | 51 | -54.4 | -85.2 | 359 | 6 | |
| 2009-06-01T00:00 | 20740 | 51 | -54.3 | -85.2 | 1 | 5 | |
| 2009-06-01T00:00 | 20761 | 50 | -54.3 | -85.2 | 1 | 5 | |
| 2009-06-01T00:00 | 20784 | 50 | -54.0 | -84.9 | 1 | 5 | |
| 2009-06-01T00:00 | 20807 | 50 | -53.9 | -84.9 | 360 | 5 | |
| 2009-06-01T00:00 | 20829 | 50 | -53.9 | -84.9 | 360 | 4 | |
| 2009-06-01T00:00 | 20851 | 50 | -53.7 | -84.7 | 2 | 4 | |
| 2009-06-01T00:00 | 20875 | 50 | -53.5 | -84.6 | 5 | 4 | |
| 2009-06-01T00:00 | 20899 | 49 | -53.6 | -84.6 | 9 | 4 | |
| 2009-06-01T00:00 | 20922 | 49 | -53.7 | -84.7 | 14 | 4 | |
| 2009-06-01T00:00 | 20947 | 49 | -53.7 | -84.7 | 18 | 3 | |
| 2009-06-01T00:00 | 20970 | 49 | -53.5 | -84.6 | 23 | 3 | |
| 2009-06-01T00:00 | 20994 | 49 | -53.3 | -84.4 | 29 | 3 | |
| 2009-06-01T00:00 | 21017 | 48 | -53.2 | -84.4 | 35 | 4 | |
| 2009-06-01T00:00 | 21042 | 48 | -53.2 | -84.4 | 41 | 4 | |
| 2009-06-01T00:00 | 21066 | 48 | -53.3 | -84.4 | 45 | 5 | |
| 2009-06-01T00:00 | 21090 | 48 | -53.4 | -84.5 | 48 | 6 | |
| 2009-06-01T00:00 | 21114 | 48 | -53.5 | -84.6 | 50 | 6 | |
| 2009-06-01T00:00 | 21139 | 48 | -53.7 | -84.7 | 50 | 7 | |
| 2009-06-01T00:00 | 21165 | 47 | -53.8 | -84.8 | 51 | 8 | |
| 2009-06-01T00:00 | 21188 | 47 | -53.8 | -84.8 | 51 | 8 | |
| 2009-06-01T00:00 | 21213 | 47 | -53.8 | -84.8 | 52 | 9 | |
| 2009-06-01T00:00 | 21241 | 47 | -53.7 | -84.7 | 53 | 9 | |
| 2009-06-01T00:00 | 21265 | 47 | -53.7 | -84.7 | 54 | 9 | |
| 2009-06-01T00:00 | 21292 | 46 | -53.6 | -84.6 | 56 | 10 | |
| 2009-06-01T00:00 | 21319 | 46 | -53.5 | -84.6 | 59 | 10 | |
| 2009-06-01T00:00 | 21347 | 46 | -53.5 | -84.6 | 61 | 11 | |
| 2009-06-01T00:00 | 21374 | 46 | -53.6 | -84.6 | 64 | 11 | |
| 2009-06-01T00:00 | 21400 | 46 | -53.6 | -84.6 | 66 | 11 | |
| 2009-06-01T00:00 | 21427 | 45 | -53.4 | -84.5 | 67 | 11 | |
| 2009-06-01T00:00 | 21453 | 45 | -53.4 | -84.5 | 68 | 11 | |
| 2009-06-01T00:00 | 21480 | 45 | -53.3 | -84.4 | 69 | 11 | |
| 2009-06-01T00:00 | 21507 | 45 | -53.4 | -84.5 | 71 | 10 | |
| 2009-06-01T00:00 | 21532 | 45 | -53.5 | -84.6 | 72 | 9 | |
| 2009-06-01T00:00 | 21562 | 45 | -53.5 | -84.6 | 74 | 9 | |
| 2009-06-01T00:00 | 21589 | 44 | -53.5 | -84.6 | 77 | 8 | |
| 2009-06-01T00:00 | 21615 | 44 | -53.3 | -84.4 | 79 | 7 | |
| 2009-06-01T00:00 | 21641 | 44 | -53.0 | -84.2 | 82 | 6 | |
| 2009-06-01T00:00 | 21668 | 44 | -52.9 | -84.1 | 86 | 5 | |
| 2009-06-01T00:00 | 21696 | 44 | -52.8 | -84.1 | 89 | 5 | |
| 2009-06-01T00:00 | 21725 | 43 | -52.9 | -84.1 | 92 | 4 | |
| 2009-06-01T00:00 | 21750 | 43 | -53.1 | -84.3 | 91 | 4 | |
| 2009-06-01T00:00 | 21776 | 43 | -53.3 | -84.4 | 87 | 3 | |
| 2009-06-01T00:00 | 21803 | 43 | -53.4 | -84.5 | 80 | 3 | |
| 2009-06-01T00:00 | 21829 | 43 | -53.4 | -84.5 | 69 | 3 | |
| 2009-06-01T00:00 | 21853 | 43 | -53.2 | -84.4 | 58 | 3 | |
| 2009-06-01T00:00 | 21879 | 42 | -53.1 | -84.3 | 48 | 3 | |
| 2009-06-01T00:00 | 21906 | 42 | -53.1 | -84.3 | 39 | 4 | |
| 2009-06-01T00:00 | 21934 | 42 | -53.1 | -84.3 | 33 | 4 | |
| 2009-06-01T00:00 | 21959 | 42 | -53.2 | -84.4 | 31 | 4 | |
| 2009-06-01T00:00 | 21986 | 42 | -53.3 | -84.4 | 32 | 5 | |
| 2009-06-01T00:00 | 22011 | 42 | -53.2 | -84.4 | 37 | 5 | |
| 2009-06-01T00:00 | 22037 | 41 | -53.1 | -84.3 | 43 | 5 | |
| 2009-06-01T00:00 | 22062 | 41 | -53.1 | -84.3 | 51 | 5 | |
| 2009-06-01T00:00 | 22086 | 41 | -53.2 | -84.4 | 58 | 5 | |
| 2009-06-01T00:00 | 22113 | 41 | -53.4 | -84.5 | 66 | 5 | |
| 2009-06-01T00:00 | 22139 | 41 | -53.5 | -84.6 | 72 | 5 | |
| 2009-06-01T00:00 | 22164 | 41 | -53.7 | -84.7 | 78 | 5 | |
| 2009-06-01T00:00 | 22192 | 40 | -53.8 | -84.8 | 85 | 6 | |
| 2009-06-01T00:00 | 22218 | 40 | -54.0 | -84.9 | 91 | 6 | |
| 2009-06-01T00:00 | 22244 | 40 | -54.2 | -85.1 | 98 | 6 | |
| 2009-06-01T00:00 | 22271 | 40 | -54.2 | -85.1 | 105 | 6 | |
| 2009-06-01T00:00 | 22298 | 40 | -53.8 | -84.8 | 111 | 7 | |
| 2009-06-01T00:00 | 22323 | 40 | -53.9 | -84.9 | 116 | 7 | |
| 2009-06-01T00:00 | 22348 | 39 | -53.7 | -84.7 | 121 | 8 | |
| 2009-06-01T00:00 | 22375 | 39 | -53.6 | -84.6 | 125 | 8 | |
| 2009-06-01T00:00 | 22403 | 39 | -53.5 | -84.6 | 128 | 8 | |
| 2009-06-01T00:00 | 22431 | 39 | -53.3 | -84.4 | 131 | 8 | |
| 2009-06-01T00:00 | 22459 | 39 | -52.8 | -84.1 | 133 | 8 | |
| 2009-06-01T00:00 | 22485 | 39 | -52.9 | -84.1 | 135 | 7 | |
| 2009-06-01T00:00 | 22512 | 38 | -52.9 | -84.1 | 137 | 7 | |
| 2009-06-01T00:00 | 22542 | 38 | -52.9 | -84.1 | 140 | 6 | |
| 2009-06-01T00:00 | 22570 | 38 | -52.9 | -84.1 | 141 | 6 | |
| 2009-06-01T00:00 | 22598 | 38 | -52.8 | -84.1 | 143 | 5 | |
| 2009-06-01T00:00 | 22627 | 38 | -52.6 | -83.9 | 142 | 4 | |
| 2009-06-01T00:00 | 22654 | 38 | -52.3 | -83.7 | 140 | 4 | |
| 2009-06-01T00:00 | 22683 | 37 | -52.2 | -83.6 | 136 | 3 | |
| 2009-06-01T00:00 | 22709 | 37 | -52.3 | -83.7 | 129 | 3 | |
| 2009-06-01T00:00 | 22739 | 37 | -52.2 | -83.6 | 121 | 3 | |
| 2009-06-01T00:00 | 22769 | 37 | -52.3 | -83.7 | 111 | 2 | |
| 2009-06-01T00:00 | 22799 | 37 | -52.4 | -83.8 | 99 | 2 | |
| 2009-06-01T00:00 | 22827 | 37 | -52.4 | -83.8 | 84 | 2 | |
| 2009-06-01T00:00 | 22856 | 36 | -52.4 | -83.8 | 66 | 2 | |
| 2009-06-01T00:00 | 22885 | 36 | -52.4 | -83.8 | 51 | 2 | |
| 2009-06-01T00:00 | 22915 | 36 | -52.4 | -83.8 | 43 | 3 | |
| 2009-06-01T00:00 | 22943 | 36 | -52.4 | -83.8 | 40 | 3 | |
| 2009-06-01T00:00 | 22974 | 36 | -52.5 | -83.8 | 41 | 3 | |
| 2009-06-01T00:00 | 23003 | 36 | -52.6 | -83.9 | 44 | 3 | |
| 2009-06-01T00:00 | 23035 | 35 | -52.9 | -84.1 | 49 | 4 | |
| 2009-06-01T00:00 | 23064 | 35 | -53.2 | -84.4 | 55 | 4 | |
| 2009-06-01T00:00 | 23093 | 35 | -53.2 | -84.4 | 61 | 4 | |
| 2009-06-01T00:00 | 23122 | 35 | -53.1 | -84.3 | 69 | 4 | |
| 2009-06-01T00:00 | 23151 | 35 | -53.2 | -84.4 | 77 | 4 | |
| 2009-06-01T00:00 | 23180 | 35 | -53.2 | -84.4 | 86 | 4 | |
| 2009-06-01T00:00 | 23206 | 35 | -53.2 | -84.4 | 96 | 4 | |
| 2009-06-01T00:00 | 23233 | 34 | -53.4 | -84.5 | 103 | 4 | |
| 2009-06-01T00:00 | 23262 | 34 | -53.4 | -84.5 | 109 | 4 | |
| 2009-06-01T00:00 | 23291 | 34 | -53.4 | -84.5 | 114 | 4 | |
| 2009-06-01T00:00 | 23319 | 34 | -53.4 | -84.5 | 116 | 4 | |
| 2009-06-01T00:00 | 23346 | 34 | -53.5 | -84.6 | 117 | 4 | |
| 2009-06-01T00:00 | 23374 | 34 | -53.4 | -84.5 | 117 | 5 | |
| 2009-06-01T00:00 | 23402 | 33 | -53.5 | -84.6 | 116 | 5 | |
| 2009-06-01T00:00 | 23426 | 33 | -53.7 | -84.7 | 114 | 5 | |
| 2009-06-01T00:00 | 23452 | 33 | -53.8 | -84.8 | 112 | 5 | |
| 2009-06-01T00:00 | 23482 | 33 | -53.8 | -84.8 | 109 | 5 | |
| 2009-06-01T00:00 | 23507 | 33 | -53.8 | -84.8 | 105 | 4 | |
| 2009-06-01T00:00 | 23533 | 33 | -53.7 | -84.7 | 99 | 4 | |
| 2009-06-01T00:00 | 23560 | 33 | -53.8 | -84.8 | 93 | 4 | |
| 2009-06-01T00:00 | 23586 | 33 | -53.8 | -84.8 | 84 | 4 | |
| 2009-06-01T00:00 | 23612 | 32 | -53.8 | -84.8 | 74 | 4 | |
| 2009-06-01T00:00 | 23637 | 32 | -53.9 | -84.9 | 65 | 4 | |
| 2009-06-01T00:00 | 23660 | 32 | -54.0 | -84.9 | 59 | 5 | |
| 2009-06-01T00:00 | 23687 | 32 | -54.0 | -84.9 | 56 | 5 | |
| 2009-06-01T00:00 | 23712 | 32 | -53.8 | -84.8 | 55 | 6 | |
| 2009-06-01T00:00 | 23738 | 32 | -53.6 | -84.6 | 56 | 7 | |
| 2009-06-01T00:00 | 23766 | 32 | -53.5 | -84.6 | 58 | 7 | |
| 2009-06-01T00:00 | 23789 | 32 | -53.4 | -84.5 | 61 | 7 | |
| 2009-06-01T00:00 | 23815 | 31 | -53.4 | -84.5 | 63 | 8 | |
| 2009-06-01T00:00 | 23841 | 31 | -53.6 | -84.6 | 63 | 8 | |
| 2009-06-01T00:00 | 23869 | 31 | -53.5 | -84.6 | 62 | 8 | |
| 2009-06-01T00:00 | 23895 | 31 | -53.4 | -84.5 | 61 | 8 | |
| 2009-06-01T00:00 | 23921 | 31 | -53.4 | -84.5 | 59 | 9 | |
| 2009-06-01T00:00 | 23944 | 31 | -53.5 | -84.6 | 58 | 9 | |
| 2009-06-01T00:00 | 23971 | 31 | -53.2 | -84.4 | 58 | 9 | |
| 2009-06-01T00:00 | 23997 | 31 | -52.9 | -84.1 | 59 | 10 | |
| 2009-06-01T00:00 | 24022 | 30 | -52.9 | -84.1 | 61 | 10 | |
| 2009-06-01T00:00 | 24048 | 30 | -53.0 | -84.2 | 63 | 10 | |
| 2009-06-01T00:00 | 24071 | 30 | -53.1 | -84.3 | 65 | 10 | |
| 2009-06-01T00:00 | 24100 | 30 | -53.0 | -84.2 | 66 | 10 | |
| 2009-06-01T00:00 | 24128 | 30 | -53.2 | -84.4 | 67 | 10 | |
| 2009-06-01T00:00 | 24153 | 30 | -53.4 | -84.5 | 67 | 11 | |
| 2009-06-01T00:00 | 24183 | 30 | -53.2 | -84.4 | 66 | 11 | |
| 2009-06-01T00:00 | 24209 | 30 | -52.7 | -84.0 | 65 | 12 | |
| 2009-06-01T00:00 | 24239 | 29 | -52.7 | -84.0 | 65 | 12 | |
| 2009-06-01T00:00 | 24266 | 29 | -52.9 | -84.1 | 66 | 12 | |
| 2009-06-01T00:00 | 24296 | 29 | -53.0 | -84.2 | 67 | 12 | |
| 2009-06-01T00:00 | 24323 | 29 | -53.0 | -84.2 | 69 | 12 | |
| 2009-06-01T00:00 | 24352 | 29 | -53.1 | -84.3 | 72 | 11 | |
| 2009-06-01T00:00 | 24379 | 29 | -53.2 | -84.4 | 76 | 11 | |
| 2009-06-01T00:00 | 24411 | 29 | -53.1 | -84.3 | 81 | 10 | |
| 2009-06-01T00:00 | 24441 | 28 | -53.2 | -84.4 | 88 | 10 | |
| 2009-06-01T00:00 | 24471 | 28 | -53.2 | -84.4 | 94 | 9 | |
| 2009-06-01T00:00 | 24503 | 28 | -53.4 | -84.5 | 101 | 9 | |
| 2009-06-01T00:00 | 24530 | 28 | -53.5 | -84.6 | 108 | 9 | |
| 2009-06-01T00:00 | 24560 | 28 | -53.6 | -84.6 | 114 | 9 | |
| 2009-06-01T00:00 | 24588 | 28 | -53.7 | -84.7 | 119 | 9 | |
| 2009-06-01T00:00 | 24618 | 28 | -53.6 | -84.6 | 123 | 8 | |
| 2009-06-01T00:00 | 24647 | 28 | -53.6 | -84.6 | 125 | 8 | |
| 2009-06-01T00:00 | 24679 | 27 | -53.8 | -84.8 | 126 | 8 | |
| 2009-06-01T00:00 | 24707 | 27 | -53.9 | -84.9 | 124 | 8 | |
| 2009-06-01T00:00 | 24739 | 27 | -53.9 | -84.9 | 119 | 8 | |
| 2009-06-01T00:00 | 24768 | 27 | -53.6 | -84.6 | 112 | 8 | |
| 2009-06-01T00:00 | 24800 | 27 | -53.6 | -84.6 | 104 | 8 | |
| 2009-06-01T00:00 | 24828 | 27 | -53.6 | -84.6 | 96 | 9 | |
| 2009-06-01T00:00 | 24860 | 27 | -53.6 | -84.6 | 90 | 9 | |
| 2009-06-01T00:00 | 24889 | 27 | -53.8 | -84.8 | 86 | 9 | |
| 2009-06-01T00:00 | 24918 | 26 | -53.7 | -84.7 | 83 | 9 | |
| 2009-06-01T00:00 | 24945 | 26 | -53.4 | -84.5 | 82 | 9 | |
| 2009-06-01T00:00 | 24971 | 26 | -53.1 | -84.3 | 82 | 9 | |
| 2009-06-01T00:00 | 25003 | 26 | -51.9 | -83.4 | 84 | 8 | |
| 2009-06-01T00:00 | 25031 | 26 | -51.9 | -83.4 | 87 | 7 | |
| 2009-06-01T00:00 | 25059 | 26 | -52.1 | -83.5 | 91 | 6 | |
| 2009-06-01T00:00 | 25089 | 26 | -52.3 | -83.7 | 96 | 5 | |
| 2009-06-01T00:00 | 25117 | 26 | -52.5 | -83.8 | 101 | 4 | |
| 2009-06-01T00:00 | 25143 | 26 | -52.4 | -83.8 | 104 | 4 | |
| 2009-06-01T00:00 | 25170 | 25 | -52.1 | -83.5 | 106 | 3 | |
| 2009-06-01T00:00 | 25196 | 25 | -51.8 | -83.3 | 106 | 3 | |
| 2009-06-01T00:00 | 25221 | 25 | -51.5 | -83.1 | 102 | 2 | |
| 2009-06-01T00:00 | 25248 | 25 | -51.2 | -82.9 | 96 | 2 | |
| 2009-06-01T00:00 | 25276 | 25 | -51.1 | -82.8 | 91 | 2 | |
| 2009-06-01T00:00 | 25301 | 25 | -51.1 | -82.8 | 87 | 2 | |
| 2009-06-01T00:00 | 25327 | 25 | -51.3 | -82.9 | 84 | 2 | |
| 2009-06-01T00:00 | 25351 | 25 | -51.4 | -83.0 | 83 | 2 | |
| 2009-06-01T00:00 | 25377 | 25 | -51.5 | -83.1 | 81 | 2 | |
| 2009-06-01T00:00 | 25402 | 25 | -51.6 | -83.2 | 78 | 3 | |
| 2009-06-01T00:00 | 25426 | 24 | -51.7 | -83.2 | 74 | 3 | |
| 2009-06-01T00:00 | 25453 | 24 | -51.8 | -83.3 | 72 | 3 | |
| 2009-06-01T00:00 | 25478 | 24 | -51.9 | -83.4 | 72 | 4 | |
| 2009-06-01T00:00 | 25504 | 24 | -51.9 | -83.4 | 75 | 4 | |
| 2009-06-01T00:00 | 25528 | 24 | -51.9 | -83.4 | 80 | 5 | |
| 2009-06-01T00:00 | 25553 | 24 | -51.6 | -83.2 | 85 | 5 | |
| 2009-06-01T00:00 | 25577 | 24 | -51.4 | -83.0 | 89 | 5 | |
| 2009-06-01T00:00 | 25603 | 24 | -51.2 | -82.9 | 92 | 5 | |
| 2009-06-01T00:00 | 25629 | 24 | -50.8 | -82.6 | 92 | 5 | |
| 2009-06-01T00:00 | 25655 | 24 | -50.6 | -82.4 | 91 | 5 | |
| 2009-06-01T00:00 | 25681 | 24 | -50.3 | -82.2 | 88 | 5 | |
| 2009-06-01T00:00 | 25708 | 23 | -49.9 | -81.9 | 84 | 5 | |
| 2009-06-01T00:00 | 25736 | 23 | -49.9 | -81.9 | 81 | 4 | |
| 2009-06-01T06:00 | 112 | 1008 | 13.4 | 12.6 | 80 | 2 | |
| 2009-06-01T06:00 | 129 | 1006 | 12.9 | 11.8 | 73 | 2 | |
| 2009-06-01T06:00 | 153 | 1003 | 12.6 | 11.7 | 79 | 3 | |
| 2009-06-01T06:00 | 180 | 1000 | 12.4 | 11.6 | 82 | 4 | |
| 2009-06-01T06:00 | 208 | 996 | 12.1 | 11.5 | 83 | 4 | |
| 2009-06-01T06:00 | 234 | 993 | 11.8 | 11.3 | 83 | 4 | |
| 2009-06-01T06:00 | 264 | 990 | 11.7 | 11.4 | 81 | 4 | |
| 2009-06-01T06:00 | 289 | 987 | 11.6 | 11.5 | 77 | 4 | |
| 2009-06-01T06:00 | 313 | 984 | 11.4 | 11.3 | 74 | 4 | |
| 2009-06-01T06:00 | 337 | 981 | 11.2 | 11.1 | 71 | 4 | |
| 2009-06-01T06:00 | 364 | 978 | 11.1 | 11.0 | 71 | 4 | |
| 2009-06-01T06:00 | 390 | 975 | 11.0 | 10.9 | 73 | 4 | |
| 2009-06-01T06:00 | 415 | 972 | 10.8 | 10.7 | 76 | 4 | |
| 2009-06-01T06:00 | 439 | 969 | 10.7 | 10.6 | 78 | 4 | |
| 2009-06-01T06:00 | 460 | 967 | 10.5 | 10.4 | 77 | 4 | |
| 2009-06-01T06:00 | 483 | 964 | 10.2 | 10.1 | 74 | 4 | |
| 2009-06-01T06:00 | 506 | 961 | 10.2 | 10.1 | 71 | 5 | |
| 2009-06-01T06:00 | 529 | 959 | 11.2 | 10.6 | 69 | 5 | |
| 2009-06-01T06:00 | 553 | 956 | 11.2 | 10.3 | 68 | 6 | |
| 2009-06-01T06:00 | 576 | 953 | 11.2 | 9.1 | 68 | 7 | |
| 2009-06-01T06:00 | 604 | 950 | 11.2 | 8.2 | 68 | 7 | |
| 2009-06-01T06:00 | 630 | 947 | 11.2 | 8.1 | 69 | 8 | |
| 2009-06-01T06:00 | 658 | 944 | 11.2 | 8.1 | 69 | 8 | |
| 2009-06-01T06:00 | 683 | 941 | 11.4 | 7.5 | 70 | 9 | |
| 2009-06-01T06:00 | 708 | 938 | 11.5 | 7.8 | 69 | 9 | |
| 2009-06-01T06:00 | 728 | 936 | 11.6 | 7.5 | 68 | 9 | |
| 2009-06-01T06:00 | 754 | 933 | 11.6 | 7.3 | 68 | 10 | |
| 2009-06-01T06:00 | 782 | 930 | 11.5 | 6.8 | 67 | 10 | |
| 2009-06-01T06:00 | 811 | 927 | 11.4 | 67 | 10 | ||
| 2009-06-01T06:00 | 836 | 924 | 11.2 | 5.9 | 66 | 9 | |
| 2009-06-01T06:00 | 864 | 921 | 11.1 | 5.8 | 66 | 10 | |
| 2009-06-01T06:00 | 892 | 918 | 10.8 | 5.8 | 64 | 10 | |
| 2009-06-01T06:00 | 919 | 915 | 10.6 | 5.8 | 62 | 11 | |
| 2009-06-01T06:00 | 944 | 912 | 10.4 | 5.6 | 61 | 11 | |
| 2009-06-01T06:00 | 969 | 910 | 10.2 | 5.4 | 61 | 11 | |
| 2009-06-01T06:00 | 991 | 907 | 10.0 | 5.4 | 62 | 11 | |
| 2009-06-01T06:00 | 1016 | 905 | 9.8 | 5.2 | 63 | 10 | |
| 2009-06-01T06:00 | 1041 | 902 | 9.6 | 5.2 | 65 | 10 | |
| 2009-06-01T06:00 | 1069 | 899 | 9.2 | 5.0 | 66 | 10 | |
| 2009-06-01T06:00 | 1099 | 895 | 9.1 | 5.1 | 66 | 10 | |
| 2009-06-01T06:00 | 1127 | 893 | 9.0 | 4.8 | 65 | 10 | |
| 2009-06-01T06:00 | 1152 | 890 | 9.0 | 4.8 | 64 | 11 | |
| 2009-06-01T06:00 | 1177 | 887 | 8.9 | 4.7 | 62 | 12 | |
| 2009-06-01T06:00 | 1197 | 885 | 8.8 | 4.6 | 60 | 12 | |
| 2009-06-01T06:00 | 1220 | 883 | 8.7 | 4.5 | 58 | 12 | |
| 2009-06-01T06:00 | 1244 | 880 | 8.6 | 4.2 | 56 | 12 | |
| 2009-06-01T06:00 | 1273 | 877 | 8.4 | 3.9 | 55 | 12 | |
| 2009-06-01T06:00 | 1302 | 874 | 8.2 | 3.3 | 55 | 11 | |
| 2009-06-01T06:00 | 1327 | 871 | 8.1 | 3.0 | 55 | 11 | |
| 2009-06-01T06:00 | 1353 | 868 | 7.9 | 2.8 | 56 | 11 | |
| 2009-06-01T06:00 | 1384 | 865 | 7.7 | 2.8 | 57 | 11 | |
| 2009-06-01T06:00 | 1412 | 862 | 7.5 | 3.2 | 58 | 11 | |
| 2009-06-01T06:00 | 1442 | 859 | 7.2 | 2.7 | 59 | 11 | |
| 2009-06-01T06:00 | 1467 | 856 | 7.2 | 2.5 | 59 | 11 | |
| 2009-06-01T06:00 | 1489 | 854 | 7.0 | 2.3 | 58 | 11 | |
| 2009-06-01T06:00 | 1518 | 851 | 6.9 | 2.8 | 55 | 11 | |
| 2009-06-01T06:00 | 1543 | 849 | 6.8 | 2.9 | 52 | 10 | |
| 2009-06-01T06:00 | 1568 | 846 | 6.6 | 2.9 | 49 | 10 | |
| 2009-06-01T06:00 | 1590 | 844 | 6.4 | 2.7 | 47 | 10 | |
| 2009-06-01T06:00 | 1618 | 841 | 6.1 | 2.4 | 46 | 10 | |
| 2009-06-01T06:00 | 1645 | 838 | 5.9 | 2.0 | 46 | 10 | |
| 2009-06-01T06:00 | 1670 | 836 | 5.6 | 1.9 | 48 | 10 | |
| 2009-06-01T06:00 | 1696 | 833 | 5.4 | 1.7 | 49 | 11 | |
| 2009-06-01T06:00 | 1724 | 830 | 5.2 | 0.6 | 51 | 11 | |
| 2009-06-01T06:00 | 1751 | 827 | 5.0 | 0.0 | 53 | 10 | |
| 2009-06-01T06:00 | 1776 | 825 | 5.0 | -2.5 | 55 | 10 | |
| 2009-06-01T06:00 | 1803 | 822 | 4.8 | -3.3 | 56 | 10 | |
| 2009-06-01T06:00 | 1827 | 820 | 4.7 | -4.3 | 56 | 10 | |
| 2009-06-01T06:00 | 1854 | 817 | 4.6 | -4.4 | 55 | 10 | |
| 2009-06-01T06:00 | 1879 | 814 | 4.5 | -4.2 | 55 | 10 | |
| 2009-06-01T06:00 | 1904 | 812 | 4.2 | -5.2 | 54 | 10 | |
| 2009-06-01T06:00 | 1931 | 809 | 4.1 | -4.1 | 54 | 11 | |
| 2009-06-01T06:00 | 1957 | 807 | 4.0 | -5.8 | 55 | 11 | |
| 2009-06-01T06:00 | 1984 | 804 | 4.0 | -6.9 | 56 | 11 | |
| 2009-06-01T06:00 | 2013 | 801 | 3.9 | -4.9 | 57 | 11 | |
| 2009-06-01T06:00 | 2036 | 799 | 3.8 | -4.1 | 58 | 11 | |
| 2009-06-01T06:00 | 2061 | 796 | 3.6 | -4.3 | 58 | 11 | |
| 2009-06-01T06:00 | 2090 | 794 | 3.4 | -4.0 | 58 | 11 | |
| 2009-06-01T06:00 | 2119 | 791 | 3.1 | -4.1 | 58 | 11 | |
| 2009-06-01T06:00 | 2145 | 788 | 2.8 | -4.1 | 58 | 11 | |
| 2009-06-01T06:00 | 2171 | 786 | 2.6 | -4.5 | 57 | 11 | |
| 2009-06-01T06:00 | 2198 | 783 | 2.4 | -5.3 | 55 | 11 | |
| 2009-06-01T06:00 | 2226 | 780 | 2.2 | -6.8 | 53 | 11 | |
| 2009-06-01T06:00 | 2251 | 778 | 2.1 | -7.9 | 52 | 11 | |
| 2009-06-01T06:00 | 2281 | 775 | 2.0 | -8.0 | 52 | 11 | |
| 2009-06-01T06:00 | 2310 | 772 | 2.0 | -9.6 | 53 | 11 | |
| 2009-06-01T06:00 | 2338 | 770 | 1.9 | -7.8 | 55 | 11 | |
| 2009-06-01T06:00 | 2364 | 767 | 1.7 | -9.3 | 58 | 11 | |
| 2009-06-01T06:00 | 2392 | 764 | 1.5 | -10.4 | 60 | 11 | |
| 2009-06-01T06:00 | 2416 | 762 | 1.4 | -11.7 | 60 | 11 | |
| 2009-06-01T06:00 | 2443 | 760 | 1.1 | -11.3 | 60 | 12 | |
| 2009-06-01T06:00 | 2473 | 757 | 1.0 | -13.5 | 59 | 12 | |
| 2009-06-01T06:00 | 2501 | 754 | 0.9 | -14.3 | 60 | 13 | |
| 2009-06-01T06:00 | 2530 | 751 | 0.8 | -12.2 | 61 | 13 | |
| 2009-06-01T06:00 | 2562 | 748 | 0.8 | -15.2 | 63 | 14 | |
| 2009-06-01T06:00 | 2596 | 745 | 0.7 | -15.3 | 65 | 14 | |
| 2009-06-01T06:00 | 2622 | 743 | 0.6 | -15.8 | 67 | 14 | |
| 2009-06-01T06:00 | 2650 | 740 | 0.2 | -13.7 | 70 | 14 | |
| 2009-06-01T06:00 | 2677 | 738 | 0.2 | 72 | 14 | ||
| 2009-06-01T06:00 | 2706 | 735 | 0.2 | -13.4 | 73 | 13 | |
| 2009-06-01T06:00 | 2733 | 733 | 0.0 | -12.5 | 74 | 13 | |
| 2009-06-01T06:00 | 2762 | 730 | -0.2 | -13.4 | 75 | 12 | |
| 2009-06-01T06:00 | 2794 | 727 | -0.2 | -14.1 | 75 | 12 | |
| 2009-06-01T06:00 | 2824 | 724 | -0.4 | -13.2 | 75 | 12 | |
| 2009-06-01T06:00 | 2846 | 722 | -0.6 | -13.4 | 75 | 12 | |
| 2009-06-01T06:00 | 2868 | 720 | -0.8 | -13.6 | 75 | 11 | |
| 2009-06-01T06:00 | 2894 | 718 | -1.0 | -13.1 | 75 | 11 | |
| 2009-06-01T06:00 | 2919 | 716 | -1.3 | -13.4 | 75 | 11 | |
| 2009-06-01T06:00 | 2947 | 713 | -1.5 | -12.9 | 76 | 11 | |
| 2009-06-01T06:00 | 2973 | 711 | -1.8 | -13.2 | 77 | 11 | |
| 2009-06-01T06:00 | 3003 | 708 | -1.8 | -13.5 | 78 | 11 | |
| 2009-06-01T06:00 | 3029 | 706 | -1.9 | -13.6 | 78 | 11 | |
| 2009-06-01T06:00 | 3053 | 704 | -2.0 | -14.3 | 76 | 11 | |
| 2009-06-01T06:00 | 3078 | 702 | -2.2 | -14.2 | 74 | 11 | |
| 2009-06-01T06:00 | 3098 | 700 | -2.4 | -14.4 | 71 | 11 | |
| 2009-06-01T06:00 | 3123 | 698 | -2.6 | -14.2 | 69 | 11 | |
| 2009-06-01T06:00 | 3150 | 695 | -2.8 | -14.4 | 67 | 11 | |
| 2009-06-01T06:00 | 3175 | 693 | -3.0 | -14.3 | 65 | 11 | |
| 2009-06-01T06:00 | 3199 | 691 | -3.1 | -14.1 | 65 | 11 | |
| 2009-06-01T06:00 | 3221 | 689 | -3.1 | -15.0 | 65 | 11 | |
| 2009-06-01T06:00 | 3246 | 687 | -3.3 | -14.9 | 65 | 12 | |
| 2009-06-01T06:00 | 3269 | 685 | -3.5 | -15.1 | 66 | 12 | |
| 2009-06-01T06:00 | 3297 | 682 | -3.8 | -15.6 | 67 | 12 | |
| 2009-06-01T06:00 | 3327 | 680 | -4.0 | -16.5 | 67 | 13 | |
| 2009-06-01T06:00 | 3346 | 678 | -4.1 | -16.6 | 68 | 13 | |
| 2009-06-01T06:00 | 3369 | 676 | -4.1 | -15.3 | 68 | 14 | |
| 2009-06-01T06:00 | 3390 | 674 | -4.3 | -15.5 | 68 | 14 | |
| 2009-06-01T06:00 | 3412 | 673 | -4.3 | -16.4 | 69 | 14 | |
| 2009-06-01T06:00 | 3438 | 670 | -4.3 | -17.8 | 70 | 14 | |
| 2009-06-01T06:00 | 3466 | 668 | -4.4 | -18.6 | 70 | 14 | |
| 2009-06-01T06:00 | 3489 | 666 | -4.5 | -19.0 | 70 | 14 | |
| 2009-06-01T06:00 | 3513 | 664 | -4.5 | -20.3 | 70 | 14 | |
| 2009-06-01T06:00 | 3534 | 662 | -4.8 | -21.0 | 69 | 14 | |
| 2009-06-01T06:00 | 3558 | 660 | -4.9 | -20.2 | 68 | 14 | |
| 2009-06-01T06:00 | 3582 | 658 | -5.1 | -19.6 | 68 | 13 | |
| 2009-06-01T06:00 | 3607 | 656 | -5.3 | -18.0 | 67 | 13 | |
| 2009-06-01T06:00 | 3630 | 654 | -5.2 | -15.8 | 67 | 13 | |
| 2009-06-01T06:00 | 3652 | 652 | -5.3 | -19.4 | 68 | 13 | |
| 2009-06-01T06:00 | 3678 | 650 | -5.4 | -21.5 | 69 | 13 | |
| 2009-06-01T06:00 | 3705 | 648 | -5.6 | -22.1 | 70 | 14 | |
| 2009-06-01T06:00 | 3730 | 646 | -5.6 | -22.1 | 71 | 15 | |
| 2009-06-01T06:00 | 3757 | 644 | -5.6 | -23.1 | 71 | 15 | |
| 2009-06-01T06:00 | 3783 | 642 | -5.8 | -23.8 | 72 | 16 | |
| 2009-06-01T06:00 | 3806 | 640 | -5.8 | -24.9 | 71 | 16 | |
| 2009-06-01T06:00 | 3831 | 638 | -5.6 | -26.0 | 70 | 16 | |
| 2009-06-01T06:00 | 3852 | 636 | -5.5 | -24.1 | 69 | 16 | |
| 2009-06-01T06:00 | 3876 | 634 | -5.8 | -23.3 | 68 | 16 | |
| 2009-06-01T06:00 | 3903 | 632 | -5.9 | -19.2 | 67 | 17 | |
| 2009-06-01T06:00 | 3923 | 630 | -6.1 | -16.1 | 65 | 17 | |
| 2009-06-01T06:00 | 3949 | 628 | -6.4 | -14.9 | 64 | 17 | |
| 2009-06-01T06:00 | 3974 | 626 | -6.4 | -15.6 | 62 | 17 | |
| 2009-06-01T06:00 | 4004 | 624 | -6.3 | -15.5 | 60 | 17 | |
| 2009-06-01T06:00 | 4030 | 622 | -6.5 | -14.3 | 59 | 17 | |
| 2009-06-01T06:00 | 4057 | 619 | -6.8 | -13.1 | 58 | 17 | |
| 2009-06-01T06:00 | 4082 | 617 | -6.9 | -12.9 | 57 | 17 | |
| 2009-06-01T06:00 | 4113 | 615 | -7.2 | -13.1 | 55 | 17 | |
| 2009-06-01T06:00 | 4145 | 612 | -7.4 | -13.0 | 54 | 17 | |
| 2009-06-01T06:00 | 4172 | 610 | -7.6 | -12.8 | 54 | 17 | |
| 2009-06-01T06:00 | 4196 | 608 | -7.8 | -12.8 | 53 | 17 | |
| 2009-06-01T06:00 | 4221 | 607 | -7.9 | -12.7 | 52 | 17 | |
| 2009-06-01T06:00 | 4245 | 605 | -8.1 | -13.3 | 52 | 17 | |
| 2009-06-01T06:00 | 4272 | 603 | -8.3 | -13.3 | 51 | 17 | |
| 2009-06-01T06:00 | 4301 | 600 | -8.4 | -13.9 | 50 | 17 | |
| 2009-06-01T06:00 | 4325 | 598 | -8.6 | -14.9 | 50 | 16 | |
| 2009-06-01T06:00 | 4354 | 596 | -8.8 | -17.1 | 50 | 17 | |
| 2009-06-01T06:00 | 4378 | 594 | -9.0 | -16.9 | 50 | 17 | |
| 2009-06-01T06:00 | 4404 | 592 | -9.1 | -17.2 | 50 | 17 | |
| 2009-06-01T06:00 | 4429 | 590 | -9.4 | -17.2 | 51 | 17 | |
| 2009-06-01T06:00 | 4457 | 588 | -9.6 | -16.6 | 51 | 17 | |
| 2009-06-01T06:00 | 4490 | 586 | -9.8 | -16.6 | 52 | 17 | |
| 2009-06-01T06:00 | 4520 | 584 | -10.1 | -16.5 | 53 | 17 | |
| 2009-06-01T06:00 | 4542 | 582 | -10.3 | -16.7 | 54 | 17 | |
| 2009-06-01T06:00 | 4571 | 580 | -10.5 | -17.8 | 54 | 17 | |
| 2009-06-01T06:00 | 4597 | 578 | -10.8 | -18.6 | 53 | 17 | |
| 2009-06-01T06:00 | 4624 | 576 | -10.9 | -19.1 | 54 | 17 | |
| 2009-06-01T06:00 | 4652 | 574 | -10.9 | -19.3 | 54 | 16 | |
| 2009-06-01T06:00 | 4675 | 572 | -11.1 | -17.6 | 54 | 16 | |
| 2009-06-01T06:00 | 4700 | 570 | -11.2 | -16.8 | 53 | 15 | |
| 2009-06-01T06:00 | 4725 | 568 | -11.2 | -16.8 | 52 | 15 | |
| 2009-06-01T06:00 | 4753 | 566 | -10.9 | -17.6 | 51 | 16 | |
| 2009-06-01T06:00 | 4778 | 564 | -11.0 | -18.1 | 50 | 16 | |
| 2009-06-01T06:00 | 4799 | 563 | -11.1 | -18.4 | 50 | 17 | |
| 2009-06-01T06:00 | 4830 | 561 | -11.4 | -18.9 | 50 | 17 | |
| 2009-06-01T06:00 | 4858 | 558 | -11.6 | -19.3 | 51 | 17 | |
| 2009-06-01T06:00 | 4890 | 556 | -11.8 | -21.9 | 52 | 17 | |
| 2009-06-01T06:00 | 4919 | 554 | -12.0 | -22.6 | 52 | 17 | |
| 2009-06-01T06:00 | 4942 | 552 | -12.2 | -21.5 | 53 | 17 | |
| 2009-06-01T06:00 | 4969 | 550 | -12.5 | -20.8 | 54 | 17 | |
| 2009-06-01T06:00 | 4995 | 549 | -12.8 | -20.4 | 55 | 17 | |
| 2009-06-01T06:00 | 5021 | 547 | -13.0 | -20.2 | 57 | 17 | |
| 2009-06-01T06:00 | 5044 | 545 | -13.1 | -20.1 | 58 | 17 | |
| 2009-06-01T06:00 | 5066 | 543 | -13.3 | -20.3 | 58 | 17 | |
| 2009-06-01T06:00 | 5094 | 541 | -13.4 | -20.6 | 58 | 17 | |
| 2009-06-01T06:00 | 5124 | 539 | -13.6 | -21.0 | 57 | 17 | |
| 2009-06-01T06:00 | 5151 | 537 | -13.8 | -21.4 | 56 | 17 | |
| 2009-06-01T06:00 | 5175 | 536 | -13.9 | -21.7 | 54 | 17 | |
| 2009-06-01T06:00 | 5201 | 534 | -14.1 | -21.9 | 53 | 17 | |
| 2009-06-01T06:00 | 5224 | 532 | -14.2 | -22.0 | 52 | 17 | |
| 2009-06-01T06:00 | 5247 | 531 | -14.2 | -22.6 | 51 | 18 | |
| 2009-06-01T06:00 | 5276 | 529 | -14.3 | -23.2 | 51 | 18 | |
| 2009-06-01T06:00 | 5301 | 527 | -14.6 | -23.5 | 50 | 19 | |
| 2009-06-01T06:00 | 5325 | 525 | -14.8 | -23.4 | 49 | 19 | |
| 2009-06-01T06:00 | 5352 | 523 | -15.0 | -23.4 | 48 | 19 | |
| 2009-06-01T06:00 | 5377 | 522 | -15.3 | -23.4 | 47 | 19 | |
| 2009-06-01T06:00 | 5400 | 520 | -15.5 | -22.8 | 48 | 18 | |
| 2009-06-01T06:00 | 5423 | 518 | -15.8 | -22.5 | 49 | 18 | |
| 2009-06-01T06:00 | 5452 | 516 | -15.9 | -22.6 | 51 | 18 | |
| 2009-06-01T06:00 | 5477 | 515 | -16.1 | -22.9 | 53 | 18 | |
| 2009-06-01T06:00 | 5502 | 513 | -16.3 | -23.3 | 55 | 18 | |
| 2009-06-01T06:00 | 5526 | 511 | -16.5 | -23.9 | 56 | 18 | |
| 2009-06-01T06:00 | 5551 | 510 | -16.8 | -24.2 | 57 | 18 | |
| 2009-06-01T06:00 | 5572 | 508 | -16.9 | -24.3 | 57 | 18 | |
| 2009-06-01T06:00 | 5596 | 507 | -17.0 | -24.4 | 56 | 18 | |
| 2009-06-01T06:00 | 5621 | 505 | -17.2 | -24.6 | 55 | 17 | |
| 2009-06-01T06:00 | 5648 | 503 | -17.3 | -24.5 | 55 | 17 | |
| 2009-06-01T06:00 | 5672 | 501 | -17.6 | -24.8 | 55 | 16 | |
| 2009-06-01T06:00 | 5699 | 500 | -17.8 | -24.9 | 55 | 16 | |
| 2009-06-01T06:00 | 5728 | 498 | -18.1 | -25.0 | 56 | 16 | |
| 2009-06-01T06:00 | 5755 | 496 | -18.3 | -25.0 | 56 | 16 | |
| 2009-06-01T06:00 | 5779 | 494 | -18.6 | -25.3 | 57 | 16 | |
| 2009-06-01T06:00 | 5803 | 493 | -18.6 | -25.5 | 57 | 16 | |
| 2009-06-01T06:00 | 5828 | 491 | -18.8 | -25.9 | 58 | 16 | |
| 2009-06-01T06:00 | 5847 | 490 | -19.0 | -26.1 | 58 | 16 | |
| 2009-06-01T06:00 | 5869 | 488 | -19.1 | -26.6 | 59 | 15 | |
| 2009-06-01T06:00 | 5896 | 487 | -19.3 | -26.8 | 58 | 15 | |
| 2009-06-01T06:00 | 5926 | 485 | -19.5 | -27.0 | 57 | 15 | |
| 2009-06-01T06:00 | 5953 | 483 | -19.8 | -27.0 | 54 | 15 | |
| 2009-06-01T06:00 | 5980 | 481 | -20.0 | -27.2 | 52 | 15 | |
| 2009-06-01T06:00 | 6010 | 479 | -20.3 | -27.7 | 50 | 15 | |
| 2009-06-01T06:00 | 6033 | 478 | -20.5 | -27.9 | 49 | 15 | |
| 2009-06-01T06:00 | 6058 | 476 | -20.7 | -28.3 | 49 | 15 | |
| 2009-06-01T06:00 | 6090 | 474 | -20.9 | -28.3 | 49 | 15 | |
| 2009-06-01T06:00 | 6114 | 473 | -21.2 | -28.6 | 50 | 15 | |
| 2009-06-01T06:00 | 6141 | 471 | -21.4 | -28.7 | 49 | 15 | |
| 2009-06-01T06:00 | 6169 | 469 | -21.7 | -29.0 | 49 | 15 | |
| 2009-06-01T06:00 | 6191 | 468 | -21.8 | -29.3 | 47 | 15 | |
| 2009-06-01T06:00 | 6220 | 466 | -22.1 | -29.4 | 46 | 15 | |
| 2009-06-01T06:00 | 6246 | 464 | -22.2 | -29.9 | 46 | 15 | |
| 2009-06-01T06:00 | 6275 | 462 | -22.4 | -30.3 | 45 | 15 | |
| 2009-06-01T06:00 | 6296 | 461 | -22.5 | -30.6 | 45 | 14 | |
| 2009-06-01T06:00 | 6318 | 460 | -22.6 | -31.4 | 45 | 14 | |
| 2009-06-01T06:00 | 6342 | 458 | -22.9 | -31.7 | 45 | 14 | |
| 2009-06-01T06:00 | 6367 | 457 | -23.1 | -31.8 | 46 | 15 | |
| 2009-06-01T06:00 | 6391 | 455 | -23.3 | -32.0 | 47 | 15 | |
| 2009-06-01T06:00 | 6419 | 453 | -23.5 | -32.5 | 49 | 15 | |
| 2009-06-01T06:00 | 6446 | 452 | -23.7 | -32.9 | 51 | 15 | |
| 2009-06-01T06:00 | 6482 | 449 | -23.8 | -33.5 | 52 | 15 | |
| 2009-06-01T06:00 | 6507 | 448 | -24.1 | -33.5 | 53 | 15 | |
| 2009-06-01T06:00 | 6529 | 447 | -24.1 | -34.0 | 52 | 15 | |
| 2009-06-01T06:00 | 6551 | 445 | -24.4 | -34.5 | 51 | 15 | |
| 2009-06-01T06:00 | 6579 | 443 | -24.6 | -34.7 | 50 | 15 | |
| 2009-06-01T06:00 | 6607 | 442 | -24.9 | -35.0 | 48 | 15 | |
| 2009-06-01T06:00 | 6633 | 440 | -25.1 | -35.2 | 47 | 15 | |
| 2009-06-01T06:00 | 6655 | 439 | -25.3 | -35.1 | 48 | 15 | |
| 2009-06-01T06:00 | 6682 | 437 | -25.5 | -35.5 | 49 | 15 | |
| 2009-06-01T06:00 | 6711 | 436 | -25.7 | -35.7 | 50 | 16 | |
| 2009-06-01T06:00 | 6733 | 434 | -25.8 | -36.4 | 50 | 16 | |
| 2009-06-01T06:00 | 6763 | 432 | -26.0 | -36.5 | 50 | 16 | |
| 2009-06-01T06:00 | 6791 | 431 | -26.3 | -36.8 | 48 | 16 | |
| 2009-06-01T06:00 | 6815 | 429 | -26.5 | -36.7 | 47 | 16 | |
| 2009-06-01T06:00 | 6836 | 428 | -26.7 | -36.7 | 45 | 16 | |
| 2009-06-01T06:00 | 6863 | 426 | -26.9 | -36.8 | 45 | 15 | |
| 2009-06-01T06:00 | 6887 | 425 | -27.2 | -36.9 | 45 | 15 | |
| 2009-06-01T06:00 | 6908 | 424 | -27.4 | -37.0 | 47 | 15 | |
| 2009-06-01T06:00 | 6934 | 422 | -27.6 | -37.5 | 49 | 16 | |
| 2009-06-01T06:00 | 6966 | 420 | -27.9 | -37.8 | 51 | 16 | |
| 2009-06-01T06:00 | 6998 | 419 | -28.2 | -38.6 | 53 | 16 | |
| 2009-06-01T06:00 | 7023 | 417 | -28.3 | -38.7 | 53 | 17 | |
| 2009-06-01T06:00 | 7051 | 415 | -28.3 | -41.8 | 54 | 17 | |
| 2009-06-01T06:00 | 7080 | 414 | -28.4 | -43.6 | 53 | 17 | |
| 2009-06-01T06:00 | 7103 | 412 | -28.6 | -43.8 | 52 | 17 | |
| 2009-06-01T06:00 | 7126 | 411 | -28.7 | -43.8 | 51 | 17 | |
| 2009-06-01T06:00 | 7149 | 410 | -28.9 | -44.5 | 50 | 16 | |
| 2009-06-01T06:00 | 7175 | 408 | -29.1 | -44.7 | 49 | 16 | |
| 2009-06-01T06:00 | 7201 | 407 | -29.3 | -44.8 | 49 | 16 | |
| 2009-06-01T06:00 | 7229 | 405 | -29.6 | -44.6 | 51 | 16 | |
| 2009-06-01T06:00 | 7258 | 404 | -30.0 | -45.0 | 53 | 16 | |
| 2009-06-01T06:00 | 7280 | 402 | -30.2 | -44.7 | 54 | 16 | |
| 2009-06-01T06:00 | 7310 | 401 | -30.4 | -44.9 | 55 | 16 | |
| 2009-06-01T06:00 | 7342 | 399 | -30.7 | -45.2 | 56 | 16 | |
| 2009-06-01T06:00 | 7376 | 397 | -31.1 | -45.1 | 57 | 16 | |
| 2009-06-01T06:00 | 7404 | 395 | -31.4 | -45.4 | 58 | 16 | |
| 2009-06-01T06:00 | 7435 | 394 | -31.7 | -45.2 | 59 | 16 | |
| 2009-06-01T06:00 | 7464 | 392 | -31.9 | -45.1 | 59 | 16 | |
| 2009-06-01T06:00 | 7489 | 391 | -32.2 | -45.3 | 60 | 17 | |
| 2009-06-01T06:00 | 7520 | 389 | -32.4 | -45.5 | 60 | 17 | |
| 2009-06-01T06:00 | 7546 | 387 | -32.7 | -45.4 | 59 | 18 | |
| 2009-06-01T06:00 | 7571 | 386 | -32.9 | -45.2 | 59 | 18 | |
| 2009-06-01T06:00 | 7599 | 385 | -33.2 | -45.5 | 58 | 18 | |
| 2009-06-01T06:00 | 7622 | 383 | -33.4 | -45.4 | 57 | 18 | |
| 2009-06-01T06:00 | 7647 | 382 | -33.7 | -45.6 | 56 | 18 | |
| 2009-06-01T06:00 | 7669 | 381 | -33.9 | -45.5 | 56 | 18 | |
| 2009-06-01T06:00 | 7692 | 380 | -34.1 | -45.7 | 55 | 18 | |
| 2009-06-01T06:00 | 7720 | 378 | -34.4 | -46.0 | 55 | 18 | |
| 2009-06-01T06:00 | 7748 | 376 | -34.7 | -45.9 | 56 | 18 | |
| 2009-06-01T06:00 | 7777 | 375 | -35.0 | -45.9 | 57 | 18 | |
| 2009-06-01T06:00 | 7803 | 374 | -35.2 | -45.8 | 58 | 18 | |
| 2009-06-01T06:00 | 7830 | 372 | -35.5 | -46.1 | 60 | 18 | |
| 2009-06-01T06:00 | 7861 | 370 | -35.8 | -46.1 | 61 | 19 | |
| 2009-06-01T06:00 | 7888 | 369 | -36.0 | -46.0 | 63 | 19 | |
| 2009-06-01T06:00 | 7916 | 367 | -36.3 | 64 | 19 | ||
| 2009-06-01T06:00 | 7937 | 366 | -36.5 | -46.4 | 65 | 19 | |
| 2009-06-01T06:00 | 7954 | 365 | -36.7 | -46.4 | 66 | 19 | |
| 2009-06-01T06:00 | 7977 | 364 | -36.8 | -46.5 | 67 | 19 | |
| 2009-06-01T06:00 | 8000 | 363 | -37.1 | -46.7 | 68 | 19 | |
| 2009-06-01T06:00 | 8022 | 362 | -37.3 | -46.9 | 68 | 19 | |
| 2009-06-01T06:00 | 8048 | 361 | -37.5 | -46.9 | 68 | 20 | |
| 2009-06-01T06:00 | 8066 | 360 | -37.7 | -47.0 | 68 | 20 | |
| 2009-06-01T06:00 | 8083 | 359 | -37.8 | -47.1 | 67 | 20 | |
| 2009-06-01T06:00 | 8100 | 358 | -38.0 | -47.6 | 67 | 20 | |
| 2009-06-01T06:00 | 8119 | 357 | -38.2 | -47.8 | 66 | 19 | |
| 2009-06-01T06:00 | 8142 | 356 | -38.4 | -47.9 | 66 | 19 | |
| 2009-06-01T06:00 | 8163 | 355 | -38.6 | -48.1 | 66 | 19 | |
| 2009-06-01T06:00 | 8182 | 354 | -38.7 | -48.5 | 66 | 19 | |
| 2009-06-01T06:00 | 8202 | 353 | -38.8 | -49.4 | 65 | 18 | |
| 2009-06-01T06:00 | 8220 | 352 | -38.6 | -50.4 | 63 | 18 | |
| 2009-06-01T06:00 | 8241 | 351 | -38.7 | -51.5 | 61 | 19 | |
| 2009-06-01T06:00 | 8264 | 349 | -38.8 | -51.6 | 58 | 19 | |
| 2009-06-01T06:00 | 8288 | 348 | -39.1 | -51.9 | 55 | 19 | |
| 2009-06-01T06:00 | 8310 | 347 | -39.2 | -52.3 | 52 | 19 | |
| 2009-06-01T06:00 | 8339 | 346 | -39.2 | -51.9 | 50 | 19 | |
| 2009-06-01T06:00 | 8373 | 344 | -39.4 | -52.1 | 49 | 18 | |
| 2009-06-01T06:00 | 8404 | 342 | -39.7 | -52.4 | 48 | 18 | |
| 2009-06-01T06:00 | 8434 | 341 | -40.0 | -52.3 | 48 | 17 | |
| 2009-06-01T06:00 | 8462 | 339 | -40.3 | -52.2 | 48 | 17 | |
| 2009-06-01T06:00 | 8486 | 338 | -40.5 | -52.4 | 48 | 17 | |
| 2009-06-01T06:00 | 8511 | 337 | -40.8 | -52.4 | 48 | 17 | |
| 2009-06-01T06:00 | 8533 | 336 | -41.0 | -52.5 | 48 | 17 | |
| 2009-06-01T06:00 | 8558 | 335 | -41.3 | -52.5 | 47 | 17 | |
| 2009-06-01T06:00 | 8583 | 333 | -41.5 | -52.7 | 45 | 17 | |
| 2009-06-01T06:00 | 8609 | 332 | -41.8 | -52.7 | 44 | 17 | |
| 2009-06-01T06:00 | 8634 | 331 | -42.0 | -52.6 | 42 | 17 | |
| 2009-06-01T06:00 | 8660 | 330 | -42.3 | -52.8 | 40 | 17 | |
| 2009-06-01T06:00 | 8680 | 329 | -42.4 | -52.6 | 39 | 17 | |
| 2009-06-01T06:00 | 8709 | 327 | -42.7 | -52.7 | 38 | 17 | |
| 2009-06-01T06:00 | 8737 | 326 | -43.0 | -52.7 | 36 | 17 | |
| 2009-06-01T06:00 | 8760 | 325 | -43.2 | -52.4 | 35 | 17 | |
| 2009-06-01T06:00 | 8788 | 323 | -43.4 | -52.5 | 35 | 17 | |
| 2009-06-01T06:00 | 8818 | 322 | -43.8 | -52.7 | 36 | 18 | |
| 2009-06-01T06:00 | 8840 | 321 | -44.0 | -52.6 | 37 | 18 | |
| 2009-06-01T06:00 | 8869 | 320 | -44.3 | -52.9 | 39 | 18 | |
| 2009-06-01T06:00 | 8901 | 318 | -44.6 | -52.7 | 41 | 18 | |
| 2009-06-01T06:00 | 8929 | 317 | -44.8 | -52.9 | 42 | 18 | |
| 2009-06-01T06:00 | 8955 | 315 | -45.0 | -52.9 | 43 | 17 | |
| 2009-06-01T06:00 | 8983 | 314 | -45.4 | 43 | 17 | ||
| 2009-06-01T06:00 | 9010 | 313 | -45.7 | -53.2 | 44 | 17 | |
| 2009-06-01T06:00 | 9034 | 312 | -45.9 | -53.2 | 44 | 17 | |
| 2009-06-01T06:00 | 9061 | 311 | -46.1 | -53.2 | 45 | 17 | |
| 2009-06-01T06:00 | 9090 | 309 | -46.4 | -53.2 | 46 | 18 | |
| 2009-06-01T06:00 | 9120 | 308 | -46.7 | -53.4 | 47 | 18 | |
| 2009-06-01T06:00 | 9148 | 306 | -46.9 | -53.4 | 47 | 19 | |
| 2009-06-01T06:00 | 9177 | 305 | -47.2 | -53.5 | 46 | 19 | |
| 2009-06-01T06:00 | 9208 | 304 | -47.5 | -53.6 | 45 | 18 | |
| 2009-06-01T06:00 | 9235 | 302 | -47.7 | -53.6 | 44 | 18 | |
| 2009-06-01T06:00 | 9261 | 301 | -47.9 | -53.6 | 44 | 18 | |
| 2009-06-01T06:00 | 9289 | 300 | -48.1 | -53.7 | 45 | 18 | |
| 2009-06-01T06:00 | 9318 | 299 | -48.4 | -53.7 | 46 | 18 | |
| 2009-06-01T06:00 | 9348 | 297 | -48.7 | -53.8 | 47 | 19 | |
| 2009-06-01T06:00 | 9373 | 296 | -48.9 | -53.8 | 49 | 19 | |
| 2009-06-01T06:00 | 9399 | 295 | -49.1 | -53.9 | 49 | 19 | |
| 2009-06-01T06:00 | 9430 | 294 | -49.4 | -54.0 | 49 | 19 | |
| 2009-06-01T06:00 | 9455 | 293 | -49.5 | -54.0 | 49 | 20 | |
| 2009-06-01T06:00 | 9482 | 291 | -49.8 | -54.3 | 50 | 20 | |
| 2009-06-01T06:00 | 9510 | 290 | -50.1 | -54.4 | 51 | 21 | |
| 2009-06-01T06:00 | 9537 | 289 | -50.3 | -54.6 | 52 | 21 | |
| 2009-06-01T06:00 | 9567 | 288 | -50.6 | -54.8 | 53 | 22 | |
| 2009-06-01T06:00 | 9597 | 286 | -50.8 | -55.0 | 53 | 22 | |
| 2009-06-01T06:00 | 9621 | 285 | -50.8 | -55.0 | 53 | 23 | |
| 2009-06-01T06:00 | 9642 | 284 | -50.9 | -55.2 | 53 | 22 | |
| 2009-06-01T06:00 | 9665 | 283 | -50.9 | -55.3 | 52 | 22 | |
| 2009-06-01T06:00 | 9687 | 282 | -51.0 | -55.8 | 52 | 22 | |
| 2009-06-01T06:00 | 9709 | 281 | -51.1 | -56.4 | 52 | 21 | |
| 2009-06-01T06:00 | 9732 | 280 | -51.3 | -57.0 | 52 | 21 | |
| 2009-06-01T06:00 | 9756 | 279 | -51.5 | -57.4 | 52 | 21 | |
| 2009-06-01T06:00 | 9783 | 278 | -51.7 | -57.7 | 52 | 21 | |
| 2009-06-01T06:00 | 9812 | 277 | -52.0 | -58.0 | 52 | 21 | |
| 2009-06-01T06:00 | 9836 | 276 | -52.2 | -58.2 | 52 | 21 | |
| 2009-06-01T06:00 | 9861 | 275 | -52.4 | -58.4 | 52 | 21 | |
| 2009-06-01T06:00 | 9886 | 274 | -52.7 | -58.5 | 52 | 21 | |
| 2009-06-01T06:00 | 9910 | 273 | -53.0 | -58.8 | 51 | 20 | |
| 2009-06-01T06:00 | 9939 | 272 | -53.2 | -58.8 | 50 | 20 | |
| 2009-06-01T06:00 | 9967 | 270 | -53.4 | -58.9 | 50 | 20 | |
| 2009-06-01T06:00 | 9998 | 269 | -53.7 | -59.0 | 49 | 20 | |
| 2009-06-01T06:00 | 10026 | 268 | -54.0 | -59.0 | 49 | 20 | |
| 2009-06-01T06:00 | 10048 | 267 | -54.2 | -59.0 | 49 | 20 | |
| 2009-06-01T06:00 | 10072 | 266 | -54.4 | -59.1 | 48 | 20 | |
| 2009-06-01T06:00 | 10096 | 265 | -54.6 | -59.3 | 49 | 20 | |
| 2009-06-01T06:00 | 10120 | 264 | -54.8 | -59.3 | 49 | 20 | |
| 2009-06-01T06:00 | 10143 | 263 | -55.0 | -59.4 | 50 | 20 | |
| 2009-06-01T06:00 | 10165 | 262 | -55.2 | -59.6 | 52 | 20 | |
| 2009-06-01T06:00 | 10197 | 261 | -55.4 | -59.7 | 53 | 20 | |
| 2009-06-01T06:00 | 10228 | 260 | -55.7 | -59.9 | 54 | 20 | |
| 2009-06-01T06:00 | 10254 | 258 | -55.8 | -59.9 | 53 | 20 | |
| 2009-06-01T06:00 | 10281 | 257 | -56.2 | -60.3 | 53 | 20 | |
| 2009-06-01T06:00 | 10305 | 256 | -56.3 | -60.5 | 52 | 20 | |
| 2009-06-01T06:00 | 10330 | 255 | -56.4 | -61.0 | 51 | 20 | |
| 2009-06-01T06:00 | 10353 | 254 | -56.6 | -61.3 | 52 | 20 | |
| 2009-06-01T06:00 | 10378 | 253 | -56.8 | -61.8 | 52 | 20 | |
| 2009-06-01T06:00 | 10403 | 252 | -57.0 | -62.1 | 52 | 20 | |
| 2009-06-01T06:00 | 10426 | 252 | -57.2 | -62.3 | 52 | 20 | |
| 2009-06-01T06:00 | 10449 | 251 | -57.3 | -62.2 | 52 | 20 | |
| 2009-06-01T06:00 | 10473 | 250 | -57.5 | -62.2 | 52 | 20 | |
| 2009-06-01T06:00 | 10497 | 249 | -57.7 | -62.3 | 51 | 20 | |
| 2009-06-01T06:00 | 10521 | 248 | -57.9 | -62.3 | 51 | 20 | |
| 2009-06-01T06:00 | 10545 | 247 | -58.0 | -62.5 | 51 | 20 | |
| 2009-06-01T06:00 | 10569 | 246 | -58.2 | -63.0 | 51 | 20 | |
| 2009-06-01T06:00 | 10593 | 245 | -58.4 | -63.5 | 52 | 20 | |
| 2009-06-01T06:00 | 10620 | 244 | -58.5 | -63.7 | 52 | 20 | |
| 2009-06-01T06:00 | 10644 | 243 | -58.5 | -63.9 | 51 | 20 | |
| 2009-06-01T06:00 | 10669 | 242 | -58.6 | -64.0 | 51 | 20 | |
| 2009-06-01T06:00 | 10695 | 241 | -58.8 | -64.0 | 50 | 20 | |
| 2009-06-01T06:00 | 10720 | 240 | -59.1 | -64.2 | 50 | 20 | |
| 2009-06-01T06:00 | 10744 | 239 | -59.2 | -64.1 | 49 | 20 | |
| 2009-06-01T06:00 | 10768 | 238 | -59.4 | -64.3 | 50 | 21 | |
| 2009-06-01T06:00 | 10791 | 237 | -59.5 | -64.4 | 50 | 21 | |
| 2009-06-01T06:00 | 10815 | 236 | -59.8 | -64.5 | 51 | 21 | |
| 2009-06-01T06:00 | 10839 | 236 | -59.5 | -64.4 | 53 | 21 | |
| 2009-06-01T06:00 | 10864 | 235 | -59.5 | -64.5 | 55 | 21 | |
| 2009-06-01T06:00 | 10889 | 234 | -59.2 | -64.5 | 56 | 22 | |
| 2009-06-01T06:00 | 10914 | 233 | -58.4 | -64.2 | 57 | 22 | |
| 2009-06-01T06:00 | 10937 | 232 | -57.5 | -63.9 | 58 | 23 | |
| 2009-06-01T06:00 | 10960 | 231 | -57.3 | -64.4 | 58 | 23 | |
| 2009-06-01T06:00 | 10983 | 230 | -57.3 | -65.0 | 59 | 24 | |
| 2009-06-01T06:00 | 11006 | 229 | -57.3 | -65.6 | 59 | 24 | |
| 2009-06-01T06:00 | 11029 | 229 | -57.3 | -66.1 | 61 | 24 | |
| 2009-06-01T06:00 | 11051 | 228 | -57.3 | -66.5 | 62 | 24 | |
| 2009-06-01T06:00 | 11074 | 227 | -57.4 | -67.1 | 63 | 24 | |
| 2009-06-01T06:00 | 11097 | 226 | -57.3 | -67.3 | 64 | 24 | |
| 2009-06-01T06:00 | 11118 | 225 | -57.2 | -67.5 | 66 | 24 | |
| 2009-06-01T06:00 | 11142 | 224 | -57.3 | -68.2 | 67 | 24 | |
| 2009-06-01T06:00 | 11166 | 224 | -57.3 | -68.5 | 68 | 23 | |
| 2009-06-01T06:00 | 11189 | 223 | -57.3 | -68.9 | 69 | 23 | |
| 2009-06-01T06:00 | 11213 | 222 | -57.2 | -68.8 | 69 | 22 | |
| 2009-06-01T06:00 | 11238 | 221 | -57.2 | -69.1 | 70 | 21 | |
| 2009-06-01T06:00 | 11260 | 220 | -57.2 | -69.5 | 71 | 20 | |
| 2009-06-01T06:00 | 11282 | 220 | -57.1 | -69.4 | 72 | 18 | |
| 2009-06-01T06:00 | 11305 | 219 | -56.8 | -69.5 | 73 | 17 | |
| 2009-06-01T06:00 | 11327 | 218 | -56.0 | -69.2 | 73 | 16 | |
| 2009-06-01T06:00 | 11348 | 217 | -55.5 | -69.7 | 74 | 15 | |
| 2009-06-01T06:00 | 11369 | 217 | -55.1 | -69.8 | 73 | 14 | |
| 2009-06-01T06:00 | 11392 | 216 | -54.6 | -69.9 | 72 | 13 | |
| 2009-06-01T06:00 | 11415 | 215 | -53.6 | -70.3 | 71 | 12 | |
| 2009-06-01T06:00 | 11439 | 214 | -53.3 | -70.7 | 69 | 12 | |
| 2009-06-01T06:00 | 11465 | 213 | -53.2 | -71.4 | 67 | 11 | |
| 2009-06-01T06:00 | 11488 | 213 | -53.1 | -72.2 | 64 | 11 | |
| 2009-06-01T06:00 | 11511 | 212 | -53.0 | -72.2 | 60 | 11 | |
| 2009-06-01T06:00 | 11535 | 211 | -53.0 | -73.2 | 55 | 11 | |
| 2009-06-01T06:00 | 11559 | 210 | -52.6 | -72.8 | 51 | 12 | |
| 2009-06-01T06:00 | 11583 | 210 | -52.4 | -73.9 | 47 | 12 | |
| 2009-06-01T06:00 | 11608 | 209 | -52.6 | -74.0 | 43 | 13 | |
| 2009-06-01T06:00 | 11632 | 208 | -52.6 | -75.5 | 41 | 13 | |
| 2009-06-01T06:00 | 11655 | 207 | -52.7 | -75.5 | 39 | 13 | |
| 2009-06-01T06:00 | 11678 | 206 | -52.8 | -75.6 | 38 | 13 | |
| 2009-06-01T06:00 | 11702 | 206 | -52.9 | -77.5 | 37 | 13 | |
| 2009-06-01T06:00 | 11727 | 205 | -53.1 | -77.7 | 36 | 13 | |
| 2009-06-01T06:00 | 11752 | 204 | -53.3 | -77.8 | 35 | 13 | |
| 2009-06-01T06:00 | 11776 | 203 | -53.5 | -78.0 | 35 | 13 | |
| 2009-06-01T06:00 | 11799 | 203 | -53.4 | -77.9 | 34 | 14 | |
| 2009-06-01T06:00 | 11823 | 202 | -53.5 | -78.0 | 34 | 14 | |
| 2009-06-01T06:00 | 11847 | 201 | -53.6 | -78.1 | 34 | 14 | |
| 2009-06-01T06:00 | 11871 | 200 | -53.8 | -78.2 | 35 | 14 | |
| 2009-06-01T06:00 | 11896 | 200 | -53.8 | -78.2 | 36 | 14 | |
| 2009-06-01T06:00 | 11921 | 199 | -54.0 | -78.4 | 39 | 14 | |
| 2009-06-01T06:00 | 11948 | 198 | -53.8 | -78.2 | 42 | 14 | |
| 2009-06-01T06:00 | 11975 | 197 | -53.7 | -80.6 | 45 | 14 | |
| 2009-06-01T06:00 | 12005 | 196 | -53.7 | -80.6 | 47 | 14 | |
| 2009-06-01T06:00 | 12031 | 195 | -53.9 | -80.8 | 49 | 13 | |
| 2009-06-01T06:00 | 12055 | 195 | -53.4 | -80.4 | 50 | 13 | |
| 2009-06-01T06:00 | 12078 | 194 | -53.2 | -80.2 | 50 | 12 | |
| 2009-06-01T06:00 | 12101 | 193 | -53.3 | -80.3 | 49 | 12 | |
| 2009-06-01T06:00 | 12123 | 193 | -53.2 | -80.2 | 47 | 11 | |
| 2009-06-01T06:00 | 12146 | 192 | -53.2 | -84.4 | 46 | 11 | |
| 2009-06-01T06:00 | 12170 | 191 | -53.2 | -84.4 | 45 | 11 | |
| 2009-06-01T06:00 | 12191 | 191 | -53.2 | -84.4 | 44 | 11 | |
| 2009-06-01T06:00 | 12213 | 190 | -53.3 | -84.4 | 44 | 10 | |
| 2009-06-01T06:00 | 12235 | 189 | -53.3 | -84.4 | 44 | 10 | |
| 2009-06-01T06:00 | 12257 | 189 | -53.3 | -84.4 | 43 | 10 | |
| 2009-06-01T06:00 | 12280 | 188 | -53.4 | -84.5 | 43 | 9 | |
| 2009-06-01T06:00 | 12302 | 187 | -53.1 | -84.3 | 43 | 9 | |
| 2009-06-01T06:00 | 12325 | 187 | -52.8 | -84.1 | 42 | 9 | |
| 2009-06-01T06:00 | 12347 | 186 | -52.7 | -84.0 | 42 | 9 | |
| 2009-06-01T06:00 | 12370 | 185 | -52.6 | -83.9 | 42 | 8 | |
| 2009-06-01T06:00 | 12393 | 185 | -52.7 | -84.0 | 42 | 8 | |
| 2009-06-01T06:00 | 12416 | 184 | -52.2 | -83.6 | 42 | 8 | |
| 2009-06-01T06:00 | 12440 | 183 | -51.8 | -83.3 | 43 | 9 | |
| 2009-06-01T06:00 | 12463 | 183 | -51.9 | -83.4 | 43 | 9 | |
| 2009-06-01T06:00 | 12486 | 182 | -52.0 | -83.5 | 45 | 9 | |
| 2009-06-01T06:00 | 12509 | 181 | -51.9 | -83.4 | 47 | 9 | |
| 2009-06-01T06:00 | 12531 | 181 | -51.9 | -83.4 | 49 | 9 | |
| 2009-06-01T06:00 | 12554 | 180 | -51.5 | -83.1 | 52 | 9 | |
| 2009-06-01T06:00 | 12578 | 180 | -51.4 | -83.0 | 55 | 9 | |
| 2009-06-01T06:00 | 12601 | 179 | -51.3 | -82.9 | 58 | 9 | |
| 2009-06-01T06:00 | 12624 | 178 | -51.3 | -82.9 | 60 | 8 | |
| 2009-06-01T06:00 | 12648 | 178 | -51.5 | -83.1 | 61 | 8 | |
| 2009-06-01T06:00 | 12674 | 177 | -51.6 | -83.2 | 62 | 8 | |
| 2009-06-01T06:00 | 12699 | 176 | -51.6 | -83.2 | 62 | 8 | |
| 2009-06-01T06:00 | 12721 | 176 | -51.5 | -83.1 | 61 | 8 | |
| 2009-06-01T06:00 | 12743 | 175 | -51.5 | -83.1 | 60 | 8 | |
| 2009-06-01T06:00 | 12766 | 174 | -51.6 | -83.2 | 59 | 8 | |
| 2009-06-01T06:00 | 12789 | 174 | -51.7 | -83.2 | 57 | 8 | |
| 2009-06-01T06:00 | 12813 | 173 | -51.8 | -83.3 | 54 | 8 | |
| 2009-06-01T06:00 | 12835 | 173 | -51.9 | -83.4 | 52 | 8 | |
| 2009-06-01T06:00 | 12860 | 172 | -52.1 | -83.5 | 50 | 8 | |
| 2009-06-01T06:00 | 12883 | 171 | -52.3 | -83.7 | 49 | 8 | |
| 2009-06-01T06:00 | 12906 | 171 | -52.3 | -83.7 | 48 | 8 | |
| 2009-06-01T06:00 | 12928 | 170 | -52.3 | -83.7 | 46 | 8 | |
| 2009-06-01T06:00 | 12951 | 169 | -52.1 | -83.5 | 45 | 8 | |
| 2009-06-01T06:00 | 12973 | 169 | -51.8 | -83.3 | 43 | 7 | |
| 2009-06-01T06:00 | 12996 | 168 | -51.9 | -83.4 | 42 | 7 | |
| 2009-06-01T06:00 | 13019 | 168 | -51.6 | -83.2 | 42 | 7 | |
| 2009-06-01T06:00 | 13042 | 167 | -51.5 | -83.1 | 43 | 7 | |
| 2009-06-01T06:00 | 13065 | 167 | -51.5 | -83.1 | 45 | 7 | |
| 2009-06-01T06:00 | 13089 | 166 | -51.5 | -83.1 | 48 | 7 | |
| 2009-06-01T06:00 | 13111 | 165 | -51.5 | -83.1 | 50 | 7 | |
| 2009-06-01T06:00 | 13135 | 165 | -51.3 | -82.9 | 51 | 7 | |
| 2009-06-01T06:00 | 13158 | 164 | -51.4 | -83.0 | 52 | 6 | |
| 2009-06-01T06:00 | 13182 | 164 | -51.5 | -83.1 | 51 | 6 | |
| 2009-06-01T06:00 | 13205 | 163 | -51.7 | -83.2 | 51 | 6 | |
| 2009-06-01T06:00 | 13229 | 162 | -51.8 | -83.3 | 52 | 6 | |
| 2009-06-01T06:00 | 13251 | 162 | -51.8 | -83.3 | 52 | 6 | |
| 2009-06-01T06:00 | 13274 | 161 | -51.9 | -83.4 | 53 | 6 | |
| 2009-06-01T06:00 | 13298 | 161 | -51.9 | -83.4 | 54 | 5 | |
| 2009-06-01T06:00 | 13320 | 160 | -51.8 | -83.3 | 53 | 5 | |
| 2009-06-01T06:00 | 13343 | 160 | -51.8 | -83.3 | 52 | 5 | |
| 2009-06-01T06:00 | 13365 | 159 | -51.8 | -83.3 | 51 | 4 | |
| 2009-06-01T06:00 | 13388 | 158 | -51.8 | -83.3 | 48 | 4 | |
| 2009-06-01T06:00 | 13412 | 158 | -51.4 | -83.0 | 44 | 4 | |
| 2009-06-01T06:00 | 13436 | 157 | -51.5 | -83.1 | 37 | 3 | |
| 2009-06-01T06:00 | 13459 | 157 | -51.6 | -83.2 | 28 | 3 | |
| 2009-06-01T06:00 | 13485 | 156 | -51.8 | -83.3 | 22 | 3 | |
| 2009-06-01T06:00 | 13515 | 155 | -51.9 | -83.4 | 18 | 4 | |
| 2009-06-01T06:00 | 13547 | 155 | -51.9 | -83.4 | 18 | 4 | |
| 2009-06-01T06:00 | 13574 | 154 | -51.8 | -83.3 | 20 | 5 | |
| 2009-06-01T06:00 | 13596 | 153 | -51.9 | -83.4 | 23 | 5 | |
| 2009-06-01T06:00 | 13620 | 153 | -51.9 | -83.4 | 26 | 5 | |
| 2009-06-01T06:00 | 13644 | 152 | -52.0 | -83.5 | 29 | 5 | |
| 2009-06-01T06:00 | 13667 | 152 | -51.8 | -83.3 | 32 | 5 | |
| 2009-06-01T06:00 | 13690 | 151 | -51.8 | -83.3 | 35 | 4 | |
| 2009-06-01T06:00 | 13713 | 151 | -51.7 | -83.2 | 38 | 4 | |
| 2009-06-01T06:00 | 13736 | 150 | -51.6 | -83.2 | 40 | 3 | |
| 2009-06-01T06:00 | 13759 | 150 | -51.8 | -83.3 | 42 | 3 | |
| 2009-06-01T06:00 | 13782 | 149 | -51.9 | -83.4 | 42 | 2 | |
| 2009-06-01T06:00 | 13806 | 149 | -52.0 | -83.5 | 41 | 2 | |
| 2009-06-01T06:00 | 13829 | 148 | -51.8 | -83.3 | 38 | 2 | |
| 2009-06-01T06:00 | 13852 | 147 | -51.8 | -83.3 | 36 | 3 | |
| 2009-06-01T06:00 | 13876 | 147 | -51.8 | -83.3 | 34 | 3 | |
| 2009-06-01T06:00 | 13899 | 146 | -51.8 | -83.3 | 33 | 3 | |
| 2009-06-01T06:00 | 13923 | 146 | -51.6 | -83.2 | 33 | 4 | |
| 2009-06-01T06:00 | 13946 | 145 | -51.2 | -82.9 | 33 | 4 | |
| 2009-06-01T06:00 | 13969 | 145 | -51.3 | -82.9 | 33 | 3 | |
| 2009-06-01T06:00 | 13991 | 144 | -51.2 | -82.9 | 34 | 3 | |
| 2009-06-01T06:00 | 14014 | 144 | -51.1 | -82.8 | 34 | 3 | |
| 2009-06-01T06:00 | 14038 | 143 | -51.2 | -82.9 | 32 | 2 | |
| 2009-06-01T06:00 | 14061 | 143 | -50.9 | -82.7 | 28 | 2 | |
| 2009-06-01T06:00 | 14084 | 142 | -50.9 | -82.7 | 20 | 1 | |
| 2009-06-01T06:00 | 14107 | 142 | -50.9 | -82.7 | 9 | 1 | |
| 2009-06-01T06:00 | 14130 | 141 | -51.0 | -82.7 | 0 | 0 | |
| 2009-06-01T06:00 | 14157 | 141 | -51.1 | -82.8 | 0 | 0 | |
| 2009-06-01T06:00 | 14182 | 140 | -51.2 | -82.9 | 0 | 0 | |
| 2009-06-01T06:00 | 14208 | 140 | -51.2 | -82.9 | 0 | 0 | |
| 2009-06-01T06:00 | 14231 | 139 | -51.2 | -82.9 | 360 | 1 | |
| 2009-06-01T06:00 | 14254 | 139 | -51.3 | -82.9 | 131 | 1 | |
| 2009-06-01T06:00 | 14278 | 138 | -51.4 | -83.0 | 113 | 1 | |
| 2009-06-01T06:00 | 14301 | 138 | -51.4 | -83.0 | 93 | 1 | |
| 2009-06-01T06:00 | 14324 | 137 | -51.4 | -83.0 | 75 | 1 | |
| 2009-06-01T06:00 | 14348 | 137 | -51.5 | -83.1 | 59 | 1 | |
| 2009-06-01T06:00 | 14371 | 136 | -51.6 | -83.2 | 41 | 1 | |
| 2009-06-01T06:00 | 14395 | 136 | -51.7 | -83.2 | 21 | 1 | |
| 2009-06-01T06:00 | 14419 | 135 | -51.8 | -83.3 | 5 | 1 | |
| 2009-06-01T06:00 | 14443 | 135 | -51.9 | -83.4 | 358 | 1 | |
| 2009-06-01T06:00 | 14467 | 134 | -51.9 | -83.4 | 358 | 2 | |
| 2009-06-01T06:00 | 14492 | 134 | -52.0 | -83.5 | 3 | 2 | |
| 2009-06-01T06:00 | 14516 | 133 | -52.0 | -83.5 | 10 | 2 | |
| 2009-06-01T06:00 | 14540 | 133 | -52.0 | -83.5 | 18 | 3 | |
| 2009-06-01T06:00 | 14564 | 132 | -52.2 | -83.6 | 25 | 3 | |
| 2009-06-01T06:00 | 14587 | 132 | -52.3 | -83.7 | 32 | 3 | |
| 2009-06-01T06:00 | 14612 | 131 | -52.4 | -83.8 | 37 | 3 | |
| 2009-06-01T06:00 | 14635 | 131 | -52.6 | -83.9 | 42 | 4 | |
| 2009-06-01T06:00 | 14659 | 130 | -52.6 | -83.9 | 45 | 4 | |
| 2009-06-01T06:00 | 14684 | 130 | -52.4 | -83.8 | 47 | 3 | |
| 2009-06-01T06:00 | 14708 | 129 | -52.2 | -83.6 | 47 | 3 | |
| 2009-06-01T06:00 | 14732 | 129 | -52.5 | -83.8 | 47 | 3 | |
| 2009-06-01T06:00 | 14755 | 128 | -52.6 | -83.9 | 47 | 3 | |
| 2009-06-01T06:00 | 14780 | 128 | -52.8 | -84.1 | 47 | 3 | |
| 2009-06-01T06:00 | 14802 | 127 | -52.9 | -84.1 | 47 | 3 | |
| 2009-06-01T06:00 | 14826 | 127 | -53.0 | -84.2 | 47 | 2 | |
| 2009-06-01T06:00 | 14848 | 126 | -53.0 | -84.2 | 46 | 2 | |
| 2009-06-01T06:00 | 14873 | 126 | -53.0 | -84.2 | 43 | 2 | |
| 2009-06-01T06:00 | 14897 | 126 | -52.9 | -84.1 | 38 | 2 | |
| 2009-06-01T06:00 | 14922 | 125 | -52.9 | -84.1 | 34 | 2 | |
| 2009-06-01T06:00 | 14946 | 125 | -52.9 | -84.1 | 31 | 3 | |
| 2009-06-01T06:00 | 14970 | 124 | -52.8 | -84.1 | 29 | 3 | |
| 2009-06-01T06:00 | 14995 | 124 | -52.9 | -84.1 | 28 | 3 | |
| 2009-06-01T06:00 | 15020 | 123 | -53.0 | -84.2 | 29 | 3 | |
| 2009-06-01T06:00 | 15044 | 123 | -53.2 | -84.4 | 31 | 4 | |
| 2009-06-01T06:00 | 15068 | 122 | -53.3 | -84.4 | 34 | 4 | |
| 2009-06-01T06:00 | 15092 | 122 | -53.4 | -84.5 | 38 | 4 | |
| 2009-06-01T06:00 | 15117 | 121 | -53.4 | -84.5 | 42 | 4 | |
| 2009-06-01T06:00 | 15142 | 121 | -53.4 | -84.5 | 45 | 4 | |
| 2009-06-01T06:00 | 15167 | 120 | -53.5 | -84.6 | 46 | 4 | |
| 2009-06-01T06:00 | 15193 | 120 | -53.5 | -84.6 | 47 | 4 | |
| 2009-06-01T06:00 | 15217 | 119 | -53.4 | -84.5 | 46 | 4 | |
| 2009-06-01T06:00 | 15241 | 119 | -53.4 | -84.5 | 44 | 4 | |
| 2009-06-01T06:00 | 15266 | 119 | -53.3 | -84.4 | 42 | 4 | |
| 2009-06-01T06:00 | 15290 | 118 | -53.3 | -84.4 | 40 | 4 | |
| 2009-06-01T06:00 | 15315 | 118 | -53.4 | -84.5 | 38 | 4 | |
| 2009-06-01T06:00 | 15340 | 117 | -53.5 | -84.6 | 37 | 3 | |
| 2009-06-01T06:00 | 15364 | 117 | -53.7 | -84.7 | 36 | 4 | |
| 2009-06-01T06:00 | 15387 | 116 | -53.8 | -84.8 | 34 | 4 | |
| 2009-06-01T06:00 | 15409 | 116 | -53.8 | -84.8 | 31 | 4 | |
| 2009-06-01T06:00 | 15434 | 115 | -53.7 | -84.7 | 28 | 4 | |
| 2009-06-01T06:00 | 15458 | 115 | -53.5 | -84.6 | 24 | 5 | |
| 2009-06-01T06:00 | 15482 | 115 | -53.5 | -84.6 | 22 | 5 | |
| 2009-06-01T06:00 | 15506 | 114 | -53.4 | -84.5 | 21 | 5 | |
| 2009-06-01T06:00 | 15529 | 114 | -53.2 | -84.4 | 21 | 5 | |
| 2009-06-01T06:00 | 15553 | 113 | -53.1 | -84.3 | 24 | 5 | |
| 2009-06-01T06:00 | 15577 | 113 | -53.3 | -84.4 | 28 | 5 | |
| 2009-06-01T06:00 | 15602 | 112 | -53.1 | -84.3 | 34 | 5 | |
| 2009-06-01T06:00 | 15626 | 112 | -53.3 | -84.4 | 40 | 5 | |
| 2009-06-01T06:00 | 15651 | 112 | -53.5 | -84.6 | 47 | 4 | |
| 2009-06-01T06:00 | 15675 | 111 | -53.5 | -84.6 | 53 | 4 | |
| 2009-06-01T06:00 | 15697 | 111 | -53.6 | -84.6 | 59 | 4 | |
| 2009-06-01T06:00 | 15721 | 110 | -53.5 | -84.6 | 66 | 4 | |
| 2009-06-01T06:00 | 15744 | 110 | -53.5 | -84.6 | 73 | 3 | |
| 2009-06-01T06:00 | 15768 | 110 | -53.5 | -84.6 | 80 | 3 | |
| 2009-06-01T06:00 | 15791 | 109 | -53.6 | -84.6 | 87 | 3 | |
| 2009-06-01T06:00 | 15815 | 109 | -53.5 | -84.6 | 90 | 2 | |
| 2009-06-01T06:00 | 15838 | 108 | -53.6 | -84.6 | 89 | 2 | |
| 2009-06-01T06:00 | 15862 | 108 | -53.6 | -84.6 | 83 | 2 | |
| 2009-06-01T06:00 | 15885 | 108 | -53.7 | -84.7 | 73 | 2 | |
| 2009-06-01T06:00 | 15909 | 107 | -53.7 | -84.7 | 63 | 2 | |
| 2009-06-01T06:00 | 15934 | 107 | -53.8 | -84.8 | 52 | 2 | |
| 2009-06-01T06:00 | 15958 | 106 | -53.9 | -84.9 | 40 | 2 | |
| 2009-06-01T06:00 | 15983 | 106 | -53.9 | -84.9 | 28 | 2 | |
| 2009-06-01T06:00 | 16006 | 106 | -53.9 | -84.9 | 16 | 2 | |
| 2009-06-01T06:00 | 16030 | 105 | -53.9 | -84.9 | 7 | 2 | |
| 2009-06-01T06:00 | 16054 | 105 | -53.9 | -84.9 | 359 | 2 | |
| 2009-06-01T06:00 | 16076 | 104 | -53.9 | -84.9 | 351 | 2 | |
| 2009-06-01T06:00 | 16102 | 104 | -54.0 | -84.9 | 344 | 2 | |
| 2009-06-01T06:00 | 16125 | 104 | -54.0 | -84.9 | 337 | 2 | |
| 2009-06-01T06:00 | 16150 | 103 | -54.1 | -85.0 | 330 | 3 | |
| 2009-06-01T06:00 | 16174 | 103 | -54.1 | -85.0 | 324 | 3 | |
| 2009-06-01T06:00 | 16199 | 103 | -54.0 | -84.9 | 318 | 3 | |
| 2009-06-01T06:00 | 16225 | 102 | -53.9 | -84.9 | 314 | 4 | |
| 2009-06-01T06:00 | 16249 | 102 | -53.8 | -84.8 | 311 | 4 | |
| 2009-06-01T06:00 | 16274 | 101 | -53.7 | -84.7 | 311 | 5 | |
| 2009-06-01T06:00 | 16298 | 101 | -53.7 | -84.7 | 313 | 5 | |
| 2009-06-01T06:00 | 16322 | 101 | -53.8 | -84.8 | 316 | 6 | |
| 2009-06-01T06:00 | 16345 | 100 | -53.9 | -84.9 | 320 | 6 | |
| 2009-06-01T06:00 | 16369 | 100 | -54.0 | -84.9 | 325 | 6 | |
| 2009-06-01T06:00 | 16393 | 99 | -54.0 | -84.9 | 331 | 6 | |
| 2009-06-01T06:00 | 16419 | 99 | -54.1 | -85.0 | 337 | 6 | |
| 2009-06-01T06:00 | 16444 | 99 | -54.2 | -85.1 | 342 | 6 | |
| 2009-06-01T06:00 | 16468 | 98 | -54.0 | -84.9 | 347 | 7 | |
| 2009-06-01T06:00 | 16494 | 98 | -54.0 | -84.9 | 350 | 7 | |
| 2009-06-01T06:00 | 16519 | 98 | -54.1 | -85.0 | 353 | 8 | |
| 2009-06-01T06:00 | 16544 | 97 | -54.2 | -85.1 | 356 | 8 | |
| 2009-06-01T06:00 | 16570 | 97 | -54.3 | -85.2 | 358 | 8 | |
| 2009-06-01T06:00 | 16596 | 96 | -54.4 | -85.2 | 1 | 8 | |
| 2009-06-01T06:00 | 16622 | 96 | -54.6 | -85.4 | 4 | 8 | |
| 2009-06-01T06:00 | 16648 | 96 | -54.6 | -85.4 | 7 | 8 | |
| 2009-06-01T06:00 | 16673 | 95 | -54.3 | -85.2 | 9 | 8 | |
| 2009-06-01T06:00 | 16698 | 95 | -54.2 | -85.1 | 12 | 7 | |
| 2009-06-01T06:00 | 16724 | 94 | -54.1 | -85.0 | 13 | 7 | |
| 2009-06-01T06:00 | 16749 | 94 | -54.1 | -85.0 | 15 | 7 | |
| 2009-06-01T06:00 | 16776 | 94 | -54.2 | -85.1 | 16 | 6 | |
| 2009-06-01T06:00 | 16802 | 93 | -54.3 | -85.2 | 17 | 6 | |
| 2009-06-01T06:00 | 16828 | 93 | -54.4 | -85.2 | 18 | 6 | |
| 2009-06-01T06:00 | 16855 | 93 | -54.5 | -85.3 | 19 | 6 | |
| 2009-06-01T06:00 | 16882 | 92 | -54.5 | -85.3 | 19 | 6 | |
| 2009-06-01T06:00 | 16908 | 92 | -54.6 | -85.4 | 18 | 6 | |
| 2009-06-01T06:00 | 16933 | 91 | -54.5 | -85.3 | 16 | 6 | |
| 2009-06-01T06:00 | 16958 | 91 | -54.5 | -85.3 | 15 | 6 | |
| 2009-06-01T06:00 | 16984 | 91 | -54.5 | -85.3 | 15 | 6 | |
| 2009-06-01T06:00 | 17009 | 90 | -54.6 | -85.4 | 17 | 6 | |
| 2009-06-01T06:00 | 17033 | 90 | -54.8 | -85.5 | 19 | 6 | |
| 2009-06-01T06:00 | 17058 | 90 | -54.9 | -85.6 | 22 | 6 | |
| 2009-06-01T06:00 | 17083 | 89 | -55.1 | -85.8 | 24 | 7 | |
| 2009-06-01T06:00 | 17107 | 89 | -55.3 | -85.9 | 27 | 7 | |
| 2009-06-01T06:00 | 17132 | 89 | -55.4 | -86.0 | 29 | 7 | |
| 2009-06-01T06:00 | 17156 | 88 | -55.4 | -86.0 | 30 | 7 | |
| 2009-06-01T06:00 | 17180 | 88 | -55.3 | -85.9 | 31 | 8 | |
| 2009-06-01T06:00 | 17203 | 88 | -55.3 | -85.9 | 31 | 8 | |
| 2009-06-01T06:00 | 17228 | 87 | -55.0 | -85.7 | 31 | 8 | |
| 2009-06-01T06:00 | 17254 | 87 | -54.9 | -85.6 | 31 | 8 | |
| 2009-06-01T06:00 | 17278 | 87 | -54.7 | -85.5 | 31 | 9 | |
| 2009-06-01T06:00 | 17304 | 86 | -54.2 | -85.1 | 32 | 9 | |
| 2009-06-01T06:00 | 17328 | 86 | -54.1 | -85.0 | 32 | 9 | |
| 2009-06-01T06:00 | 17353 | 86 | -54.0 | -84.9 | 33 | 9 | |
| 2009-06-01T06:00 | 17378 | 85 | -54.0 | -84.9 | 33 | 9 | |
| 2009-06-01T06:00 | 17401 | 85 | -54.0 | -84.9 | 34 | 8 | |
| 2009-06-01T06:00 | 17427 | 85 | -54.0 | -84.9 | 33 | 7 | |
| 2009-06-01T06:00 | 17452 | 84 | -53.9 | -84.9 | 32 | 6 | |
| 2009-06-01T06:00 | 17476 | 84 | -54.0 | -84.9 | 29 | 6 | |
| 2009-06-01T06:00 | 17502 | 84 | -54.0 | -84.9 | 25 | 5 | |
| 2009-06-01T06:00 | 17528 | 83 | -54.1 | -85.0 | 21 | 5 | |
| 2009-06-01T06:00 | 17555 | 83 | -54.3 | -85.2 | 18 | 4 | |
| 2009-06-01T06:00 | 17580 | 83 | -54.5 | -85.3 | 17 | 4 | |
| 2009-06-01T06:00 | 17606 | 82 | -54.5 | -85.3 | 17 | 4 | |
| 2009-06-01T06:00 | 17631 | 82 | -54.6 | -85.4 | 19 | 4 | |
| 2009-06-01T06:00 | 17656 | 82 | -54.7 | -85.5 | 21 | 4 | |
| 2009-06-01T06:00 | 17681 | 81 | -54.7 | -85.5 | 23 | 4 | |
| 2009-06-01T06:00 | 17706 | 81 | -54.7 | -85.5 | 24 | 4 | |
| 2009-06-01T06:00 | 17731 | 81 | -54.7 | -85.5 | 25 | 4 | |
| 2009-06-01T06:00 | 17757 | 80 | -54.7 | -85.5 | 26 | 4 | |
| 2009-06-01T06:00 | 17782 | 80 | -54.9 | -85.6 | 27 | 4 | |
| 2009-06-01T06:00 | 17808 | 80 | -54.7 | -85.5 | 29 | 4 | |
| 2009-06-01T06:00 | 17832 | 79 | -54.6 | -85.4 | 31 | 3 | |
| 2009-06-01T06:00 | 17857 | 79 | -54.4 | -85.2 | 34 | 3 | |
| 2009-06-01T06:00 | 17882 | 79 | -54.5 | -85.3 | 37 | 3 | |
| 2009-06-01T06:00 | 17908 | 79 | -54.4 | -85.2 | 40 | 3 | |
| 2009-06-01T06:00 | 17935 | 78 | -54.5 | -85.3 | 42 | 3 | |
| 2009-06-01T06:00 | 17961 | 78 | -54.6 | -85.4 | 42 | 3 | |
| 2009-06-01T06:00 | 17987 | 78 | -54.7 | -85.5 | 38 | 3 | |
| 2009-06-01T06:00 | 18012 | 77 | -54.9 | -85.6 | 33 | 3 | |
| 2009-06-01T06:00 | 18038 | 77 | -55.0 | -85.7 | 28 | 4 | |
| 2009-06-01T06:00 | 18065 | 77 | -55.1 | -85.8 | 24 | 4 | |
| 2009-06-01T06:00 | 18091 | 76 | -55.2 | -85.8 | 21 | 4 | |
| 2009-06-01T06:00 | 18116 | 76 | -55.2 | -85.8 | 20 | 4 | |
| 2009-06-01T06:00 | 18142 | 76 | -55.2 | -85.8 | 18 | 5 | |
| 2009-06-01T06:00 | 18167 | 75 | -55.2 | -85.8 | 17 | 5 | |
| 2009-06-01T06:00 | 18192 | 75 | -55.1 | -85.8 | 15 | 5 | |
| 2009-06-01T06:00 | 18218 | 75 | -54.8 | -85.5 | 14 | 6 | |
| 2009-06-01T06:00 | 18244 | 74 | -54.6 | -85.4 | 15 | 6 | |
| 2009-06-01T06:00 | 18269 | 74 | -54.6 | -85.4 | 16 | 7 | |
| 2009-06-01T06:00 | 18295 | 74 | -54.5 | -85.3 | 18 | 7 | |
| 2009-06-01T06:00 | 18319 | 74 | -54.6 | -85.4 | 21 | 7 | |
| 2009-06-01T06:00 | 18344 | 73 | -54.4 | -85.2 | 24 | 7 | |
| 2009-06-01T06:00 | 18370 | 73 | -54.2 | -85.1 | 27 | 7 | |
| 2009-06-01T06:00 | 18397 | 73 | -54.1 | -85.0 | 31 | 7 | |
| 2009-06-01T06:00 | 18422 | 72 | -54.3 | -85.2 | 34 | 7 | |
| 2009-06-01T06:00 | 18447 | 72 | -54.4 | -85.2 | 37 | 6 | |
| 2009-06-01T06:00 | 18471 | 72 | -54.6 | -85.4 | 39 | 6 | |
| 2009-06-01T06:00 | 18498 | 72 | -54.8 | -85.5 | 41 | 6 | |
| 2009-06-01T06:00 | 18524 | 71 | -54.9 | -85.6 | 42 | 6 | |
| 2009-06-01T06:00 | 18549 | 71 | -54.9 | -85.6 | 42 | 6 | |
| 2009-06-01T06:00 | 18575 | 71 | -54.9 | -85.6 | 42 | 6 | |
| 2009-06-01T06:00 | 18599 | 70 | -54.7 | -85.5 | 43 | 6 | |
| 2009-06-01T06:00 | 18624 | 70 | -54.7 | -85.5 | 44 | 6 | |
| 2009-06-01T06:00 | 18649 | 70 | -54.7 | -85.5 | 47 | 6 | |
| 2009-06-01T06:00 | 18674 | 70 | -54.7 | -85.5 | 51 | 6 | |
| 2009-06-01T06:00 | 18698 | 69 | -54.6 | -85.4 | 56 | 6 | |
| 2009-06-01T06:00 | 18725 | 69 | -54.5 | -85.3 | 61 | 6 | |
| 2009-06-01T06:00 | 18750 | 69 | -54.5 | -85.3 | 66 | 6 | |
| 2009-06-01T06:00 | 18775 | 69 | -54.7 | -85.5 | 71 | 6 | |
| 2009-06-01T06:00 | 18801 | 68 | -54.7 | -85.5 | 75 | 6 | |
| 2009-06-01T06:00 | 18829 | 68 | -54.7 | -85.5 | 78 | 5 | |
| 2009-06-01T06:00 | 18854 | 68 | -54.9 | -85.6 | 80 | 5 | |
| 2009-06-01T06:00 | 18880 | 67 | -55.0 | -85.7 | 81 | 5 | |
| 2009-06-01T06:00 | 18907 | 67 | -55.0 | -85.7 | 82 | 5 | |
| 2009-06-01T06:00 | 18932 | 67 | -55.2 | -85.8 | 82 | 5 | |
| 2009-06-01T06:00 | 18958 | 67 | -55.2 | -85.8 | 82 | 5 | |
| 2009-06-01T06:00 | 18985 | 66 | -55.3 | -85.9 | 82 | 5 | |
| 2009-06-01T06:00 | 19010 | 66 | -55.4 | -86.0 | 82 | 5 | |
| 2009-06-01T06:00 | 19037 | 66 | -55.2 | -85.8 | 82 | 5 | |
| 2009-06-01T06:00 | 19064 | 66 | -55.1 | -85.8 | 82 | 5 | |
| 2009-06-01T06:00 | 19089 | 65 | -54.9 | -85.6 | 84 | 5 | |
| 2009-06-01T06:00 | 19114 | 65 | -54.8 | -85.5 | 87 | 5 | |
| 2009-06-01T06:00 | 19139 | 65 | -54.7 | -85.5 | 93 | 4 | |
| 2009-06-01T06:00 | 19165 | 64 | -54.6 | -85.4 | 99 | 4 | |
| 2009-06-01T06:00 | 19191 | 64 | -54.4 | -85.2 | 105 | 4 | |
| 2009-06-01T06:00 | 19217 | 64 | -54.4 | -85.2 | 109 | 3 | |
| 2009-06-01T06:00 | 19243 | 64 | -54.6 | -85.4 | 109 | 3 | |
| 2009-06-01T06:00 | 19270 | 63 | -54.6 | -85.4 | 104 | 3 | |
| 2009-06-01T06:00 | 19297 | 63 | -54.4 | -85.2 | 94 | 2 | |
| 2009-06-01T06:00 | 19322 | 63 | -54.4 | -85.2 | 80 | 2 | |
| 2009-06-01T06:00 | 19348 | 63 | -54.2 | -85.1 | 67 | 3 | |
| 2009-06-01T06:00 | 19374 | 62 | -54.2 | -85.1 | 58 | 3 | |
| 2009-06-01T06:00 | 19399 | 62 | -54.2 | -85.1 | 52 | 3 | |
| 2009-06-01T06:00 | 19426 | 62 | -54.1 | -85.0 | 48 | 3 | |
| 2009-06-01T06:00 | 19454 | 62 | -54.3 | -85.2 | 45 | 4 | |
| 2009-06-01T06:00 | 19481 | 61 | -54.2 | -85.1 | 44 | 4 | |
| 2009-06-01T06:00 | 19509 | 61 | -54.2 | -85.1 | 45 | 4 | |
| 2009-06-01T06:00 | 19537 | 61 | -54.2 | -85.1 | 48 | 4 | |
| 2009-06-01T06:00 | 19565 | 61 | -54.2 | -85.1 | 52 | 4 | |
| 2009-06-01T06:00 | 19591 | 60 | -54.3 | -85.2 | 56 | 4 | |
| 2009-06-01T06:00 | 19619 | 60 | -54.4 | -85.2 | 59 | 4 | |
| 2009-06-01T06:00 | 19647 | 60 | -54.4 | -85.2 | 61 | 4 | |
| 2009-06-01T06:00 | 19675 | 60 | -54.3 | -85.2 | 62 | 4 | |
| 2009-06-01T06:00 | 19700 | 59 | -54.2 | -85.1 | 61 | 4 | |
| 2009-06-01T06:00 | 19728 | 59 | -54.1 | -85.0 | 58 | 4 | |
| 2009-06-01T06:00 | 19755 | 59 | -54.0 | -84.9 | 55 | 4 | |
| 2009-06-01T06:00 | 19780 | 59 | -53.7 | -84.7 | 53 | 5 | |
| 2009-06-01T06:00 | 19807 | 58 | -53.7 | -84.7 | 52 | 5 | |
| 2009-06-01T06:00 | 19833 | 58 | -53.8 | -84.8 | 52 | 5 | |
| 2009-06-01T06:00 | 19859 | 58 | -54.0 | -84.9 | 52 | 5 | |
| 2009-06-01T06:00 | 19886 | 58 | -54.1 | -85.0 | 53 | 5 | |
| 2009-06-01T06:00 | 19912 | 57 | -54.1 | -85.0 | 53 | 5 | |
| 2009-06-01T06:00 | 19938 | 57 | -54.3 | -85.2 | 54 | 4 | |
| 2009-06-01T06:00 | 19965 | 57 | -54.4 | -85.2 | 56 | 3 | |
| 2009-06-01T06:00 | 19991 | 57 | -54.2 | -85.1 | 59 | 3 | |
| 2009-06-01T06:00 | 20018 | 56 | -54.2 | -85.1 | 63 | 3 | |
| 2009-06-01T06:00 | 20044 | 56 | -54.3 | -85.2 | 67 | 3 | |
| 2009-06-01T06:00 | 20071 | 56 | -54.2 | -85.1 | 69 | 3 | |
| 2009-06-01T06:00 | 20097 | 56 | -54.2 | -85.1 | 72 | 3 | |
| 2009-06-01T06:00 | 20125 | 56 | -54.2 | -85.1 | 73 | 3 | |
| 2009-06-01T06:00 | 20152 | 55 | -54.3 | -85.2 | 74 | 4 | |
| 2009-06-01T06:00 | 20178 | 55 | -54.4 | -85.2 | 75 | 4 | |
| 2009-06-01T06:00 | 20205 | 55 | -54.6 | -85.4 | 75 | 5 | |
| 2009-06-01T06:00 | 20232 | 55 | -54.7 | -85.5 | 74 | 6 | |
| 2009-06-01T06:00 | 20258 | 54 | -54.7 | -85.5 | 74 | 6 | |
| 2009-06-01T06:00 | 20285 | 54 | -54.6 | -85.4 | 73 | 7 | |
| 2009-06-01T06:00 | 20313 | 54 | -54.6 | -85.4 | 73 | 7 | |
| 2009-06-01T06:00 | 20339 | 54 | -54.7 | -85.5 | 74 | 7 | |
| 2009-06-01T06:00 | 20365 | 53 | -54.7 | -85.5 | 74 | 7 | |
| 2009-06-01T06:00 | 20392 | 53 | -54.8 | -85.5 | 76 | 7 | |
| 2009-06-01T06:00 | 20418 | 53 | -54.8 | -85.5 | 78 | 8 | |
| 2009-06-01T06:00 | 20444 | 53 | -54.8 | -85.5 | 81 | 8 | |
| 2009-06-01T06:00 | 20471 | 53 | -54.6 | -85.4 | 84 | 8 | |
| 2009-06-01T06:00 | 20499 | 52 | -54.4 | -85.2 | 86 | 8 | |
| 2009-06-01T06:00 | 20527 | 52 | -54.3 | -85.2 | 88 | 8 | |
| 2009-06-01T06:00 | 20554 | 52 | -54.1 | -85.0 | 89 | 7 | |
| 2009-06-01T06:00 | 20581 | 52 | -54.2 | -85.1 | 89 | 7 | |
| 2009-06-01T06:00 | 20608 | 51 | -54.2 | -85.1 | 88 | 6 | |
| 2009-06-01T06:00 | 20636 | 51 | -54.1 | -85.0 | 88 | 6 | |
| 2009-06-01T06:00 | 20664 | 51 | -54.1 | -85.0 | 89 | 6 | |
| 2009-06-01T06:00 | 20690 | 51 | -54.0 | -84.9 | 91 | 5 | |
| 2009-06-01T06:00 | 20718 | 51 | -54.0 | -84.9 | 93 | 5 | |
| 2009-06-01T06:00 | 20744 | 50 | -53.9 | -84.9 | 94 | 5 | |
| 2009-06-01T06:00 | 20772 | 50 | -53.8 | -84.8 | 93 | 5 | |
| 2009-06-01T06:00 | 20799 | 50 | -53.8 | -84.8 | 91 | 5 | |
| 2009-06-01T06:00 | 20826 | 50 | -53.8 | -84.8 | 88 | 5 | |
| 2009-06-01T06:00 | 20852 | 50 | -53.8 | -84.8 | 84 | 5 | |
| 2009-06-01T06:00 | 20879 | 49 | -54.0 | -84.9 | 81 | 5 | |
| 2009-06-01T06:00 | 20909 | 49 | -54.1 | -85.0 | 78 | 4 | |
| 2009-06-01T06:00 | 20936 | 49 | -54.3 | -85.2 | 77 | 4 | |
| 2009-06-01T06:00 | 20962 | 49 | -54.3 | -85.2 | 78 | 4 | |
| 2009-06-01T06:00 | 20989 | 49 | -54.4 | -85.2 | 84 | 4 | |
| 2009-06-01T06:00 | 21016 | 48 | -54.4 | -85.2 | 91 | 4 | |
| 2009-06-01T06:00 | 21044 | 48 | -54.3 | -85.2 | 99 | 5 | |
| 2009-06-01T06:00 | 21069 | 48 | -54.4 | -85.2 | 107 | 5 | |
| 2009-06-01T06:00 | 21097 | 48 | -54.4 | -85.2 | 114 | 6 | |
| 2009-06-01T06:00 | 21125 | 48 | -54.6 | -85.4 | 120 | 7 | |
| 2009-06-01T06:00 | 21152 | 47 | -54.3 | -85.2 | 126 | 7 | |
| 2009-06-01T06:00 | 21180 | 47 | -54.1 | -85.0 | 132 | 8 | |
| 2009-06-01T06:00 | 21209 | 47 | -54.2 | -85.1 | 137 | 8 | |
| 2009-06-01T06:00 | 21236 | 47 | -54.3 | -85.2 | 141 | 8 | |
| 2009-06-01T06:00 | 21264 | 46 | -54.5 | -85.3 | 145 | 8 | |
| 2009-06-01T06:00 | 21293 | 46 | -54.4 | -85.2 | 147 | 7 | |
| 2009-06-01T06:00 | 21322 | 46 | -54.2 | -85.1 | 148 | 7 | |
| 2009-06-01T06:00 | 21350 | 46 | -54.3 | -85.2 | 148 | 6 | |
| 2009-06-01T06:00 | 21379 | 46 | -54.2 | -85.1 | 147 | 5 | |
| 2009-06-01T06:00 | 21408 | 45 | -54.2 | -85.1 | 145 | 5 | |
| 2009-06-01T06:00 | 21437 | 45 | -54.1 | -85.0 | 139 | 4 | |
| 2009-06-01T06:00 | 21464 | 45 | -54.1 | -85.0 | 130 | 4 | |
| 2009-06-01T06:00 | 21493 | 45 | -54.3 | -85.2 | 116 | 3 | |
| 2009-06-01T06:00 | 21521 | 45 | -54.3 | -85.2 | 99 | 3 | |
| 2009-06-01T06:00 | 21550 | 44 | -54.4 | -85.2 | 82 | 4 | |
| 2009-06-01T06:00 | 21579 | 44 | -54.3 | -85.2 | 69 | 4 | |
| 2009-06-01T06:00 | 21608 | 44 | -53.8 | -84.8 | 62 | 5 | |
| 2009-06-01T06:00 | 21636 | 44 | -53.7 | -84.7 | 58 | 5 | |
| 2009-06-01T06:00 | 21665 | 44 | -53.7 | -84.7 | 58 | 5 | |
| 2009-06-01T06:00 | 21693 | 43 | -53.8 | -84.8 | 60 | 5 | |
| 2009-06-01T06:00 | 21723 | 43 | -53.5 | -84.6 | 63 | 5 | |
| 2009-06-01T06:00 | 21752 | 43 | -53.4 | -84.5 | 67 | 5 | |
| 2009-06-01T06:00 | 21778 | 43 | -53.4 | -84.5 | 70 | 5 | |
| 2009-06-01T06:00 | 21807 | 43 | -53.3 | -84.4 | 72 | 5 | |
| 2009-06-01T06:00 | 21835 | 43 | -53.3 | -84.4 | 73 | 5 | |
| 2009-06-01T06:00 | 21864 | 42 | -53.2 | -84.4 | 73 | 5 | |
| 2009-06-01T06:00 | 21891 | 42 | -53.1 | -84.3 | 73 | 5 | |
| 2009-06-01T06:00 | 21922 | 42 | -53.1 | -84.3 | 74 | 5 | |
| 2009-06-01T06:00 | 21948 | 42 | -53.1 | -84.3 | 76 | 4 | |
| 2009-06-01T06:00 | 21975 | 42 | -53.2 | -84.4 | 81 | 4 | |
| 2009-06-01T06:00 | 22005 | 41 | -53.0 | -84.2 | 88 | 4 | |
| 2009-06-01T06:00 | 22034 | 41 | -53.2 | -84.4 | 98 | 3 | |
| 2009-06-01T06:00 | 22062 | 41 | -53.4 | -84.5 | 109 | 3 | |
| 2009-06-01T06:00 | 22092 | 41 | -53.5 | -84.6 | 119 | 3 | |
| 2009-06-01T06:00 | 22122 | 41 | -53.7 | -84.7 | 127 | 2 | |
| 2009-06-01T06:00 | 22149 | 41 | -53.5 | -84.6 | 133 | 2 | |
| 2009-06-01T06:00 | 22176 | 40 | -53.7 | -84.7 | 139 | 2 | |
| 2009-06-01T06:00 | 22203 | 40 | -53.8 | -84.8 | 143 | 2 | |
| 2009-06-01T06:00 | 22232 | 40 | -54.0 | -84.9 | 147 | 2 | |
| 2009-06-01T06:00 | 22259 | 40 | -54.3 | -85.2 | 150 | 2 | |
| 2009-06-01T06:00 | 22287 | 40 | -54.4 | -85.2 | 151 | 2 | |
| 2009-06-01T06:00 | 22313 | 39 | -54.5 | -85.3 | 152 | 1 | |
| 2009-06-01T06:00 | 22338 | 39 | -54.5 | -85.3 | 154 | 1 | |
| 2009-06-01T06:00 | 22367 | 39 | -54.6 | -85.4 | 151 | 1 | |
| 2009-06-01T06:00 | 22393 | 39 | -54.7 | -85.5 | 0 | 0 | |
| 2009-06-01T06:00 | 22418 | 39 | -54.8 | -85.5 | 32 | 1 | |
| 2009-06-01T06:00 | 22444 | 39 | -54.5 | -85.3 | 31 | 1 | |
| 2009-06-01T06:00 | 22472 | 39 | -54.4 | -85.2 | 36 | 2 | |
| 2009-06-01T06:00 | 22497 | 38 | -54.4 | -85.2 | 41 | 2 | |
| 2009-06-01T06:00 | 22522 | 38 | -54.5 | -85.3 | 46 | 3 | |
| 2009-06-01T06:00 | 22547 | 38 | -54.6 | -85.4 | 51 | 4 | |
| 2009-06-01T06:00 | 22573 | 38 | -54.8 | -85.5 | 55 | 4 | |
| 2009-06-01T06:00 | 22601 | 38 | -54.9 | -85.6 | 58 | 5 | |
| 2009-06-01T06:00 | 22628 | 38 | -55.1 | -85.8 | 61 | 6 | |
| 2009-06-01T06:00 | 22654 | 37 | -55.1 | -85.8 | 64 | 7 | |
| 2009-06-01T06:00 | 22678 | 37 | -55.0 | -85.7 | 68 | 8 | |
| 2009-06-01T06:00 | 22702 | 37 | -55.0 | -85.7 | 71 | 9 | |
| 2009-06-01T06:00 | 22729 | 37 | -54.8 | -85.5 | 74 | 9 | |
| 2009-06-01T06:00 | 22753 | 37 | -54.8 | -85.5 | 77 | 10 | |
| 2009-06-01T06:00 | 22778 | 37 | -54.8 | -85.5 | 78 | 10 | |
| 2009-06-01T06:00 | 22803 | 37 | -54.8 | -85.5 | 79 | 10 | |
| 2009-06-01T06:00 | 22830 | 36 | -54.8 | -85.5 | 80 | 10 | |
| 2009-06-01T06:00 | 22855 | 36 | -54.9 | -85.6 | 80 | 9 | |
| 2009-06-01T06:00 | 22881 | 36 | -54.9 | -85.6 | 80 | 9 | |
| 2009-06-01T06:00 | 22907 | 36 | -54.9 | -85.6 | 80 | 8 | |
| 2009-06-01T06:00 | 22933 | 36 | -54.9 | -85.6 | 79 | 8 | |
| 2009-06-01T06:00 | 22960 | 36 | -54.8 | -85.5 | 78 | 7 | |
| 2009-06-01T06:00 | 22986 | 36 | -54.6 | -85.4 | 77 | 7 | |
| 2009-06-01T06:00 | 23015 | 35 | -54.6 | -85.4 | 76 | 6 | |
| 2009-06-01T06:00 | 23043 | 35 | -54.4 | -85.2 | 75 | 6 | |
| 2009-06-01T06:00 | 23070 | 35 | -54.1 | -85.0 | 74 | 6 | |
| 2009-06-01T06:00 | 23097 | 35 | -54.0 | -84.9 | 71 | 6 | |
| 2009-06-01T06:00 | 23125 | 35 | -53.9 | -84.9 | 68 | 6 | |
| 2009-06-01T06:00 | 23154 | 35 | -54.0 | -84.9 | 65 | 6 | |
| 2009-06-01T06:00 | 23181 | 34 | -53.9 | -84.9 | 63 | 5 | |
| 2009-06-01T06:00 | 23208 | 34 | -53.9 | -84.9 | 62 | 5 | |
| 2009-06-01T06:00 | 23236 | 34 | -53.7 | -84.7 | 62 | 5 | |
| 2009-06-01T06:00 | 23268 | 34 | -53.6 | -84.6 | 63 | 5 | |
| 2009-06-01T06:00 | 23297 | 34 | -53.5 | -84.6 | 65 | 5 | |
| 2009-06-01T06:00 | 23326 | 34 | -53.5 | -84.6 | 68 | 5 | |
| 2009-06-01T06:00 | 23353 | 34 | -53.5 | -84.6 | 71 | 5 | |
| 2009-06-01T06:00 | 23383 | 33 | -53.4 | -84.5 | 75 | 6 | |
| 2009-06-01T06:00 | 23412 | 33 | -53.5 | -84.6 | 79 | 6 | |
| 2009-06-01T06:00 | 23441 | 33 | -53.6 | -84.6 | 84 | 6 | |
| 2009-06-01T06:00 | 23471 | 33 | -53.7 | -84.7 | 89 | 7 | |
| 2009-06-01T06:00 | 23500 | 33 | -53.6 | -84.6 | 94 | 6 | |
| 2009-06-01T06:00 | 23528 | 33 | -53.6 | -84.6 | 97 | 6 | |
| 2009-06-01T06:00 | 23558 | 33 | -53.5 | -84.6 | 98 | 5 | |
| 2009-06-01T06:00 | 23588 | 32 | -53.4 | -84.5 | 97 | 5 | |
| 2009-06-01T06:00 | 23617 | 32 | -53.5 | -84.6 | 94 | 4 | |
| 2009-06-01T06:00 | 23645 | 32 | -53.5 | -84.6 | 87 | 3 | |
| 2009-06-01T06:00 | 23673 | 32 | -53.6 | -84.6 | 80 | 2 | |
| 2009-06-01T06:00 | 23701 | 32 | -53.7 | -84.7 | 74 | 2 | |
| 2009-06-01T06:00 | 23731 | 32 | -53.7 | -84.7 | 75 | 2 | |
| 2009-06-01T06:00 | 23759 | 32 | -53.7 | -84.7 | 82 | 2 | |
| 2009-06-01T06:00 | 23789 | 31 | -53.7 | -84.7 | 89 | 2 | |
| 2009-06-01T06:00 | 23816 | 31 | -53.7 | -84.7 | 95 | 2 | |
| 2009-06-01T06:00 | 23843 | 31 | -53.8 | -84.8 | 95 | 2 | |
| 2009-06-01T06:00 | 23871 | 31 | -53.8 | -84.8 | 89 | 2 | |
| 2009-06-01T06:00 | 23899 | 31 | -53.8 | -84.8 | 77 | 2 | |
| 2009-06-01T06:00 | 23927 | 31 | -53.2 | -84.4 | 63 | 1 | |
| 2009-06-01T06:00 | 23953 | 31 | -53.1 | -84.3 | 56 | 2 | |
| 2009-06-01T06:00 | 23980 | 30 | -53.1 | -84.3 | 58 | 2 | |
| 2009-06-01T06:00 | 24008 | 30 | -53.0 | -84.2 | 63 | 2 | |
| 2009-06-01T06:00 | 24035 | 30 | -53.1 | -84.3 | 68 | 3 | |
| 2009-06-01T06:00 | 24062 | 30 | -53.1 | -84.3 | 67 | 3 | |
| 2009-06-01T06:00 | 24089 | 30 | -53.1 | -84.3 | 63 | 4 | |
| 2009-06-01T06:00 | 24115 | 30 | -52.9 | -84.1 | 55 | 4 | |
| 2009-06-01T06:00 | 24142 | 30 | -52.9 | -84.1 | 45 | 4 | |
| 2009-06-01T06:00 | 24167 | 30 | -52.7 | -84.0 | 33 | 4 | |
| 2009-06-01T06:00 | 24193 | 29 | -52.7 | -84.0 | 23 | 5 | |
| 2009-06-01T06:00 | 24217 | 29 | -52.7 | -84.0 | 15 | 6 | |
| 2009-06-01T06:00 | 24240 | 29 | -52.7 | -84.0 | 11 | 6 | |
| 2009-06-01T06:00 | 24266 | 29 | -52.8 | -84.1 | 10 | 7 | |
| 2009-06-01T06:00 | 24293 | 29 | -52.7 | -84.0 | 10 | 8 | |
| 2009-06-01T06:00 | 24316 | 29 | -52.7 | -84.0 | 12 | 9 | |
| 2009-06-01T06:00 | 24341 | 29 | -52.7 | -84.0 | 14 | 9 | |
| 2009-06-01T06:00 | 24364 | 29 | -52.5 | -83.8 | 17 | 9 | |
| 2009-06-01T06:00 | 24389 | 29 | -52.0 | -83.5 | 21 | 8 | |
| 2009-06-01T06:00 | 24415 | 28 | -52.0 | -83.5 | 25 | 8 | |
| 2009-06-01T06:00 | 24443 | 28 | -52.0 | -83.5 | 32 | 7 | |
| 2009-06-01T06:00 | 24467 | 28 | -52.0 | -83.5 | 40 | 6 | |
| 2009-06-01T06:00 | 24494 | 28 | -51.9 | -83.4 | 50 | 6 | |
| 2009-06-01T06:00 | 24519 | 28 | -51.9 | -83.4 | 59 | 6 | |
| 2009-06-01T06:00 | 24547 | 28 | -51.8 | -83.3 | 66 | 6 | |
| 2009-06-01T06:00 | 24572 | 28 | -51.5 | -83.1 | 70 | 6 | |
| 2009-06-01T06:00 | 24597 | 28 | -51.6 | -83.2 | 73 | 6 | |
| 2009-06-01T06:00 | 24623 | 28 | -51.8 | -83.3 | 75 | 6 | |
| 2009-06-01T06:00 | 24651 | 27 | -52.0 | -83.5 | 78 | 6 | |
| 2009-06-01T06:00 | 24680 | 27 | -52.1 | -83.5 | 79 | 6 | |
| 2009-06-01T06:00 | 24708 | 27 | -52.3 | -83.7 | 81 | 6 | |
| 2009-06-01T06:00 | 24735 | 27 | -52.5 | -83.8 | 81 | 6 | |
| 2009-06-01T06:00 | 24764 | 27 | -52.7 | -84.0 | 81 | 5 | |
| 2009-06-01T06:00 | 24795 | 27 | -52.8 | -84.1 | 80 | 5 | |
| 2009-06-01T06:00 | 24825 | 27 | -52.9 | -84.1 | 80 | 5 | |
| 2009-06-01T06:00 | 24857 | 27 | -52.9 | -84.1 | 78 | 5 | |
| 2009-06-01T06:00 | 24883 | 26 | -53.0 | -84.2 | 74 | 5 | |
| 2009-06-01T06:00 | 24916 | 26 | -53.0 | -84.2 | 68 | 5 | |
| 2009-06-01T06:00 | 24946 | 26 | -52.8 | -84.1 | 60 | 5 | |
| 2009-06-01T06:00 | 24976 | 26 | -52.6 | -83.9 | 53 | 6 | |
| 2009-06-01T06:00 | 25005 | 26 | -52.7 | -84.0 | 49 | 6 | |
| 2009-06-01T06:00 | 25034 | 26 | -52.8 | -84.1 | 47 | 7 | |
| 2009-06-01T06:00 | 25066 | 26 | -52.8 | -84.1 | 47 | 7 | |
| 2009-06-01T06:00 | 25095 | 26 | -52.3 | -83.7 | 48 | 7 | |
| 2009-06-01T06:00 | 25126 | 26 | -52.0 | -83.5 | 50 | 6 | |
| 2009-06-01T06:00 | 25155 | 25 | -51.8 | -83.3 | 53 | 6 | |
| 2009-06-01T06:00 | 25184 | 25 | -51.7 | -83.2 | 57 | 5 | |
| 2009-06-01T06:00 | 25213 | 25 | -51.4 | -83.0 | 61 | 4 | |
| 2009-06-01T06:00 | 25245 | 25 | -51.4 | -83.0 | 63 | 4 | |
| 2009-06-01T06:00 | 25274 | 25 | -51.0 | -82.7 | 63 | 4 | |
| 2009-06-01T06:00 | 25304 | 25 | -50.9 | -82.7 | 62 | 5 | |
| 2009-06-01T06:00 | 25336 | 25 | -51.1 | -82.8 | 60 | 5 | |
| 2009-06-01T06:00 | 25365 | 25 | -51.3 | -82.9 | 60 | 6 | |
| 2009-06-01T06:00 | 25393 | 24 | -51.4 | -83.0 | 61 | 6 | |
| 2009-06-01T06:00 | 25426 | 24 | -51.6 | -83.2 | 62 | 6 | |
| 2009-06-01T06:00 | 25452 | 24 | -51.6 | -83.2 | 64 | 7 | |
| 2009-06-01T06:00 | 25481 | 24 | -51.6 | -83.2 | 66 | 7 | |
| 2009-06-01T06:00 | 25510 | 24 | -51.6 | -83.2 | 67 | 6 | |
| 2009-06-01T06:00 | 25538 | 24 | -51.5 | -83.1 | 69 | 6 | |
| 2009-06-01T06:00 | 25568 | 24 | -51.6 | -83.2 | 69 | 6 | |
| 2009-06-01T06:00 | 25599 | 24 | -51.5 | -83.1 | 69 | 6 | |
| 2009-06-01T06:00 | 25625 | 24 | -51.5 | -83.1 | 67 | 6 | |
| 2009-06-01T06:00 | 25655 | 24 | -51.3 | -82.9 | 65 | 6 | |
| 2009-06-01T06:00 | 25683 | 23 | -51.1 | -82.8 | 62 | 6 | |
| 2009-06-01T06:00 | 25712 | 23 | -50.8 | -82.6 | 60 | 6 | |
| 2009-06-01T06:00 | 25741 | 23 | -50.7 | -82.5 | 59 | 7 | |
| 2009-06-01T06:00 | 25767 | 23 | -50.5 | 59 | 7 | ||
| 2009-06-01T06:00 | 25796 | 23 | -50.6 | -82.4 | 59 | 7 | |
| 2009-06-01T06:00 | 25825 | 23 | -50.6 | -82.4 | 60 | 8 | |
| 2009-06-01T06:00 | 25853 | 23 | -50.6 | -82.4 | 61 | 8 | |
| 2009-06-01T06:00 | 25885 | 23 | -50.7 | -82.5 | 64 | 9 | |
| 2009-06-01T06:00 | 25911 | 23 | -50.6 | -82.4 | 67 | 9 | |
| 2009-06-01T06:00 | 25940 | 23 | -50.5 | 71 | 9 | ||
| 2009-06-01T06:00 | 25968 | 22 | -50.4 | -82.3 | 76 | 8 | |
| 2009-06-01T06:00 | 25999 | 22 | -50.1 | -82.1 | 79 | 8 | |
| 2009-06-01T06:00 | 26029 | 22 | -49.9 | -81.9 | 82 | 7 | |
| 2009-06-01T06:00 | 26058 | 22 | -49.4 | -81.6 | 83 | 7 | |
| 2009-06-01T06:00 | 26088 | 22 | -49.4 | -81.6 | 82 | 6 | |
| 2009-06-01T06:00 | 26119 | 22 | -49.0 | -81.3 | 81 | 5 | |
| 2009-06-01T06:00 | 26150 | 22 | -48.5 | -80.9 | 80 | 5 | |
| 2009-06-01T06:00 | 26180 | 22 | -48.3 | -80.7 | 79 | 4 | |
| 2009-06-01T06:00 | 26211 | 22 | -47.9 | -80.4 | 79 | 4 | |
| 2009-06-01T06:00 | 26240 | 22 | -47.8 | -80.4 | 77 | 5 | |
| 2009-06-01T06:00 | 26274 | 21 | -47.8 | -80.4 | 74 | 5 | |
| 2009-06-01T06:00 | 26304 | 21 | -47.6 | -80.2 | 70 | 5 | |
| 2009-06-01T06:00 | 26334 | 21 | -47.6 | -80.2 | 64 | 6 | |
| 2009-06-01T06:00 | 26365 | 21 | -47.4 | -80.1 | 57 | 6 | |
| 2009-06-01T06:00 | 26399 | 21 | -47.3 | -80.0 | 51 | 6 | |
| 2009-06-01T06:00 | 26428 | 21 | -47.3 | -80.0 | 45 | 7 | |
| 2009-06-01T06:00 | 26460 | 21 | -47.5 | -80.2 | 42 | 7 | |
| 2009-06-01T06:00 | 26493 | 21 | -47.5 | -80.2 | 40 | 8 | |
| 2009-06-01T06:00 | 26527 | 21 | -47.1 | -79.9 | 40 | 9 | |
| 2009-06-01T06:00 | 26555 | 21 | -46.9 | -79.7 | 42 | 9 | |
| 2009-06-01T06:00 | 26586 | 20 | -47.1 | -79.9 | 45 | 10 | |
| 2009-06-01T06:00 | 26617 | 20 | -47.2 | -79.9 | 48 | 10 | |
| 2009-06-01T06:00 | 26651 | 20 | -47.4 | -80.1 | 52 | 10 | |
| 2009-06-01T06:00 | 26682 | 20 | -47.5 | -80.2 | 55 | 11 | |
| 2009-06-01T06:00 | 26714 | 20 | -47.6 | -80.2 | 57 | 11 | |
| 2009-06-01T06:00 | 26745 | 20 | -47.6 | -80.2 | 58 | 11 | |
| 2009-06-01T06:00 | 26777 | 20 | -47.2 | -79.9 | 58 | 10 | |
| 2009-06-01T06:00 | 26809 | 20 | -47.1 | -79.9 | 57 | 10 | |
| 2009-06-01T06:00 | 26837 | 20 | -47.1 | -79.9 | 55 | 9 | |
| 2009-06-01T06:00 | 26868 | 20 | -46.9 | -79.7 | 53 | 8 | |
| 2009-06-01T06:00 | 26901 | 19 | -46.7 | -79.6 | 51 | 8 | |
| 2009-06-01T06:00 | 26932 | 19 | -46.7 | -79.6 | 52 | 8 | |
| 2009-06-01T06:00 | 26962 | 19 | -46.7 | -79.6 | 54 | 7 | |
| 2009-06-01T06:00 | 26992 | 19 | -46.5 | -79.4 | 58 | 7 |
Only the first 2000 rows were shown. To view the complete dataset, download it as tab-delimited text. You can still view the full matrix in your browser, but be aware that this may crash the browser due to the huge size.
